Wetterdaten: Dienstag, 05.06.2018
Datum Zeit Temp. A. Feuchte A. Luftdruck Regen Wind Richtung Richtung Sonnenschein ET UV Solar Taupunkt Windchill Windböen
05.06.2018 00:00 14,1 °C 86 % 1007,0 hPa 0,0 mm 0,1 km/h (0 Bft) W 267 ° 0 min 0,000 mm 0,0 UV-I 0 W/m² 11,8 °C 14,1 °C 1,6 km/h (1 Bft)
05.06.2018 00:01 14,1 °C 86 % 1007,0 hPa 0,0 mm 0,3 km/h (0 Bft) W 267 ° 0 min 0,000 mm 0,0 UV-I 0 W/m² 11,8 °C 14,1 °C 1,6 km/h (1 Bft)
05.06.2018 00:02 14,0 °C 86 % 1007,0 hPa 0,0 mm 1,2 km/h (1 Bft) W 267 ° 0 min 0,000 mm 0,0 UV-I 0 W/m² 11,7 °C 14,0 °C 3,2 km/h (1 Bft)
05.06.2018 00:03 13,9 °C 86 % 1007,0 hPa 0,0 mm 2,5 km/h (1 Bft) W 267 ° 0 min 0,000 mm 0,0 UV-I 0 W/m² 11,6 °C 13,9 °C 3,2 km/h (1 Bft)
05.06.2018 00:04 13,8 °C 86 % 1006,9 hPa 0,0 mm 1,2 km/h (1 Bft) W 267 ° 0 min 0,000 mm 0,0 UV-I 0 W/m² 11,5 °C 13,8 °C 3,2 km/h (1 Bft)
05.06.2018 00:05 13,8 °C 87 % 1007,0 hPa 0,0 mm 0,0 km/h (0 Bft) W 267 ° 0 min 0,000 mm 0,0 UV-I 0 W/m² 11,7 °C 13,8 °C 0,0 km/h (0 Bft)
05.06.2018 00:06 13,8 °C 87 % 1006,9 hPa 0,0 mm 0,0 km/h (0 Bft) W 267 ° 0 min 0,000 mm 0,0 UV-I 0 W/m² 11,7 °C 13,8 °C 0,0 km/h (0 Bft)
05.06.2018 00:07 13,8 °C 87 % 1006,9 hPa 0,0 mm 0,0 km/h (0 Bft) W 267 ° 0 min 0,000 mm 0,0 UV-I 0 W/m² 11,7 °C 13,8 °C 0,0 km/h (0 Bft)
05.06.2018 00:08 13,8 °C 87 % 1006,9 hPa 0,0 mm 0,0 km/h (0 Bft) W 267 ° 0 min 0,000 mm 0,0 UV-I 0 W/m² 11,7 °C 13,8 °C 0,0 km/h (0 Bft)
05.06.2018 00:09 13,8 °C 87 % 1006,9 hPa 0,0 mm 0,0 km/h (0 Bft) W 267 ° 0 min 0,000 mm 0,0 UV-I 0 W/m² 11,7 °C 13,8 °C 0,0 km/h (0 Bft)
05.06.2018 00:10 13,7 °C 87 % 1006,9 hPa 0,0 mm 0,0 km/h (0 Bft) W 267 ° 0 min 0,000 mm 0,0 UV-I 0 W/m² 11,6 °C 13,7 °C 0,0 km/h (0 Bft)
05.06.2018 00:11 13,7 °C 87 % 1007,0 hPa 0,0 mm 1,3 km/h (1 Bft) W 267 ° 0 min 0,000 mm 0,0 UV-I 0 W/m² 11,6 °C 13,7 °C 3,2 km/h (1 Bft)
05.06.2018 00:12 13,7 °C 88 % 1006,9 hPa 0,0 mm 1,5 km/h (1 Bft) W 267 ° 0 min 0,000 mm 0,0 UV-I 0 W/m² 11,7 °C 13,7 °C 3,2 km/h (1 Bft)
05.06.2018 00:13 13,7 °C 88 % 1006,9 hPa 0,0 mm 0,4 km/h (0 Bft) W 267 ° 0 min 0,000 mm 0,0 UV-I 0 W/m² 11,7 °C 13,7 °C 1,6 km/h (1 Bft)
05.06.2018 00:14 13,7 °C 88 % 1006,9 hPa 0,0 mm 0,1 km/h (0 Bft) W 267 ° 0 min 0,000 mm 0,0 UV-I 0 W/m² 11,7 °C 13,7 °C 1,6 km/h (1 Bft)
05.06.2018 00:15 13,7 °C 88 % 1007,0 hPa 0,0 mm 0,0 km/h (0 Bft) W 267 ° 0 min 0,000 mm 0,0 UV-I 0 W/m² 11,7 °C 13,7 °C 0,0 km/h (0 Bft)
05.06.2018 00:16 13,7 °C 88 % 1007,0 hPa 0,0 mm 0,0 km/h (0 Bft) W 267 ° 0 min 0,000 mm 0,0 UV-I 0 W/m² 11,7 °C 13,7 °C 0,0 km/h (0 Bft)
05.06.2018 00:17 13,7 °C 88 % 1007,0 hPa 0,0 mm 0,0 km/h (0 Bft) W 267 ° 0 min 0,000 mm 0,0 UV-I 0 W/m² 11,7 °C 13,7 °C 0,0 km/h (0 Bft)
05.06.2018 00:18 13,7 °C 88 % 1007,0 hPa 0,0 mm 0,0 km/h (0 Bft) W 267 ° 0 min 0,000 mm 0,0 UV-I 0 W/m² 11,7 °C 13,7 °C 0,0 km/h (0 Bft)
05.06.2018 00:19 13,7 °C 88 % 1007,0 hPa 0,0 mm 0,0 km/h (0 Bft) W 267 ° 0 min 0,000 mm 0,0 UV-I 0 W/m² 11,7 °C 13,7 °C 0,0 km/h (0 Bft)
05.06.2018 00:20 13,7 °C 88 % 1007,0 hPa 0,0 mm 0,0 km/h (0 Bft) W 267 ° 0 min 0,000 mm 0,0 UV-I 0 W/m² 11,7 °C 13,7 °C 0,0 km/h (0 Bft)
05.06.2018 00:21 13,7 °C 87 % 1007,0 hPa 0,0 mm 0,0 km/h (0 Bft) W 267 ° 0 min 0,000 mm 0,0 UV-I 0 W/m² 11,6 °C 13,7 °C 0,0 km/h (0 Bft)
05.06.2018 00:22 13,8 °C 87 % 1006,9 hPa 0,0 mm 0,0 km/h (0 Bft) W 267 ° 0 min 0,000 mm 0,0 UV-I 0 W/m² 11,7 °C 13,8 °C 0,0 km/h (0 Bft)
05.06.2018 00:23 13,8 °C 87 % 1006,9 hPa 0,0 mm 0,0 km/h (0 Bft) W 267 ° 0 min 0,000 mm 0,0 UV-I 0 W/m² 11,7 °C 13,8 °C 0,0 km/h (0 Bft)
05.06.2018 00:24 13,8 °C 87 % 1007,0 hPa 0,0 mm 0,0 km/h (0 Bft) W 267 ° 0 min 0,000 mm 0,0 UV-I 0 W/m² 11,7 °C 13,8 °C 0,0 km/h (0 Bft)
05.06.2018 00:25 13,8 °C 87 % 1007,0 hPa 0,0 mm 0,0 km/h (0 Bft) W 267 ° 0 min 0,000 mm 0,0 UV-I 0 W/m² 11,7 °C 13,8 °C 0,0 km/h (0 Bft)
05.06.2018 00:26 13,8 °C 87 % 1006,9 hPa 0,0 mm 0,3 km/h (0 Bft) W 267 ° 0 min 0,000 mm 0,0 UV-I 0 W/m² 11,7 °C 13,8 °C 3,2 km/h (1 Bft)
05.06.2018 00:27 13,9 °C 87 % 1006,9 hPa 0,0 mm 2,9 km/h (1 Bft) W 267 ° 0 min 0,000 mm 0,0 UV-I 0 W/m² 11,8 °C 13,9 °C 3,2 km/h (1 Bft)
05.06.2018 00:28 13,8 °C 87 % 1006,9 hPa 0,0 mm 2,4 km/h (1 Bft) W 267 ° 0 min 0,000 mm 0,0 UV-I 0 W/m² 11,7 °C 13,8 °C 3,2 km/h (1 Bft)
05.06.2018 00:29 13,8 °C 87 % 1006,9 hPa 0,0 mm 2,6 km/h (1 Bft) W 267 ° 0 min 0,000 mm 0,0 UV-I 0 W/m² 11,7 °C 13,8 °C 3,2 km/h (1 Bft)
05.06.2018 00:30 13,7 °C 87 % 1006,8 hPa 0,0 mm 2,9 km/h (1 Bft) W 267 ° 0 min 0,000 mm 0,0 UV-I 0 W/m² 11,6 °C 13,7 °C 4,8 km/h (1 Bft)
05.06.2018 00:31 13,7 °C 87 % 1006,8 hPa 0,0 mm 3,0 km/h (1 Bft) W 267 ° 0 min 0,000 mm 0,0 UV-I 0 W/m² 11,6 °C 13,7 °C 3,2 km/h (1 Bft)
05.06.2018 00:32 13,5 °C 87 % 1006,8 hPa 0,0 mm 3,1 km/h (1 Bft) W 267 ° 0 min 0,000 mm 0,0 UV-I 0 W/m² 11,4 °C 13,5 °C 4,8 km/h (1 Bft)
05.06.2018 00:33 13,4 °C 87 % 1006,9 hPa 0,0 mm 2,5 km/h (1 Bft) W 267 ° 0 min 0,000 mm 0,0 UV-I 0 W/m² 11,3 °C 13,4 °C 3,2 km/h (1 Bft)
05.06.2018 00:34 13,3 °C 87 % 1006,9 hPa 0,0 mm 2,0 km/h (1 Bft) W 267 ° 0 min 0,000 mm 0,0 UV-I 0 W/m² 11,2 °C 13,3 °C 3,2 km/h (1 Bft)
05.06.2018 00:35 13,2 °C 88 % 1006,8 hPa 0,0 mm 0,3 km/h (0 Bft) W 267 ° 0 min 0,000 mm 0,0 UV-I 0 W/m² 11,3 °C 13,2 °C 1,6 km/h (1 Bft)
05.06.2018 00:36 13,2 °C 89 % 1006,8 hPa 0,0 mm 0,0 km/h (0 Bft) W 267 ° 0 min 0,000 mm 0,0 UV-I 0 W/m² 11,4 °C 13,2 °C 0,0 km/h (0 Bft)
05.06.2018 00:37 13,2 °C 88 % 1006,8 hPa 0,0 mm 0,0 km/h (0 Bft) W 267 ° 0 min 0,000 mm 0,0 UV-I 0 W/m² 11,3 °C 13,2 °C 0,0 km/h (0 Bft)
05.06.2018 00:38 13,3 °C 88 % 1006,8 hPa 0,0 mm 0,0 km/h (0 Bft) W 267 ° 0 min 0,000 mm 0,0 UV-I 0 W/m² 11,4 °C 13,3 °C 0,0 km/h (0 Bft)
05.06.2018 00:39 13,3 °C 88 % 1006,8 hPa 0,0 mm 0,0 km/h (0 Bft) W 267 ° 0 min 0,000 mm 0,0 UV-I 0 W/m² 11,4 °C 13,3 °C 0,0 km/h (0 Bft)
05.06.2018 00:40 13,3 °C 88 % 1006,8 hPa 0,0 mm 0,0 km/h (0 Bft) W 267 ° 0 min 0,000 mm 0,0 UV-I 0 W/m² 11,4 °C 13,3 °C 0,0 km/h (0 Bft)
05.06.2018 00:41 13,3 °C 89 % 1006,7 hPa 0,0 mm 0,0 km/h (0 Bft) W 267 ° 0 min 0,000 mm 0,0 UV-I 0 W/m² 11,5 °C 13,3 °C 0,0 km/h (0 Bft)
05.06.2018 00:42 13,3 °C 88 % 1006,8 hPa 0,0 mm 0,0 km/h (0 Bft) W 267 ° 0 min 0,000 mm 0,0 UV-I 0 W/m² 11,4 °C 13,3 °C 0,0 km/h (0 Bft)
05.06.2018 00:43 13,3 °C 88 % 1006,8 hPa 0,0 mm 0,0 km/h (0 Bft) W 267 ° 0 min 0,000 mm 0,0 UV-I 0 W/m² 11,4 °C 13,3 °C 0,0 km/h (0 Bft)
05.06.2018 00:44 13,2 °C 88 % 1006,8 hPa 0,0 mm 2,1 km/h (1 Bft) W 267 ° 0 min 0,000 mm 0,0 UV-I 0 W/m² 11,3 °C 13,2 °C 3,2 km/h (1 Bft)
05.06.2018 00:45 13,1 °C 88 % 1006,7 hPa 0,0 mm 1,3 km/h (1 Bft) W 267 ° 0 min 0,000 mm 0,0 UV-I 0 W/m² 11,2 °C 13,1 °C 3,2 km/h (1 Bft)
05.06.2018 00:46 13,1 °C 89 % 1006,7 hPa 0,0 mm 2,7 km/h (1 Bft) W 267 ° 0 min 0,000 mm 0,0 UV-I 0 W/m² 11,3 °C 13,1 °C 4,8 km/h (1 Bft)
05.06.2018 00:47 13,1 °C 89 % 1006,7 hPa 0,0 mm 3,9 km/h (1 Bft) W 267 ° 0 min 0,000 mm 0,0 UV-I 0 W/m² 11,3 °C 13,1 °C 4,8 km/h (1 Bft)
05.06.2018 00:48 12,9 °C 89 % 1006,7 hPa 0,0 mm 4,0 km/h (1 Bft) W 267 ° 0 min 0,000 mm 0,0 UV-I 0 W/m² 11,1 °C 12,9 °C 4,8 km/h (1 Bft)
05.06.2018 00:49 12,9 °C 89 % 1006,7 hPa 0,0 mm 3,4 km/h (1 Bft) W 267 ° 0 min 0,000 mm 0,0 UV-I 0 W/m² 11,1 °C 12,9 °C 4,8 km/h (1 Bft)
05.06.2018 00:50 12,9 °C 89 % 1006,7 hPa 0,0 mm 1,9 km/h (1 Bft) W 267 ° 0 min 0,000 mm 0,0 UV-I 0 W/m² 11,1 °C 12,9 °C 3,2 km/h (1 Bft)
05.06.2018 00:51 12,9 °C 89 % 1006,7 hPa 0,0 mm 0,0 km/h (0 Bft) W 267 ° 0 min 0,000 mm 0,0 UV-I 0 W/m² 11,1 °C 12,9 °C 0,0 km/h (0 Bft)
05.06.2018 00:52 12,9 °C 89 % 1006,7 hPa 0,0 mm 0,0 km/h (0 Bft) W 267 ° 0 min 0,000 mm 0,0 UV-I 0 W/m² 11,1 °C 12,9 °C 0,0 km/h (0 Bft)
05.06.2018 00:53 12,9 °C 89 % 1006,7 hPa 0,0 mm 0,0 km/h (0 Bft) W 267 ° 0 min 0,000 mm 0,0 UV-I 0 W/m² 11,1 °C 12,9 °C 0,0 km/h (0 Bft)
05.06.2018 00:54 12,9 °C 89 % 1006,7 hPa 0,0 mm 0,0 km/h (0 Bft) W 267 ° 0 min 0,000 mm 0,0 UV-I 0 W/m² 11,1 °C 12,9 °C 0,0 km/h (0 Bft)
05.06.2018 00:55 12,9 °C 89 % 1006,6 hPa 0,0 mm 0,1 km/h (0 Bft) W 267 ° 0 min 0,000 mm 0,0 UV-I 0 W/m² 11,1 °C 12,9 °C 1,6 km/h (1 Bft)
05.06.2018 00:56 12,8 °C 89 % 1006,7 hPa 0,0 mm 0,0 km/h (0 Bft) W 267 ° 0 min 0,000 mm 0,0 UV-I 0 W/m² 11,0 °C 12,8 °C 0,0 km/h (0 Bft)
05.06.2018 00:57 12,8 °C 89 % 1006,7 hPa 0,0 mm 0,0 km/h (0 Bft) W 267 ° 0 min 0,000 mm 0,0 UV-I 0 W/m² 11,0 °C 12,8 °C 0,0 km/h (0 Bft)
05.06.2018 00:58 12,8 °C 90 % 1006,7 hPa 0,0 mm 0,0 km/h (0 Bft) W 267 ° 0 min 0,000 mm 0,0 UV-I 0 W/m² 11,2 °C 12,8 °C 0,0 km/h (0 Bft)
05.06.2018 00:59 12,8 °C 90 % 1006,7 hPa 0,0 mm 0,0 km/h (0 Bft) W 267 ° 0 min 0,000 mm 0,0 UV-I 0 W/m² 11,2 °C 12,8 °C 0,0 km/h (0 Bft)
05.06.2018 01:00 12,8 °C 90 % 1006,6 hPa 0,0 mm 0,0 km/h (0 Bft) W 267 ° 0 min 0,000 mm 0,0 UV-I 0 W/m² 11,2 °C 12,8 °C 0,0 km/h (0 Bft)
05.06.2018 01:01 12,8 °C 90 % 1006,6 hPa 0,0 mm 0,0 km/h (0 Bft) W 267 ° 0 min 0,000 mm 0,0 UV-I 0 W/m² 11,2 °C 12,8 °C 0,0 km/h (0 Bft)
05.06.2018 01:02 12,7 °C 90 % 1006,6 hPa 0,0 mm 0,0 km/h (0 Bft) W 267 ° 0 min 0,000 mm 0,0 UV-I 0 W/m² 11,1 °C 12,7 °C 0,0 km/h (0 Bft)
05.06.2018 01:03 12,7 °C 90 % 1006,6 hPa 0,0 mm 0,0 km/h (0 Bft) W 267 ° 0 min 0,000 mm 0,0 UV-I 0 W/m² 11,1 °C 12,7 °C 0,0 km/h (0 Bft)
05.06.2018 01:04 12,7 °C 90 % 1006,6 hPa 0,0 mm 0,0 km/h (0 Bft) W 267 ° 0 min 0,000 mm 0,0 UV-I 0 W/m² 11,1 °C 12,7 °C 0,0 km/h (0 Bft)
05.06.2018 01:05 12,7 °C 90 % 1006,7 hPa 0,0 mm 0,0 km/h (0 Bft) W 267 ° 0 min 0,000 mm 0,0 UV-I 0 W/m² 11,1 °C 12,7 °C 0,0 km/h (0 Bft)
05.06.2018 01:06 12,7 °C 90 % 1006,7 hPa 0,0 mm 0,0 km/h (0 Bft) W 267 ° 0 min 0,000 mm 0,0 UV-I 0 W/m² 11,1 °C 12,7 °C 0,0 km/h (0 Bft)
05.06.2018 01:07 12,6 °C 90 % 1006,6 hPa 0,0 mm 0,0 km/h (0 Bft) W 267 ° 0 min 0,000 mm 0,0 UV-I 0 W/m² 11,0 °C 12,6 °C 0,0 km/h (0 Bft)
05.06.2018 01:08 12,6 °C 90 % 1006,6 hPa 0,0 mm 0,0 km/h (0 Bft) W 267 ° 0 min 0,000 mm 0,0 UV-I 0 W/m² 11,0 °C 12,6 °C 0,0 km/h (0 Bft)
05.06.2018 01:09 12,6 °C 90 % 1006,6 hPa 0,0 mm 0,0 km/h (0 Bft) W 267 ° 0 min 0,000 mm 0,0 UV-I 0 W/m² 11,0 °C 12,6 °C 0,0 km/h (0 Bft)
05.06.2018 01:10 12,6 °C 90 % 1006,6 hPa 0,0 mm 0,0 km/h (0 Bft) W 267 ° 0 min 0,000 mm 0,0 UV-I 0 W/m² 11,0 °C 12,6 °C 0,0 km/h (0 Bft)
05.06.2018 01:11 12,6 °C 90 % 1006,6 hPa 0,0 mm 0,0 km/h (0 Bft) W 267 ° 0 min 0,000 mm 0,0 UV-I 0 W/m² 11,0 °C 12,6 °C 0,0 km/h (0 Bft)
05.06.2018 01:12 12,6 °C 90 % 1006,6 hPa 0,0 mm 0,0 km/h (0 Bft) W 267 ° 0 min 0,000 mm 0,0 UV-I 0 W/m² 11,0 °C 12,6 °C 0,0 km/h (0 Bft)
05.06.2018 01:13 12,6 °C 91 % 1006,6 hPa 0,0 mm 0,0 km/h (0 Bft) W 267 ° 0 min 0,000 mm 0,0 UV-I 0 W/m² 11,2 °C 12,6 °C 0,0 km/h (0 Bft)
05.06.2018 01:14 12,6 °C 91 % 1006,6 hPa 0,0 mm 0,0 km/h (0 Bft) W 267 ° 0 min 0,000 mm 0,0 UV-I 0 W/m² 11,2 °C 12,6 °C 0,0 km/h (0 Bft)
05.06.2018 01:15 12,6 °C 91 % 1006,6 hPa 0,0 mm 0,0 km/h (0 Bft) W 267 ° 0 min 0,000 mm 0,0 UV-I 0 W/m² 11,2 °C 12,6 °C 0,0 km/h (0 Bft)
05.06.2018 01:16 12,5 °C 91 % 1006,6 hPa 0,0 mm 0,0 km/h (0 Bft) W 267 ° 0 min 0,000 mm 0,0 UV-I 0 W/m² 11,1 °C 12,5 °C 0,0 km/h (0 Bft)
05.06.2018 01:17 12,6 °C 91 % 1006,6 hPa 0,0 mm 0,0 km/h (0 Bft) W 267 ° 0 min 0,000 mm 0,0 UV-I 0 W/m² 11,2 °C 12,6 °C 0,0 km/h (0 Bft)
05.06.2018 01:18 12,5 °C 91 % 1006,6 hPa 0,0 mm 0,0 km/h (0 Bft) W 267 ° 0 min 0,000 mm 0,0 UV-I 0 W/m² 11,1 °C 12,5 °C 0,0 km/h (0 Bft)
05.06.2018 01:19 12,4 °C 91 % 1006,6 hPa 0,0 mm 0,0 km/h (0 Bft) W 267 ° 0 min 0,000 mm 0,0 UV-I 0 W/m² 11,0 °C 12,4 °C 0,0 km/h (0 Bft)
05.06.2018 01:20 12,4 °C 91 % 1006,6 hPa 0,0 mm 0,0 km/h (0 Bft) W 267 ° 0 min 0,000 mm 0,0 UV-I 0 W/m² 11,0 °C 12,4 °C 0,0 km/h (0 Bft)
05.06.2018 01:21 12,4 °C 91 % 1006,6 hPa 0,0 mm 0,0 km/h (0 Bft) W 267 ° 0 min 0,000 mm 0,0 UV-I 0 W/m² 11,0 °C 12,4 °C 0,0 km/h (0 Bft)
05.06.2018 01:22 12,4 °C 91 % 1006,6 hPa 0,0 mm 0,0 km/h (0 Bft) W 267 ° 0 min 0,000 mm 0,0 UV-I 0 W/m² 11,0 °C 12,4 °C 0,0 km/h (0 Bft)
05.06.2018 01:23 12,4 °C 91 % 1006,6 hPa 0,0 mm 0,0 km/h (0 Bft) W 267 ° 0 min 0,000 mm 0,0 UV-I 0 W/m² 11,0 °C 12,4 °C 0,0 km/h (0 Bft)
05.06.2018 01:24 12,4 °C 91 % 1006,6 hPa 0,0 mm 0,0 km/h (0 Bft) W 267 ° 0 min 0,000 mm 0,0 UV-I 0 W/m² 11,0 °C 12,4 °C 0,0 km/h (0 Bft)
05.06.2018 01:25 12,3 °C 91 % 1006,6 hPa 0,0 mm 0,0 km/h (0 Bft) W 267 ° 0 min 0,000 mm 0,0 UV-I 0 W/m² 10,9 °C 12,3 °C 0,0 km/h (0 Bft)
05.06.2018 01:26 12,3 °C 91 % 1006,6 hPa 0,0 mm 0,0 km/h (0 Bft) W 267 ° 0 min 0,000 mm 0,0 UV-I 0 W/m² 10,9 °C 12,3 °C 0,0 km/h (0 Bft)
05.06.2018 01:27 12,3 °C 91 % 1006,6 hPa 0,0 mm 0,0 km/h (0 Bft) W 267 ° 0 min 0,000 mm 0,0 UV-I 0 W/m² 10,9 °C 12,3 °C 0,0 km/h (0 Bft)
05.06.2018 01:28 12,3 °C 91 % 1006,6 hPa 0,0 mm 0,0 km/h (0 Bft) W 267 ° 0 min 0,000 mm 0,0 UV-I 0 W/m² 10,9 °C 12,3 °C 0,0 km/h (0 Bft)
05.06.2018 01:29 12,3 °C 91 % 1006,6 hPa 0,0 mm 0,0 km/h (0 Bft) W 267 ° 0 min 0,000 mm 0,0 UV-I 0 W/m² 10,9 °C 12,3 °C 0,0 km/h (0 Bft)
05.06.2018 01:30 12,3 °C 91 % 1006,6 hPa 0,0 mm 0,0 km/h (0 Bft) W 267 ° 0 min 0,000 mm 0,0 UV-I 0 W/m² 10,9 °C 12,3 °C 0,0 km/h (0 Bft)
05.06.2018 01:31 12,3 °C 91 % 1006,6 hPa 0,0 mm 0,0 km/h (0 Bft) W 267 ° 0 min 0,000 mm 0,0 UV-I 0 W/m² 10,9 °C 12,3 °C 0,0 km/h (0 Bft)
05.06.2018 01:32 12,3 °C 91 % 1006,6 hPa 0,0 mm 0,0 km/h (0 Bft) W 267 ° 0 min 0,000 mm 0,0 UV-I 0 W/m² 10,9 °C 12,3 °C 0,0 km/h (0 Bft)
05.06.2018 01:33 12,2 °C 91 % 1006,6 hPa 0,0 mm 0,0 km/h (0 Bft) W 267 ° 0 min 0,000 mm 0,0 UV-I 0 W/m² 10,8 °C 12,2 °C 0,0 km/h (0 Bft)
05.06.2018 01:34 12,2 °C 91 % 1006,6 hPa 0,0 mm 0,0 km/h (0 Bft) W 267 ° 0 min 0,000 mm 0,0 UV-I 0 W/m² 10,8 °C 12,2 °C 0,0 km/h (0 Bft)
05.06.2018 01:35 12,2 °C 91 % 1006,5 hPa 0,0 mm 0,0 km/h (0 Bft) W 267 ° 0 min 0,000 mm 0,0 UV-I 0 W/m² 10,8 °C 12,2 °C 0,0 km/h (0 Bft)
05.06.2018 01:36 12,2 °C 91 % 1006,5 hPa 0,0 mm 0,0 km/h (0 Bft) W 267 ° 0 min 0,000 mm 0,0 UV-I 0 W/m² 10,8 °C 12,2 °C 0,0 km/h (0 Bft)
05.06.2018 01:37 12,3 °C 92 % 1006,5 hPa 0,0 mm 0,0 km/h (0 Bft) W 267 ° 0 min 0,000 mm 0,0 UV-I 0 W/m² 11,0 °C 12,3 °C 0,0 km/h (0 Bft)
05.06.2018 01:38 12,3 °C 91 % 1006,5 hPa 0,0 mm 0,0 km/h (0 Bft) W 267 ° 0 min 0,000 mm 0,0 UV-I 0 W/m² 10,9 °C 12,3 °C 0,0 km/h (0 Bft)
05.06.2018 01:39 12,2 °C 91 % 1006,6 hPa 0,0 mm 0,0 km/h (0 Bft) W 267 ° 0 min 0,000 mm 0,0 UV-I 0 W/m² 10,8 °C 12,2 °C 0,0 km/h (0 Bft)
05.06.2018 01:40 12,2 °C 91 % 1006,6 hPa 0,0 mm 0,0 km/h (0 Bft) W 267 ° 0 min 0,000 mm 0,0 UV-I 0 W/m² 10,8 °C 12,2 °C 0,0 km/h (0 Bft)
05.06.2018 01:41 12,2 °C 91 % 1006,6 hPa 0,0 mm 0,0 km/h (0 Bft) W 267 ° 0 min 0,000 mm 0,0 UV-I 0 W/m² 10,8 °C 12,2 °C 0,0 km/h (0 Bft)
05.06.2018 01:42 12,2 °C 91 % 1006,6 hPa 0,0 mm 0,0 km/h (0 Bft) W 267 ° 0 min 0,000 mm 0,0 UV-I 0 W/m² 10,8 °C 12,2 °C 0,0 km/h (0 Bft)
05.06.2018 01:43 12,3 °C 91 % 1006,6 hPa 0,0 mm 0,0 km/h (0 Bft) W 267 ° 0 min 0,000 mm 0,0 UV-I 0 W/m² 10,9 °C 12,3 °C 0,0 km/h (0 Bft)
05.06.2018 01:44 12,3 °C 92 % 1006,6 hPa 0,0 mm 0,0 km/h (0 Bft) W 267 ° 0 min 0,000 mm 0,0 UV-I 0 W/m² 11,0 °C 12,3 °C 0,0 km/h (0 Bft)
05.06.2018 01:45 12,3 °C 92 % 1006,6 hPa 0,0 mm 0,0 km/h (0 Bft) W 267 ° 0 min 0,000 mm 0,0 UV-I 0 W/m² 11,0 °C 12,3 °C 0,0 km/h (0 Bft)
05.06.2018 01:46 12,3 °C 91 % 1006,6 hPa 0,0 mm 0,0 km/h (0 Bft) W 267 ° 0 min 0,000 mm 0,0 UV-I 0 W/m² 10,9 °C 12,3 °C 0,0 km/h (0 Bft)
05.06.2018 01:47 12,2 °C 91 % 1006,6 hPa 0,0 mm 0,0 km/h (0 Bft) W 267 ° 0 min 0,000 mm 0,0 UV-I 0 W/m² 10,8 °C 12,2 °C 0,0 km/h (0 Bft)
05.06.2018 01:48 12,1 °C 91 % 1006,6 hPa 0,0 mm 0,0 km/h (0 Bft) W 267 ° 0 min 0,000 mm 0,0 UV-I 0 W/m² 10,7 °C 12,1 °C 0,0 km/h (0 Bft)
05.06.2018 01:49 12,1 °C 91 % 1006,6 hPa 0,0 mm 0,0 km/h (0 Bft) W 267 ° 0 min 0,000 mm 0,0 UV-I 0 W/m² 10,7 °C 12,1 °C 0,0 km/h (0 Bft)
05.06.2018 01:50 12,1 °C 91 % 1006,6 hPa 0,0 mm 0,0 km/h (0 Bft) W 267 ° 0 min 0,000 mm 0,0 UV-I 0 W/m² 10,7 °C 12,1 °C 0,0 km/h (0 Bft)
05.06.2018 01:51 12,1 °C 91 % 1006,6 hPa 0,0 mm 0,0 km/h (0 Bft) W 267 ° 0 min 0,000 mm 0,0 UV-I 0 W/m² 10,7 °C 12,1 °C 0,0 km/h (0 Bft)
05.06.2018 01:52 12,1 °C 91 % 1006,6 hPa 0,0 mm 0,0 km/h (0 Bft) W 267 ° 0 min 0,000 mm 0,0 UV-I 0 W/m² 10,7 °C 12,1 °C 0,0 km/h (0 Bft)
05.06.2018 01:53 12,1 °C 91 % 1006,7 hPa 0,0 mm 0,0 km/h (0 Bft) W 267 ° 0 min 0,000 mm 0,0 UV-I 0 W/m² 10,7 °C 12,1 °C 0,0 km/h (0 Bft)
05.06.2018 01:54 12,2 °C 92 % 1006,7 hPa 0,0 mm 0,0 km/h (0 Bft) W 267 ° 0 min 0,000 mm 0,0 UV-I 0 W/m² 10,9 °C 12,2 °C 0,0 km/h (0 Bft)
05.06.2018 01:55 12,2 °C 92 % 1006,7 hPa 0,0 mm 0,0 km/h (0 Bft) W 267 ° 0 min 0,000 mm 0,0 UV-I 0 W/m² 10,9 °C 12,2 °C 0,0 km/h (0 Bft)
05.06.2018 01:56 12,3 °C 92 % 1006,6 hPa 0,0 mm 0,0 km/h (0 Bft) W 267 ° 0 min 0,000 mm 0,0 UV-I 0 W/m² 11,0 °C 12,3 °C 0,0 km/h (0 Bft)
05.06.2018 01:57 12,3 °C 91 % 1006,7 hPa 0,0 mm 0,0 km/h (0 Bft) W 267 ° 0 min 0,000 mm 0,0 UV-I 0 W/m² 10,9 °C 12,3 °C 0,0 km/h (0 Bft)
05.06.2018 01:58 12,3 °C 91 % 1006,7 hPa 0,0 mm 0,0 km/h (0 Bft) W 267 ° 0 min 0,000 mm 0,0 UV-I 0 W/m² 10,9 °C 12,3 °C 0,0 km/h (0 Bft)
05.06.2018 01:59 12,3 °C 92 % 1006,6 hPa 0,0 mm 0,0 km/h (0 Bft) W 267 ° 0 min 0,000 mm 0,0 UV-I 0 W/m² 11,0 °C 12,3 °C 0,0 km/h (0 Bft)
05.06.2018 02:00 12,4 °C 92 % 1006,6 hPa 0,0 mm 0,0 km/h (0 Bft) W 267 ° 0 min 0,000 mm 0,0 UV-I 0 W/m² 11,1 °C 12,4 °C 0,0 km/h (0 Bft)
05.06.2018 02:01 12,4 °C 92 % 1006,6 hPa 0,0 mm 0,0 km/h (0 Bft) W 267 ° 0 min 0,000 mm 0,0 UV-I 0 W/m² 11,1 °C 12,4 °C 0,0 km/h (0 Bft)
05.06.2018 02:02 12,4 °C 91 % 1006,6 hPa 0,0 mm 0,0 km/h (0 Bft) W 267 ° 0 min 0,000 mm 0,0 UV-I 0 W/m² 11,0 °C 12,4 °C 0,0 km/h (0 Bft)
05.06.2018 02:03 12,4 °C 91 % 1006,6 hPa 0,0 mm 0,0 km/h (0 Bft) W 267 ° 0 min 0,000 mm 0,0 UV-I 0 W/m² 11,0 °C 12,4 °C 0,0 km/h (0 Bft)
05.06.2018 02:04 12,4 °C 91 % 1006,6 hPa 0,0 mm 0,0 km/h (0 Bft) W 267 ° 0 min 0,000 mm 0,0 UV-I 0 W/m² 11,0 °C 12,4 °C 0,0 km/h (0 Bft)
05.06.2018 02:05 12,3 °C 91 % 1006,6 hPa 0,0 mm 0,0 km/h (0 Bft) W 267 ° 0 min 0,000 mm 0,0 UV-I 0 W/m² 10,9 °C 12,3 °C 0,0 km/h (0 Bft)
05.06.2018 02:06 12,3 °C 91 % 1006,6 hPa 0,0 mm 0,0 km/h (0 Bft) W 267 ° 0 min 0,000 mm 0,0 UV-I 0 W/m² 10,9 °C 12,3 °C 0,0 km/h (0 Bft)
05.06.2018 02:07 12,3 °C 91 % 1006,6 hPa 0,0 mm 0,0 km/h (0 Bft) W 267 ° 0 min 0,000 mm 0,0 UV-I 0 W/m² 10,9 °C 12,3 °C 0,0 km/h (0 Bft)
05.06.2018 02:08 12,2 °C 91 % 1006,6 hPa 0,0 mm 0,0 km/h (0 Bft) W 267 ° 0 min 0,000 mm 0,0 UV-I 0 W/m² 10,8 °C 12,2 °C 0,0 km/h (0 Bft)
05.06.2018 02:09 12,2 °C 91 % 1006,5 hPa 0,0 mm 0,0 km/h (0 Bft) W 267 ° 0 min 0,000 mm 0,0 UV-I 0 W/m² 10,8 °C 12,2 °C 0,0 km/h (0 Bft)
05.06.2018 02:10 12,2 °C 91 % 1006,5 hPa 0,0 mm 0,0 km/h (0 Bft) W 267 ° 0 min 0,000 mm 0,0 UV-I 0 W/m² 10,8 °C 12,2 °C 0,0 km/h (0 Bft)
05.06.2018 02:11 12,2 °C 91 % 1006,5 hPa 0,0 mm 0,0 km/h (0 Bft) W 267 ° 0 min 0,000 mm 0,0 UV-I 0 W/m² 10,8 °C 12,2 °C 0,0 km/h (0 Bft)
05.06.2018 02:12 12,2 °C 91 % 1006,6 hPa 0,0 mm 0,0 km/h (0 Bft) W 267 ° 0 min 0,000 mm 0,0 UV-I 0 W/m² 10,8 °C 12,2 °C 0,0 km/h (0 Bft)
05.06.2018 02:13 12,2 °C 91 % 1006,5 hPa 0,0 mm 0,0 km/h (0 Bft) W 267 ° 0 min 0,000 mm 0,0 UV-I 0 W/m² 10,8 °C 12,2 °C 0,0 km/h (0 Bft)
05.06.2018 02:14 12,2 °C 91 % 1006,6 hPa 0,0 mm 0,0 km/h (0 Bft) W 267 ° 0 min 0,000 mm 0,0 UV-I 0 W/m² 10,8 °C 12,2 °C 0,0 km/h (0 Bft)
05.06.2018 02:15 12,2 °C 91 % 1006,6 hPa 0,0 mm 0,0 km/h (0 Bft) W 267 ° 0 min 0,000 mm 0,0 UV-I 0 W/m² 10,8 °C 12,2 °C 0,0 km/h (0 Bft)
05.06.2018 02:16 12,2 °C 91 % 1006,6 hPa 0,0 mm 0,0 km/h (0 Bft) W 267 ° 0 min 0,000 mm 0,0 UV-I 0 W/m² 10,8 °C 12,2 °C 0,0 km/h (0 Bft)
05.06.2018 02:17 12,2 °C 91 % 1006,6 hPa 0,0 mm 0,0 km/h (0 Bft) W 267 ° 0 min 0,000 mm 0,0 UV-I 0 W/m² 10,8 °C 12,2 °C 0,0 km/h (0 Bft)
05.06.2018 02:18 12,2 °C 91 % 1006,5 hPa 0,0 mm 0,0 km/h (0 Bft) W 267 ° 0 min 0,000 mm 0,0 UV-I 0 W/m² 10,8 °C 12,2 °C 0,0 km/h (0 Bft)
05.06.2018 02:19 12,1 °C 91 % 1006,5 hPa 0,0 mm 0,0 km/h (0 Bft) W 267 ° 0 min 0,000 mm 0,0 UV-I 0 W/m² 10,7 °C 12,1 °C 0,0 km/h (0 Bft)
05.06.2018 02:20 12,1 °C 91 % 1006,6 hPa 0,0 mm 0,0 km/h (0 Bft) W 267 ° 0 min 0,000 mm 0,0 UV-I 0 W/m² 10,7 °C 12,1 °C 0,0 km/h (0 Bft)
05.06.2018 02:21 12,1 °C 91 % 1006,6 hPa 0,0 mm 0,0 km/h (0 Bft) W 267 ° 0 min 0,000 mm 0,0 UV-I 0 W/m² 10,7 °C 12,1 °C 0,0 km/h (0 Bft)
05.06.2018 02:22 12,1 °C 91 % 1006,6 hPa 0,0 mm 0,0 km/h (0 Bft) W 267 ° 0 min 0,000 mm 0,0 UV-I 0 W/m² 10,7 °C 12,1 °C 0,0 km/h (0 Bft)
05.06.2018 02:23 12,0 °C 91 % 1006,6 hPa 0,0 mm 0,0 km/h (0 Bft) W 267 ° 0 min 0,000 mm 0,0 UV-I 0 W/m² 10,6 °C 12,0 °C 0,0 km/h (0 Bft)
05.06.2018 02:24 12,0 °C 91 % 1006,6 hPa 0,0 mm 0,0 km/h (0 Bft) W 267 ° 0 min 0,000 mm 0,0 UV-I 0 W/m² 10,6 °C 12,0 °C 0,0 km/h (0 Bft)
05.06.2018 02:25 12,0 °C 91 % 1006,6 hPa 0,0 mm 0,0 km/h (0 Bft) W 267 ° 0 min 0,000 mm 0,0 UV-I 0 W/m² 10,6 °C 12,0 °C 0,0 km/h (0 Bft)
05.06.2018 02:26 11,9 °C 92 % 1006,6 hPa 0,0 mm 0,0 km/h (0 Bft) W 267 ° 0 min 0,000 mm 0,0 UV-I 0 W/m² 10,6 °C 11,9 °C 0,0 km/h (0 Bft)
05.06.2018 02:27 11,9 °C 92 % 1006,7 hPa 0,0 mm 0,0 km/h (0 Bft) W 267 ° 0 min 0,000 mm 0,0 UV-I 0 W/m² 10,6 °C 11,9 °C 0,0 km/h (0 Bft)
05.06.2018 02:28 11,9 °C 92 % 1006,6 hPa 0,0 mm 0,0 km/h (0 Bft) W 267 ° 0 min 0,000 mm 0,0 UV-I 0 W/m² 10,6 °C 11,9 °C 0,0 km/h (0 Bft)
05.06.2018 02:29 11,9 °C 92 % 1006,6 hPa 0,0 mm 0,0 km/h (0 Bft) W 267 ° 0 min 0,000 mm 0,0 UV-I 0 W/m² 10,6 °C 11,9 °C 0,0 km/h (0 Bft)
05.06.2018 02:30 11,9 °C 92 % 1006,6 hPa 0,0 mm 0,0 km/h (0 Bft) W 267 ° 0 min 0,000 mm 0,0 UV-I 0 W/m² 10,6 °C 11,9 °C 0,0 km/h (0 Bft)
05.06.2018 02:31 11,9 °C 92 % 1006,7 hPa 0,0 mm 0,0 km/h (0 Bft) W 267 ° 0 min 0,000 mm 0,0 UV-I 0 W/m² 10,6 °C 11,9 °C 0,0 km/h (0 Bft)
05.06.2018 02:32 11,8 °C 92 % 1006,7 hPa 0,0 mm 0,0 km/h (0 Bft) W 267 ° 0 min 0,000 mm 0,0 UV-I 0 W/m² 10,5 °C 11,8 °C 0,0 km/h (0 Bft)
05.06.2018 02:33 11,9 °C 92 % 1006,7 hPa 0,0 mm 0,0 km/h (0 Bft) W 267 ° 0 min 0,000 mm 0,0 UV-I 0 W/m² 10,6 °C 11,9 °C 0,0 km/h (0 Bft)
05.06.2018 02:34 11,9 °C 92 % 1006,7 hPa 0,0 mm 0,0 km/h (0 Bft) W 267 ° 0 min 0,000 mm 0,0 UV-I 0 W/m² 10,6 °C 11,9 °C 0,0 km/h (0 Bft)
05.06.2018 02:35 11,9 °C 92 % 1006,7 hPa 0,0 mm 0,0 km/h (0 Bft) W 267 ° 0 min 0,000 mm 0,0 UV-I 0 W/m² 10,6 °C 11,9 °C 0,0 km/h (0 Bft)
05.06.2018 02:36 11,9 °C 92 % 1006,7 hPa 0,0 mm 0,0 km/h (0 Bft) W 267 ° 0 min 0,000 mm 0,0 UV-I 0 W/m² 10,6 °C 11,9 °C 0,0 km/h (0 Bft)
05.06.2018 02:37 11,9 °C 92 % 1006,8 hPa 0,0 mm 0,0 km/h (0 Bft) W 267 ° 0 min 0,000 mm 0,0 UV-I 0 W/m² 10,6 °C 11,9 °C 0,0 km/h (0 Bft)
05.06.2018 02:38 11,9 °C 92 % 1006,8 hPa 0,0 mm 0,0 km/h (0 Bft) W 267 ° 0 min 0,000 mm 0,0 UV-I 0 W/m² 10,6 °C 11,9 °C 0,0 km/h (0 Bft)
05.06.2018 02:39 12,0 °C 92 % 1006,8 hPa 0,0 mm 0,0 km/h (0 Bft) W 267 ° 0 min 0,000 mm 0,0 UV-I 0 W/m² 10,7 °C 12,0 °C 0,0 km/h (0 Bft)
05.06.2018 02:40 12,0 °C 92 % 1006,8 hPa 0,0 mm 0,0 km/h (0 Bft) W 267 ° 0 min 0,000 mm 0,0 UV-I 0 W/m² 10,7 °C 12,0 °C 0,0 km/h (0 Bft)
05.06.2018 02:41 12,1 °C 92 % 1006,8 hPa 0,0 mm 0,0 km/h (0 Bft) W 267 ° 0 min 0,000 mm 0,0 UV-I 0 W/m² 10,8 °C 12,1 °C 0,0 km/h (0 Bft)
05.06.2018 02:42 12,1 °C 92 % 1006,7 hPa 0,0 mm 0,0 km/h (0 Bft) W 267 ° 0 min 0,000 mm 0,0 UV-I 0 W/m² 10,8 °C 12,1 °C 0,0 km/h (0 Bft)
05.06.2018 02:43 12,1 °C 92 % 1006,8 hPa 0,0 mm 0,0 km/h (0 Bft) W 267 ° 0 min 0,000 mm 0,0 UV-I 0 W/m² 10,8 °C 12,1 °C 0,0 km/h (0 Bft)
05.06.2018 02:44 12,2 °C 91 % 1006,7 hPa 0,0 mm 0,0 km/h (0 Bft) W 267 ° 0 min 0,000 mm 0,0 UV-I 0 W/m² 10,8 °C 12,2 °C 0,0 km/h (0 Bft)
05.06.2018 02:45 12,2 °C 91 % 1006,7 hPa 0,0 mm 0,0 km/h (0 Bft) W 267 ° 0 min 0,000 mm 0,0 UV-I 0 W/m² 10,8 °C 12,2 °C 0,0 km/h (0 Bft)
05.06.2018 02:46 12,2 °C 91 % 1006,7 hPa 0,0 mm 0,0 km/h (0 Bft) W 267 ° 0 min 0,000 mm 0,0 UV-I 0 W/m² 10,8 °C 12,2 °C 0,0 km/h (0 Bft)
05.06.2018 02:47 12,2 °C 91 % 1006,7 hPa 0,0 mm 0,0 km/h (0 Bft) W 267 ° 0 min 0,000 mm 0,0 UV-I 0 W/m² 10,8 °C 12,2 °C 0,0 km/h (0 Bft)
05.06.2018 02:48 12,2 °C 91 % 1006,7 hPa 0,0 mm 0,0 km/h (0 Bft) W 267 ° 0 min 0,000 mm 0,0 UV-I 0 W/m² 10,8 °C 12,2 °C 0,0 km/h (0 Bft)
05.06.2018 02:49 12,2 °C 91 % 1006,7 hPa 0,0 mm 0,0 km/h (0 Bft) W 267 ° 0 min 0,000 mm 0,0 UV-I 0 W/m² 10,8 °C 12,2 °C 0,0 km/h (0 Bft)
05.06.2018 02:50 12,2 °C 91 % 1006,7 hPa 0,0 mm 0,0 km/h (0 Bft) W 267 ° 0 min 0,000 mm 0,0 UV-I 0 W/m² 10,8 °C 12,2 °C 0,0 km/h (0 Bft)
05.06.2018 02:51 12,3 °C 91 % 1006,7 hPa 0,0 mm 0,0 km/h (0 Bft) W 267 ° 0 min 0,000 mm 0,0 UV-I 0 W/m² 10,9 °C 12,3 °C 0,0 km/h (0 Bft)
05.06.2018 02:52 12,2 °C 91 % 1006,7 hPa 0,0 mm 0,0 km/h (0 Bft) W 267 ° 0 min 0,000 mm 0,0 UV-I 0 W/m² 10,8 °C 12,2 °C 0,0 km/h (0 Bft)
05.06.2018 02:53 12,2 °C 91 % 1006,7 hPa 0,0 mm 0,0 km/h (0 Bft) W 267 ° 0 min 0,000 mm 0,0 UV-I 0 W/m² 10,8 °C 12,2 °C 0,0 km/h (0 Bft)
05.06.2018 02:54 12,2 °C 91 % 1006,7 hPa 0,0 mm 0,0 km/h (0 Bft) W 267 ° 0 min 0,000 mm 0,0 UV-I 0 W/m² 10,8 °C 12,2 °C 0,0 km/h (0 Bft)
05.06.2018 02:55 12,2 °C 91 % 1006,7 hPa 0,0 mm 0,0 km/h (0 Bft) W 267 ° 0 min 0,000 mm 0,0 UV-I 0 W/m² 10,8 °C 12,2 °C 0,0 km/h (0 Bft)
05.06.2018 02:56 12,1 °C 91 % 1006,7 hPa 0,0 mm 0,0 km/h (0 Bft) W 267 ° 0 min 0,000 mm 0,0 UV-I 0 W/m² 10,7 °C 12,1 °C 0,0 km/h (0 Bft)
05.06.2018 02:57 12,1 °C 91 % 1006,7 hPa 0,0 mm 0,0 km/h (0 Bft) W 267 ° 0 min 0,000 mm 0,0 UV-I 0 W/m² 10,7 °C 12,1 °C 0,0 km/h (0 Bft)
05.06.2018 02:58 12,1 °C 91 % 1006,7 hPa 0,0 mm 0,0 km/h (0 Bft) W 267 ° 0 min 0,000 mm 0,0 UV-I 0 W/m² 10,7 °C 12,1 °C 0,0 km/h (0 Bft)
05.06.2018 02:59 12,1 °C 91 % 1006,7 hPa 0,0 mm 0,0 km/h (0 Bft) W 267 ° 0 min 0,000 mm 0,0 UV-I 0 W/m² 10,7 °C 12,1 °C 0,0 km/h (0 Bft)
05.06.2018 03:00 12,0 °C 91 % 1006,7 hPa 0,0 mm 0,0 km/h (0 Bft) W 267 ° 0 min 0,000 mm 0,0 UV-I 0 W/m² 10,6 °C 12,0 °C 0,0 km/h (0 Bft)
05.06.2018 03:01 11,9 °C 91 % 1006,7 hPa 0,0 mm 0,0 km/h (0 Bft) W 267 ° 0 min 0,000 mm 0,0 UV-I 0 W/m² 10,5 °C 11,9 °C 0,0 km/h (0 Bft)
05.06.2018 03:02 11,9 °C 91 % 1006,7 hPa 0,0 mm 0,0 km/h (0 Bft) W 267 ° 0 min 0,000 mm 0,0 UV-I 0 W/m² 10,5 °C 11,9 °C 0,0 km/h (0 Bft)
05.06.2018 03:03 11,9 °C 91 % 1006,7 hPa 0,0 mm 0,0 km/h (0 Bft) W 267 ° 0 min 0,000 mm 0,0 UV-I 0 W/m² 10,5 °C 11,9 °C 0,0 km/h (0 Bft)
05.06.2018 03:04 11,9 °C 91 % 1006,7 hPa 0,0 mm 0,0 km/h (0 Bft) W 267 ° 0 min 0,000 mm 0,0 UV-I 0 W/m² 10,5 °C 11,9 °C 0,0 km/h (0 Bft)
05.06.2018 03:05 11,8 °C 91 % 1006,7 hPa 0,0 mm 0,0 km/h (0 Bft) W 267 ° 0 min 0,000 mm 0,0 UV-I 0 W/m² 10,4 °C 11,8 °C 0,0 km/h (0 Bft)
05.06.2018 03:06 11,8 °C 91 % 1006,7 hPa 0,0 mm 0,0 km/h (0 Bft) W 267 ° 0 min 0,000 mm 0,0 UV-I 0 W/m² 10,4 °C 11,8 °C 0,0 km/h (0 Bft)
05.06.2018 03:07 11,8 °C 91 % 1006,7 hPa 0,0 mm 0,0 km/h (0 Bft) W 267 ° 0 min 0,000 mm 0,0 UV-I 0 W/m² 10,4 °C 11,8 °C 0,0 km/h (0 Bft)
05.06.2018 03:08 11,8 °C 91 % 1006,7 hPa 0,0 mm 0,0 km/h (0 Bft) W 267 ° 0 min 0,000 mm 0,0 UV-I 0 W/m² 10,4 °C 11,8 °C 0,0 km/h (0 Bft)
05.06.2018 03:09 11,8 °C 91 % 1006,7 hPa 0,0 mm 0,0 km/h (0 Bft) W 267 ° 0 min 0,000 mm 0,0 UV-I 0 W/m² 10,4 °C 11,8 °C 0,0 km/h (0 Bft)
05.06.2018 03:10 11,8 °C 91 % 1006,7 hPa 0,0 mm 0,0 km/h (0 Bft) W 267 ° 0 min 0,000 mm 0,0 UV-I 0 W/m² 10,4 °C 11,8 °C 0,0 km/h (0 Bft)
05.06.2018 03:11 11,8 °C 92 % 1006,8 hPa 0,0 mm 0,0 km/h (0 Bft) W 267 ° 0 min 0,000 mm 0,0 UV-I 0 W/m² 10,5 °C 11,8 °C 0,0 km/h (0 Bft)
05.06.2018 03:12 11,8 °C 92 % 1006,7 hPa 0,0 mm 0,0 km/h (0 Bft) W 267 ° 0 min 0,000 mm 0,0 UV-I 0 W/m² 10,5 °C 11,8 °C 0,0 km/h (0 Bft)
05.06.2018 03:13 11,7 °C 92 % 1006,7 hPa 0,0 mm 0,0 km/h (0 Bft) W 267 ° 0 min 0,000 mm 0,0 UV-I 0 W/m² 10,4 °C 11,7 °C 0,0 km/h (0 Bft)
05.06.2018 03:14 11,8 °C 92 % 1006,7 hPa 0,0 mm 0,0 km/h (0 Bft) W 267 ° 0 min 0,000 mm 0,0 UV-I 0 W/m² 10,5 °C 11,8 °C 0,0 km/h (0 Bft)
05.06.2018 03:15 11,7 °C 92 % 1006,7 hPa 0,0 mm 0,0 km/h (0 Bft) W 267 ° 0 min 0,000 mm 0,0 UV-I 0 W/m² 10,4 °C 11,7 °C 0,0 km/h (0 Bft)
05.06.2018 03:16 11,7 °C 92 % 1006,7 hPa 0,0 mm 0,0 km/h (0 Bft) W 267 ° 0 min 0,000 mm 0,0 UV-I 0 W/m² 10,4 °C 11,7 °C 0,0 km/h (0 Bft)
05.06.2018 03:17 11,7 °C 92 % 1006,7 hPa 0,0 mm 0,0 km/h (0 Bft) W 267 ° 0 min 0,000 mm 0,0 UV-I 0 W/m² 10,4 °C 11,7 °C 0,0 km/h (0 Bft)
05.06.2018 03:18 11,7 °C 92 % 1006,7 hPa 0,0 mm 0,0 km/h (0 Bft) W 267 ° 0 min 0,000 mm 0,0 UV-I 0 W/m² 10,4 °C 11,7 °C 0,0 km/h (0 Bft)
05.06.2018 03:19 11,7 °C 92 % 1006,7 hPa 0,0 mm 0,0 km/h (0 Bft) W 267 ° 0 min 0,000 mm 0,0 UV-I 0 W/m² 10,4 °C 11,7 °C 0,0 km/h (0 Bft)
05.06.2018 03:20 11,7 °C 92 % 1006,7 hPa 0,0 mm 0,0 km/h (0 Bft) W 267 ° 0 min 0,000 mm 0,0 UV-I 0 W/m² 10,4 °C 11,7 °C 0,0 km/h (0 Bft)
05.06.2018 03:21 11,6 °C 92 % 1006,7 hPa 0,0 mm 0,0 km/h (0 Bft) W 267 ° 0 min 0,000 mm 0,0 UV-I 0 W/m² 10,3 °C 11,6 °C 0,0 km/h (0 Bft)
05.06.2018 03:22 11,7 °C 92 % 1006,8 hPa 0,0 mm 0,0 km/h (0 Bft) W 267 ° 0 min 0,000 mm 0,0 UV-I 0 W/m² 10,4 °C 11,7 °C 0,0 km/h (0 Bft)
05.06.2018 03:23 11,6 °C 92 % 1006,8 hPa 0,0 mm 0,0 km/h (0 Bft) W 267 ° 0 min 0,000 mm 0,0 UV-I 0 W/m² 10,3 °C 11,6 °C 0,0 km/h (0 Bft)
05.06.2018 03:24 11,6 °C 92 % 1006,8 hPa 0,0 mm 0,0 km/h (0 Bft) W 267 ° 0 min 0,000 mm 0,0 UV-I 0 W/m² 10,3 °C 11,6 °C 0,0 km/h (0 Bft)
05.06.2018 03:25 11,7 °C 92 % 1006,8 hPa 0,0 mm 0,0 km/h (0 Bft) W 267 ° 0 min 0,000 mm 0,0 UV-I 0 W/m² 10,4 °C 11,7 °C 0,0 km/h (0 Bft)
05.06.2018 03:26 11,7 °C 92 % 1006,8 hPa 0,0 mm 0,0 km/h (0 Bft) W 267 ° 0 min 0,000 mm 0,0 UV-I 0 W/m² 10,4 °C 11,7 °C 0,0 km/h (0 Bft)
05.06.2018 03:27 11,7 °C 92 % 1006,8 hPa 0,0 mm 0,0 km/h (0 Bft) W 267 ° 0 min 0,000 mm 0,0 UV-I 0 W/m² 10,4 °C 11,7 °C 0,0 km/h (0 Bft)
05.06.2018 03:28 11,7 °C 92 % 1006,8 hPa 0,0 mm 0,0 km/h (0 Bft) W 267 ° 0 min 0,000 mm 0,0 UV-I 0 W/m² 10,4 °C 11,7 °C 0,0 km/h (0 Bft)
05.06.2018 03:29 11,7 °C 92 % 1006,8 hPa 0,0 mm 0,0 km/h (0 Bft) W 267 ° 0 min 0,000 mm 0,0 UV-I 0 W/m² 10,4 °C 11,7 °C 0,0 km/h (0 Bft)
05.06.2018 03:30 11,8 °C 92 % 1006,8 hPa 0,0 mm 0,0 km/h (0 Bft) W 267 ° 0 min 0,000 mm 0,0 UV-I 0 W/m² 10,5 °C 11,8 °C 0,0 km/h (0 Bft)
05.06.2018 03:31 11,8 °C 92 % 1006,8 hPa 0,0 mm 0,0 km/h (0 Bft) W 267 ° 0 min 0,000 mm 0,0 UV-I 0 W/m² 10,5 °C 11,8 °C 0,0 km/h (0 Bft)
05.06.2018 03:32 11,8 °C 92 % 1006,8 hPa 0,0 mm 0,0 km/h (0 Bft) W 267 ° 0 min 0,000 mm 0,0 UV-I 0 W/m² 10,5 °C 11,8 °C 0,0 km/h (0 Bft)
05.06.2018 03:33 11,8 °C 92 % 1006,8 hPa 0,0 mm 0,0 km/h (0 Bft) W 267 ° 0 min 0,000 mm 0,0 UV-I 0 W/m² 10,5 °C 11,8 °C 0,0 km/h (0 Bft)
05.06.2018 03:34 11,8 °C 92 % 1006,7 hPa 0,0 mm 0,0 km/h (0 Bft) W 267 ° 0 min 0,000 mm 0,0 UV-I 0 W/m² 10,5 °C 11,8 °C 0,0 km/h (0 Bft)
05.06.2018 03:35 11,8 °C 92 % 1006,8 hPa 0,0 mm 0,0 km/h (0 Bft) W 267 ° 0 min 0,000 mm 0,0 UV-I 0 W/m² 10,5 °C 11,8 °C 0,0 km/h (0 Bft)
05.06.2018 03:36 11,8 °C 92 % 1006,7 hPa 0,0 mm 0,0 km/h (0 Bft) W 267 ° 0 min 0,000 mm 0,0 UV-I 0 W/m² 10,5 °C 11,8 °C 0,0 km/h (0 Bft)
05.06.2018 03:37 11,7 °C 92 % 1006,7 hPa 0,0 mm 0,0 km/h (0 Bft) W 267 ° 0 min 0,000 mm 0,0 UV-I 0 W/m² 10,4 °C 11,7 °C 0,0 km/h (0 Bft)
05.06.2018 03:38 11,7 °C 91 % 1006,7 hPa 0,0 mm 0,0 km/h (0 Bft) W 267 ° 0 min 0,000 mm 0,0 UV-I 0 W/m² 10,3 °C 11,7 °C 0,0 km/h (0 Bft)
05.06.2018 03:39 11,7 °C 92 % 1006,8 hPa 0,0 mm 0,0 km/h (0 Bft) W 267 ° 0 min 0,000 mm 0,0 UV-I 0 W/m² 10,4 °C 11,7 °C 0,0 km/h (0 Bft)
05.06.2018 03:40 11,7 °C 92 % 1006,7 hPa 0,0 mm 0,0 km/h (0 Bft) W 267 ° 0 min 0,000 mm 0,0 UV-I 0 W/m² 10,4 °C 11,7 °C 0,0 km/h (0 Bft)
05.06.2018 03:41 11,7 °C 92 % 1006,8 hPa 0,0 mm 0,0 km/h (0 Bft) W 267 ° 0 min 0,000 mm 0,0 UV-I 0 W/m² 10,4 °C 11,7 °C 0,0 km/h (0 Bft)
05.06.2018 03:42 11,7 °C 92 % 1006,8 hPa 0,0 mm 0,0 km/h (0 Bft) W 267 ° 0 min 0,000 mm 0,0 UV-I 0 W/m² 10,4 °C 11,7 °C 0,0 km/h (0 Bft)
05.06.2018 03:43 11,7 °C 92 % 1006,8 hPa 0,0 mm 0,0 km/h (0 Bft) W 267 ° 0 min 0,000 mm 0,0 UV-I 0 W/m² 10,4 °C 11,7 °C 0,0 km/h (0 Bft)
05.06.2018 03:44 11,7 °C 92 % 1006,8 hPa 0,0 mm 0,0 km/h (0 Bft) W 267 ° 0 min 0,000 mm 0,0 UV-I 0 W/m² 10,4 °C 11,7 °C 0,0 km/h (0 Bft)
05.06.2018 03:45 11,7 °C 92 % 1006,8 hPa 0,0 mm 0,0 km/h (0 Bft) W 267 ° 0 min 0,000 mm 0,0 UV-I 0 W/m² 10,4 °C 11,7 °C 0,0 km/h (0 Bft)
05.06.2018 03:46 11,8 °C 92 % 1006,8 hPa 0,0 mm 0,0 km/h (0 Bft) W 267 ° 0 min 0,000 mm 0,0 UV-I 0 W/m² 10,5 °C 11,8 °C 0,0 km/h (0 Bft)
05.06.2018 03:47 11,7 °C 92 % 1006,8 hPa 0,0 mm 0,0 km/h (0 Bft) W 267 ° 0 min 0,000 mm 0,0 UV-I 0 W/m² 10,4 °C 11,7 °C 0,0 km/h (0 Bft)
05.06.2018 03:48 11,8 °C 92 % 1006,8 hPa 0,0 mm 0,0 km/h (0 Bft) W 267 ° 0 min 0,000 mm 0,0 UV-I 0 W/m² 10,5 °C 11,8 °C 0,0 km/h (0 Bft)
05.06.2018 03:49 11,8 °C 91 % 1006,8 hPa 0,0 mm 0,0 km/h (0 Bft) W 267 ° 0 min 0,000 mm 0,0 UV-I 0 W/m² 10,4 °C 11,8 °C 0,0 km/h (0 Bft)
05.06.2018 03:50 11,7 °C 91 % 1006,8 hPa 0,0 mm 0,0 km/h (0 Bft) W 267 ° 0 min 0,000 mm 0,0 UV-I 0 W/m² 10,3 °C 11,7 °C 0,0 km/h (0 Bft)
05.06.2018 03:51 11,7 °C 91 % 1006,8 hPa 0,0 mm 0,0 km/h (0 Bft) W 267 ° 0 min 0,000 mm 0,0 UV-I 0 W/m² 10,3 °C 11,7 °C 0,0 km/h (0 Bft)
05.06.2018 03:52 11,7 °C 91 % 1006,8 hPa 0,0 mm 0,0 km/h (0 Bft) W 267 ° 0 min 0,000 mm 0,0 UV-I 0 W/m² 10,3 °C 11,7 °C 0,0 km/h (0 Bft)
05.06.2018 03:53 11,6 °C 91 % 1006,8 hPa 0,0 mm 0,0 km/h (0 Bft) W 267 ° 0 min 0,000 mm 0,0 UV-I 0 W/m² 10,2 °C 11,6 °C 0,0 km/h (0 Bft)
05.06.2018 03:54 11,6 °C 91 % 1006,8 hPa 0,0 mm 0,0 km/h (0 Bft) W 267 ° 0 min 0,000 mm 0,0 UV-I 0 W/m² 10,2 °C 11,6 °C 0,0 km/h (0 Bft)
05.06.2018 03:55 11,6 °C 91 % 1006,8 hPa 0,0 mm 0,0 km/h (0 Bft) W 267 ° 0 min 0,000 mm 0,0 UV-I 0 W/m² 10,2 °C 11,6 °C 0,0 km/h (0 Bft)
05.06.2018 03:56 11,6 °C 92 % 1006,9 hPa 0,0 mm 0,0 km/h (0 Bft) W 267 ° 0 min 0,000 mm 0,0 UV-I 0 W/m² 10,3 °C 11,6 °C 0,0 km/h (0 Bft)
05.06.2018 03:57 11,6 °C 92 % 1006,9 hPa 0,0 mm 0,0 km/h (0 Bft) W 267 ° 0 min 0,000 mm 0,0 UV-I 0 W/m² 10,3 °C 11,6 °C 0,0 km/h (0 Bft)
05.06.2018 03:58 11,6 °C 92 % 1006,8 hPa 0,0 mm 0,0 km/h (0 Bft) W 267 ° 0 min 0,000 mm 0,0 UV-I 0 W/m² 10,3 °C 11,6 °C 0,0 km/h (0 Bft)
05.06.2018 03:59 11,6 °C 92 % 1006,9 hPa 0,0 mm 0,0 km/h (0 Bft) W 267 ° 0 min 0,000 mm 0,0 UV-I 0 W/m² 10,3 °C 11,6 °C 0,0 km/h (0 Bft)
05.06.2018 04:00 11,6 °C 91 % 1006,9 hPa 0,0 mm 0,0 km/h (0 Bft) W 267 ° 0 min 0,000 mm 0,0 UV-I 0 W/m² 10,2 °C 11,6 °C 0,0 km/h (0 Bft)
05.06.2018 04:01 11,6 °C 91 % 1006,9 hPa 0,0 mm 0,0 km/h (0 Bft) W 267 ° 0 min 0,000 mm 0,0 UV-I 0 W/m² 10,2 °C 11,6 °C 0,0 km/h (0 Bft)
05.06.2018 04:02 11,5 °C 91 % 1006,9 hPa 0,0 mm 0,0 km/h (0 Bft) W 267 ° 0 min 0,000 mm 0,0 UV-I 0 W/m² 10,1 °C 11,5 °C 0,0 km/h (0 Bft)
05.06.2018 04:03 11,5 °C 92 % 1006,9 hPa 0,0 mm 0,0 km/h (0 Bft) W 267 ° 0 min 0,000 mm 0,0 UV-I 0 W/m² 10,2 °C 11,5 °C 0,0 km/h (0 Bft)
05.06.2018 04:04 11,5 °C 92 % 1006,9 hPa 0,0 mm 0,0 km/h (0 Bft) W 267 ° 0 min 0,000 mm 0,0 UV-I 0 W/m² 10,2 °C 11,5 °C 0,0 km/h (0 Bft)
05.06.2018 04:05 11,4 °C 92 % 1006,9 hPa 0,0 mm 0,0 km/h (0 Bft) W 267 ° 0 min 0,000 mm 0,0 UV-I 0 W/m² 10,1 °C 11,4 °C 0,0 km/h (0 Bft)
05.06.2018 04:06 11,4 °C 91 % 1007,0 hPa 0,0 mm 0,0 km/h (0 Bft) W 267 ° 0 min 0,000 mm 0,0 UV-I 0 W/m² 10,0 °C 11,4 °C 0,0 km/h (0 Bft)
05.06.2018 04:07 11,4 °C 92 % 1006,9 hPa 0,0 mm 0,0 km/h (0 Bft) W 267 ° 0 min 0,000 mm 0,0 UV-I 0 W/m² 10,1 °C 11,4 °C 0,0 km/h (0 Bft)
05.06.2018 04:08 11,4 °C 92 % 1006,9 hPa 0,0 mm 0,0 km/h (0 Bft) W 267 ° 0 min 0,000 mm 0,0 UV-I 0 W/m² 10,1 °C 11,4 °C 0,0 km/h (0 Bft)
05.06.2018 04:09 11,3 °C 92 % 1007,0 hPa 0,0 mm 0,0 km/h (0 Bft) W 267 ° 0 min 0,000 mm 0,0 UV-I 0 W/m² 10,0 °C 11,3 °C 0,0 km/h (0 Bft)
05.06.2018 04:10 11,4 °C 92 % 1006,9 hPa 0,0 mm 0,0 km/h (0 Bft) W 267 ° 0 min 0,000 mm 0,0 UV-I 0 W/m² 10,1 °C 11,4 °C 0,0 km/h (0 Bft)
05.06.2018 04:11 11,3 °C 92 % 1007,0 hPa 0,0 mm 0,0 km/h (0 Bft) W 267 ° 0 min 0,000 mm 0,0 UV-I 0 W/m² 10,0 °C 11,3 °C 0,0 km/h (0 Bft)
05.06.2018 04:12 11,4 °C 92 % 1006,9 hPa 0,0 mm 0,0 km/h (0 Bft) W 267 ° 0 min 0,000 mm 0,0 UV-I 0 W/m² 10,1 °C 11,4 °C 0,0 km/h (0 Bft)
05.06.2018 04:13 11,4 °C 92 % 1006,9 hPa 0,0 mm 0,0 km/h (0 Bft) W 267 ° 0 min 0,000 mm 0,0 UV-I 0 W/m² 10,1 °C 11,4 °C 0,0 km/h (0 Bft)
05.06.2018 04:14 11,4 °C 92 % 1006,9 hPa 0,0 mm 0,0 km/h (0 Bft) W 267 ° 0 min 0,000 mm 0,0 UV-I 0 W/m² 10,1 °C 11,4 °C 0,0 km/h (0 Bft)
05.06.2018 04:15 11,4 °C 92 % 1006,9 hPa 0,0 mm 0,0 km/h (0 Bft) W 267 ° 0 min 0,000 mm 0,0 UV-I 0 W/m² 10,1 °C 11,4 °C 0,0 km/h (0 Bft)
05.06.2018 04:16 11,4 °C 92 % 1006,9 hPa 0,0 mm 0,0 km/h (0 Bft) W 267 ° 0 min 0,000 mm 0,0 UV-I 0 W/m² 10,1 °C 11,4 °C 0,0 km/h (0 Bft)
05.06.2018 04:17 11,3 °C 92 % 1007,0 hPa 0,0 mm 0,0 km/h (0 Bft) W 267 ° 0 min 0,000 mm 0,0 UV-I 0 W/m² 10,0 °C 11,3 °C 0,0 km/h (0 Bft)
05.06.2018 04:18 11,3 °C 92 % 1007,0 hPa 0,0 mm 0,0 km/h (0 Bft) W 267 ° 0 min 0,000 mm 0,0 UV-I 0 W/m² 10,0 °C 11,3 °C 0,0 km/h (0 Bft)
05.06.2018 04:19 11,2 °C 92 % 1006,9 hPa 0,0 mm 0,0 km/h (0 Bft) W 267 ° 0 min 0,000 mm 0,0 UV-I 0 W/m² 9,9 °C 11,2 °C 0,0 km/h (0 Bft)
05.06.2018 04:20 11,2 °C 92 % 1006,9 hPa 0,0 mm 0,0 km/h (0 Bft) W 267 ° 0 min 0,000 mm 0,0 UV-I 0 W/m² 9,9 °C 11,2 °C 0,0 km/h (0 Bft)
05.06.2018 04:21 11,2 °C 92 % 1007,0 hPa 0,0 mm 0,0 km/h (0 Bft) W 267 ° 0 min 0,000 mm 0,0 UV-I 0 W/m² 9,9 °C 11,2 °C 0,0 km/h (0 Bft)
05.06.2018 04:22 11,2 °C 92 % 1007,0 hPa 0,0 mm 0,0 km/h (0 Bft) W 267 ° 0 min 0,000 mm 0,0 UV-I 0 W/m² 9,9 °C 11,2 °C 0,0 km/h (0 Bft)
05.06.2018 04:23 11,3 °C 92 % 1007,0 hPa 0,0 mm 0,0 km/h (0 Bft) W 267 ° 0 min 0,000 mm 0,0 UV-I 0 W/m² 10,0 °C 11,3 °C 0,0 km/h (0 Bft)
05.06.2018 04:24 11,3 °C 92 % 1007,0 hPa 0,0 mm 0,0 km/h (0 Bft) W 267 ° 0 min 0,000 mm 0,0 UV-I 0 W/m² 10,0 °C 11,3 °C 0,0 km/h (0 Bft)
05.06.2018 04:25 11,3 °C 92 % 1007,0 hPa 0,0 mm 0,0 km/h (0 Bft) W 267 ° 0 min 0,000 mm 0,0 UV-I 0 W/m² 10,0 °C 11,3 °C 0,0 km/h (0 Bft)
05.06.2018 04:26 11,3 °C 92 % 1007,0 hPa 0,0 mm 0,0 km/h (0 Bft) W 267 ° 0 min 0,000 mm 0,0 UV-I 0 W/m² 10,0 °C 11,3 °C 0,0 km/h (0 Bft)
05.06.2018 04:27 11,3 °C 92 % 1007,0 hPa 0,0 mm 0,0 km/h (0 Bft) W 267 ° 0 min 0,000 mm 0,0 UV-I 0 W/m² 10,0 °C 11,3 °C 0,0 km/h (0 Bft)
05.06.2018 04:28 11,3 °C 92 % 1007,0 hPa 0,0 mm 0,0 km/h (0 Bft) W 267 ° 0 min 0,000 mm 0,0 UV-I 0 W/m² 10,0 °C 11,3 °C 0,0 km/h (0 Bft)
05.06.2018 04:29 11,3 °C 92 % 1007,0 hPa 0,0 mm 0,0 km/h (0 Bft) W 267 ° 0 min 0,000 mm 0,0 UV-I 0 W/m² 10,0 °C 11,3 °C 0,0 km/h (0 Bft)
05.06.2018 04:30 11,3 °C 92 % 1007,0 hPa 0,0 mm 0,0 km/h (0 Bft) W 267 ° 0 min 0,000 mm 0,0 UV-I 0 W/m² 10,0 °C 11,3 °C 0,0 km/h (0 Bft)
05.06.2018 04:31 11,2 °C 92 % 1007,0 hPa 0,0 mm 0,0 km/h (0 Bft) W 267 ° 0 min 0,000 mm 0,0 UV-I 0 W/m² 9,9 °C 11,2 °C 0,0 km/h (0 Bft)
05.06.2018 04:32 11,2 °C 92 % 1007,0 hPa 0,0 mm 0,0 km/h (0 Bft) W 267 ° 0 min 0,000 mm 0,0 UV-I 0 W/m² 9,9 °C 11,2 °C 0,0 km/h (0 Bft)
05.06.2018 04:33 11,2 °C 92 % 1007,0 hPa 0,0 mm 0,0 km/h (0 Bft) W 267 ° 0 min 0,000 mm 0,0 UV-I 0 W/m² 9,9 °C 11,2 °C 0,0 km/h (0 Bft)
05.06.2018 04:34 11,2 °C 92 % 1007,1 hPa 0,0 mm 0,0 km/h (0 Bft) W 267 ° 0 min 0,000 mm 0,0 UV-I 0 W/m² 9,9 °C 11,2 °C 0,0 km/h (0 Bft)
05.06.2018 04:35 11,2 °C 92 % 1007,1 hPa 0,0 mm 0,0 km/h (0 Bft) W 267 ° 0 min 0,000 mm 0,0 UV-I 0 W/m² 9,9 °C 11,2 °C 0,0 km/h (0 Bft)
05.06.2018 04:36 11,2 °C 92 % 1007,1 hPa 0,0 mm 0,0 km/h (0 Bft) W 267 ° 0 min 0,000 mm 0,0 UV-I 0 W/m² 9,9 °C 11,2 °C 0,0 km/h (0 Bft)
05.06.2018 04:37 11,2 °C 92 % 1007,0 hPa 0,0 mm 0,0 km/h (0 Bft) W 267 ° 0 min 0,000 mm 0,0 UV-I 0 W/m² 9,9 °C 11,2 °C 0,0 km/h (0 Bft)
05.06.2018 04:38 11,2 °C 92 % 1007,0 hPa 0,0 mm 0,0 km/h (0 Bft) W 267 ° 0 min 0,000 mm 0,0 UV-I 0 W/m² 9,9 °C 11,2 °C 0,0 km/h (0 Bft)
05.06.2018 04:39 11,2 °C 92 % 1007,1 hPa 0,0 mm 0,0 km/h (0 Bft) W 267 ° 0 min 0,000 mm 0,0 UV-I 0 W/m² 9,9 °C 11,2 °C 0,0 km/h (0 Bft)
05.06.2018 04:40 11,3 °C 92 % 1007,0 hPa 0,0 mm 0,0 km/h (0 Bft) W 267 ° 0 min 0,000 mm 0,0 UV-I 0 W/m² 10,0 °C 11,3 °C 0,0 km/h (0 Bft)
05.06.2018 04:41 11,3 °C 92 % 1007,0 hPa 0,0 mm 0,0 km/h (0 Bft) W 267 ° 0 min 0,000 mm 0,0 UV-I 0 W/m² 10,0 °C 11,3 °C 0,0 km/h (0 Bft)
05.06.2018 04:42 11,3 °C 92 % 1007,0 hPa 0,0 mm 0,0 km/h (0 Bft) W 267 ° 0 min 0,000 mm 0,0 UV-I 0 W/m² 10,0 °C 11,3 °C 0,0 km/h (0 Bft)
05.06.2018 04:43 11,3 °C 92 % 1007,0 hPa 0,0 mm 0,0 km/h (0 Bft) W 267 ° 0 min 0,000 mm 0,0 UV-I 0 W/m² 10,0 °C 11,3 °C 0,0 km/h (0 Bft)
05.06.2018 04:44 11,3 °C 92 % 1007,1 hPa 0,0 mm 0,0 km/h (0 Bft) W 267 ° 0 min 0,000 mm 0,0 UV-I 0 W/m² 10,0 °C 11,3 °C 0,0 km/h (0 Bft)
05.06.2018 04:45 11,3 °C 92 % 1007,1 hPa 0,0 mm 0,0 km/h (0 Bft) W 267 ° 0 min 0,000 mm 0,0 UV-I 0 W/m² 10,0 °C 11,3 °C 0,0 km/h (0 Bft)
05.06.2018 04:46 11,3 °C 92 % 1007,1 hPa 0,0 mm 0,0 km/h (0 Bft) W 267 ° 0 min 0,000 mm 0,0 UV-I 0 W/m² 10,0 °C 11,3 °C 0,0 km/h (0 Bft)
05.06.2018 04:47 11,2 °C 92 % 1007,1 hPa 0,0 mm 0,0 km/h (0 Bft) W 267 ° 0 min 0,000 mm 0,0 UV-I 0 W/m² 9,9 °C 11,2 °C 0,0 km/h (0 Bft)
05.06.2018 04:48 11,2 °C 92 % 1007,1 hPa 0,0 mm 0,0 km/h (0 Bft) W 267 ° 0 min 0,000 mm 0,0 UV-I 0 W/m² 9,9 °C 11,2 °C 0,0 km/h (0 Bft)
05.06.2018 04:49 11,2 °C 92 % 1007,2 hPa 0,0 mm 0,0 km/h (0 Bft) W 267 ° 0 min 0,000 mm 0,0 UV-I 0 W/m² 9,9 °C 11,2 °C 0,0 km/h (0 Bft)
05.06.2018 04:50 11,2 °C 92 % 1007,2 hPa 0,0 mm 0,0 km/h (0 Bft) W 267 ° 0 min 0,000 mm 0,0 UV-I 0 W/m² 9,9 °C 11,2 °C 0,0 km/h (0 Bft)
05.06.2018 04:51 11,2 °C 92 % 1007,2 hPa 0,0 mm 0,0 km/h (0 Bft) W 267 ° 0 min 0,000 mm 0,0 UV-I 0 W/m² 9,9 °C 11,2 °C 0,0 km/h (0 Bft)
05.06.2018 04:52 11,2 °C 92 % 1007,2 hPa 0,0 mm 0,0 km/h (0 Bft) W 267 ° 0 min 0,000 mm 0,0 UV-I 0 W/m² 9,9 °C 11,2 °C 0,0 km/h (0 Bft)
05.06.2018 04:53 11,2 °C 92 % 1007,2 hPa 0,0 mm 0,0 km/h (0 Bft) W 267 ° 0 min 0,000 mm 0,0 UV-I 0 W/m² 9,9 °C 11,2 °C 0,0 km/h (0 Bft)
05.06.2018 04:54 11,2 °C 92 % 1007,2 hPa 0,0 mm 0,0 km/h (0 Bft) W 267 ° 0 min 0,000 mm 0,0 UV-I 0 W/m² 9,9 °C 11,2 °C 0,0 km/h (0 Bft)
05.06.2018 04:55 11,1 °C 92 % 1007,2 hPa 0,0 mm 0,0 km/h (0 Bft) W 267 ° 0 min 0,000 mm 0,0 UV-I 0 W/m² 9,8 °C 11,1 °C 0,0 km/h (0 Bft)
05.06.2018 04:56 11,1 °C 92 % 1007,2 hPa 0,0 mm 0,0 km/h (0 Bft) W 267 ° 0 min 0,000 mm 0,0 UV-I 0 W/m² 9,8 °C 11,1 °C 0,0 km/h (0 Bft)
05.06.2018 04:57 11,1 °C 92 % 1007,2 hPa 0,0 mm 0,0 km/h (0 Bft) W 267 ° 0 min 0,000 mm 0,0 UV-I 0 W/m² 9,8 °C 11,1 °C 0,0 km/h (0 Bft)
05.06.2018 04:58 11,0 °C 92 % 1007,2 hPa 0,0 mm 0,0 km/h (0 Bft) W 267 ° 0 min 0,000 mm 0,0 UV-I 0 W/m² 9,8 °C 11,0 °C 0,0 km/h (0 Bft)
05.06.2018 04:59 11,0 °C 92 % 1007,2 hPa 0,0 mm 0,0 km/h (0 Bft) W 267 ° 0 min 0,000 mm 0,0 UV-I 0 W/m² 9,8 °C 11,0 °C 0,0 km/h (0 Bft)
05.06.2018 05:00 11,1 °C 93 % 1007,2 hPa 0,0 mm 0,0 km/h (0 Bft) W 267 ° 0 min 0,000 mm 0,0 UV-I 0 W/m² 10,0 °C 11,1 °C 0,0 km/h (0 Bft)
05.06.2018 05:01 11,1 °C 93 % 1007,2 hPa 0,0 mm 0,0 km/h (0 Bft) W 267 ° 0 min 0,000 mm 0,0 UV-I 0 W/m² 10,0 °C 11,1 °C 0,0 km/h (0 Bft)
05.06.2018 05:02 11,2 °C 93 % 1007,2 hPa 0,0 mm 0,0 km/h (0 Bft) W 267 ° 0 min 0,000 mm 0,0 UV-I 0 W/m² 10,1 °C 11,2 °C 0,0 km/h (0 Bft)
05.06.2018 05:03 11,2 °C 93 % 1007,2 hPa 0,0 mm 0,0 km/h (0 Bft) W 267 ° 0 min 0,000 mm 0,0 UV-I 0 W/m² 10,1 °C 11,2 °C 0,0 km/h (0 Bft)
05.06.2018 05:04 11,2 °C 93 % 1007,2 hPa 0,0 mm 0,0 km/h (0 Bft) W 267 ° 0 min 0,000 mm 0,0 UV-I 0 W/m² 10,1 °C 11,2 °C 0,0 km/h (0 Bft)
05.06.2018 05:05 11,1 °C 92 % 1007,2 hPa 0,0 mm 0,0 km/h (0 Bft) W 267 ° 0 min 0,000 mm 0,0 UV-I 0 W/m² 9,8 °C 11,1 °C 0,0 km/h (0 Bft)
05.06.2018 05:06 11,0 °C 92 % 1007,2 hPa 0,0 mm 0,0 km/h (0 Bft) W 267 ° 0 min 0,000 mm 0,0 UV-I 0 W/m² 9,8 °C 11,0 °C 0,0 km/h (0 Bft)
05.06.2018 05:07 11,0 °C 92 % 1007,2 hPa 0,0 mm 0,0 km/h (0 Bft) W 267 ° 0 min 0,000 mm 0,0 UV-I 0 W/m² 9,8 °C 11,0 °C 0,0 km/h (0 Bft)
05.06.2018 05:08 11,0 °C 92 % 1007,2 hPa 0,0 mm 0,0 km/h (0 Bft) W 267 ° 0 min 0,000 mm 0,0 UV-I 0 W/m² 9,8 °C 11,0 °C 0,0 km/h (0 Bft)
05.06.2018 05:09 10,9 °C 92 % 1007,3 hPa 0,0 mm 0,0 km/h (0 Bft) W 267 ° 0 min 0,000 mm 0,0 UV-I 0 W/m² 9,7 °C 10,9 °C 0,0 km/h (0 Bft)
05.06.2018 05:10 11,0 °C 93 % 1007,3 hPa 0,0 mm 0,0 km/h (0 Bft) W 267 ° 0 min 0,000 mm 0,0 UV-I 0 W/m² 9,9 °C 11,0 °C 0,0 km/h (0 Bft)
05.06.2018 05:11 11,1 °C 93 % 1007,3 hPa 0,0 mm 0,0 km/h (0 Bft) W 267 ° 0 min 0,000 mm 0,0 UV-I 0 W/m² 10,0 °C 11,1 °C 0,0 km/h (0 Bft)
05.06.2018 05:12 11,1 °C 93 % 1007,3 hPa 0,0 mm 0,0 km/h (0 Bft) W 267 ° 0 min 0,000 mm 0,0 UV-I 0 W/m² 10,0 °C 11,1 °C 0,0 km/h (0 Bft)
05.06.2018 05:13 11,1 °C 93 % 1007,3 hPa 0,0 mm 0,0 km/h (0 Bft) W 267 ° 0 min 0,000 mm 0,0 UV-I 0 W/m² 10,0 °C 11,1 °C 0,0 km/h (0 Bft)
05.06.2018 05:14 11,1 °C 93 % 1007,3 hPa 0,0 mm 0,0 km/h (0 Bft) W 267 ° 0 min 0,000 mm 0,0 UV-I 0 W/m² 10,0 °C 11,1 °C 0,0 km/h (0 Bft)
05.06.2018 05:15 11,1 °C 93 % 1007,3 hPa 0,0 mm 0,0 km/h (0 Bft) W 267 ° 0 min 0,000 mm 0,0 UV-I 0 W/m² 10,0 °C 11,1 °C 0,0 km/h (0 Bft)
05.06.2018 05:16 11,1 °C 93 % 1007,4 hPa 0,0 mm 0,0 km/h (0 Bft) W 267 ° 0 min 0,000 mm 0,0 UV-I 0 W/m² 10,0 °C 11,1 °C 0,0 km/h (0 Bft)
05.06.2018 05:17 11,1 °C 93 % 1007,3 hPa 0,0 mm 0,0 km/h (0 Bft) W 267 ° 0 min 0,000 mm 0,0 UV-I 0 W/m² 10,0 °C 11,1 °C 0,0 km/h (0 Bft)
05.06.2018 05:18 11,1 °C 93 % 1007,3 hPa 0,0 mm 0,0 km/h (0 Bft) W 267 ° 0 min 0,000 mm 0,0 UV-I 0 W/m² 10,0 °C 11,1 °C 0,0 km/h (0 Bft)
05.06.2018 05:19 11,1 °C 93 % 1007,3 hPa 0,0 mm 0,0 km/h (0 Bft) W 267 ° 0 min 0,000 mm 0,0 UV-I 0 W/m² 10,0 °C 11,1 °C 0,0 km/h (0 Bft)
05.06.2018 05:20 11,1 °C 93 % 1007,4 hPa 0,0 mm 0,6 km/h (0 Bft) W 267 ° 0 min 0,000 mm 0,0 UV-I 0 W/m² 10,0 °C 11,1 °C 1,6 km/h (1 Bft)
05.06.2018 05:21 11,1 °C 93 % 1007,4 hPa 0,0 mm 0,1 km/h (0 Bft) W 267 ° 0 min 0,000 mm 0,0 UV-I 0 W/m² 10,0 °C 11,1 °C 1,6 km/h (1 Bft)
05.06.2018 05:22 11,1 °C 93 % 1007,3 hPa 0,0 mm 0,0 km/h (0 Bft) W 267 ° 0 min 0,000 mm 0,0 UV-I 0 W/m² 10,0 °C 11,1 °C 0,0 km/h (0 Bft)
05.06.2018 05:23 11,1 °C 93 % 1007,3 hPa 0,0 mm 0,0 km/h (0 Bft) W 267 ° 0 min 0,000 mm 0,0 UV-I 0 W/m² 10,0 °C 11,1 °C 0,0 km/h (0 Bft)
05.06.2018 05:24 11,1 °C 93 % 1007,4 hPa 0,0 mm 0,0 km/h (0 Bft) W 267 ° 0 min 0,000 mm 0,0 UV-I 5 W/m² 10,0 °C 11,1 °C 0,0 km/h (0 Bft)
05.06.2018 05:25 11,1 °C 93 % 1007,3 hPa 0,0 mm 0,0 km/h (0 Bft) W 267 ° 0 min 0,000 mm 0,0 UV-I 5 W/m² 10,0 °C 11,1 °C 0,0 km/h (0 Bft)
05.06.2018 05:26 11,2 °C 93 % 1007,4 hPa 0,0 mm 0,0 km/h (0 Bft) W 267 ° 0 min 0,000 mm 0,0 UV-I 5 W/m² 10,1 °C 11,2 °C 0,0 km/h (0 Bft)
05.06.2018 05:27 11,2 °C 93 % 1007,3 hPa 0,0 mm 0,0 km/h (0 Bft) W 267 ° 0 min 0,000 mm 0,0 UV-I 5 W/m² 10,1 °C 11,2 °C 0,0 km/h (0 Bft)
05.06.2018 05:28 11,2 °C 93 % 1007,4 hPa 0,0 mm 0,0 km/h (0 Bft) W 267 ° 0 min 0,000 mm 0,0 UV-I 5 W/m² 10,1 °C 11,2 °C 0,0 km/h (0 Bft)
05.06.2018 05:29 11,3 °C 93 % 1007,4 hPa 0,0 mm 0,0 km/h (0 Bft) W 267 ° 0 min 0,000 mm 0,0 UV-I 5 W/m² 10,2 °C 11,3 °C 0,0 km/h (0 Bft)
05.06.2018 05:30 11,3 °C 93 % 1007,4 hPa 0,0 mm 0,0 km/h (0 Bft) W 267 ° 0 min 0,000 mm 0,0 UV-I 7 W/m² 10,2 °C 11,3 °C 0,0 km/h (0 Bft)
05.06.2018 05:31 11,2 °C 92 % 1007,3 hPa 0,0 mm 0,0 km/h (0 Bft) W 267 ° 0 min 0,000 mm 0,0 UV-I 7 W/m² 9,9 °C 11,2 °C 0,0 km/h (0 Bft)
05.06.2018 05:32 11,2 °C 92 % 1007,3 hPa 0,0 mm 0,0 km/h (0 Bft) W 267 ° 0 min 0,000 mm 0,0 UV-I 9 W/m² 9,9 °C 11,2 °C 0,0 km/h (0 Bft)
05.06.2018 05:33 11,2 °C 93 % 1007,4 hPa 0,0 mm 0,0 km/h (0 Bft) W 267 ° 0 min 0,000 mm 0,0 UV-I 11 W/m² 10,1 °C 11,2 °C 0,0 km/h (0 Bft)
05.06.2018 05:34 11,2 °C 93 % 1007,4 hPa 0,0 mm 0,0 km/h (0 Bft) W 267 ° 0 min 0,000 mm 0,0 UV-I 12 W/m² 10,1 °C 11,2 °C 0,0 km/h (0 Bft)
05.06.2018 05:35 11,2 °C 93 % 1007,4 hPa 0,0 mm 0,0 km/h (0 Bft) W 267 ° 0 min 0,000 mm 0,0 UV-I 14 W/m² 10,1 °C 11,2 °C 0,0 km/h (0 Bft)
05.06.2018 05:36 11,2 °C 93 % 1007,3 hPa 0,0 mm 0,0 km/h (0 Bft) W 267 ° 0 min 0,000 mm 0,0 UV-I 16 W/m² 10,1 °C 11,2 °C 0,0 km/h (0 Bft)
05.06.2018 05:37 11,3 °C 93 % 1007,4 hPa 0,0 mm 0,0 km/h (0 Bft) W 267 ° 0 min 0,000 mm 0,0 UV-I 18 W/m² 10,2 °C 11,3 °C 0,0 km/h (0 Bft)
05.06.2018 05:38 11,3 °C 93 % 1007,3 hPa 0,0 mm 0,0 km/h (0 Bft) W 267 ° 0 min 0,000 mm 0,0 UV-I 18 W/m² 10,2 °C 11,3 °C 0,0 km/h (0 Bft)
05.06.2018 05:39 11,3 °C 92 % 1007,2 hPa 0,0 mm 0,0 km/h (0 Bft) W 267 ° 0 min 0,000 mm 0,0 UV-I 18 W/m² 10,0 °C 11,3 °C 0,0 km/h (0 Bft)
05.06.2018 05:40 11,3 °C 93 % 1007,3 hPa 0,0 mm 0,0 km/h (0 Bft) W 267 ° 0 min 0,000 mm 0,0 UV-I 16 W/m² 10,2 °C 11,3 °C 0,0 km/h (0 Bft)
05.06.2018 05:41 11,3 °C 93 % 1007,2 hPa 0,0 mm 0,0 km/h (0 Bft) W 267 ° 0 min 0,000 mm 0,0 UV-I 16 W/m² 10,2 °C 11,3 °C 0,0 km/h (0 Bft)
05.06.2018 05:42 11,3 °C 92 % 1007,2 hPa 0,0 mm 0,0 km/h (0 Bft) W 267 ° 0 min 0,000 mm 0,0 UV-I 14 W/m² 10,0 °C 11,3 °C 0,0 km/h (0 Bft)
05.06.2018 05:43 11,3 °C 93 % 1007,2 hPa 0,0 mm 0,0 km/h (0 Bft) W 267 ° 0 min 0,000 mm 0,0 UV-I 14 W/m² 10,2 °C 11,3 °C 0,0 km/h (0 Bft)
05.06.2018 05:44 11,3 °C 93 % 1007,2 hPa 0,0 mm 0,0 km/h (0 Bft) W 267 ° 0 min 0,000 mm 0,0 UV-I 14 W/m² 10,2 °C 11,3 °C 0,0 km/h (0 Bft)
05.06.2018 05:45 11,3 °C 93 % 1007,2 hPa 0,0 mm 0,0 km/h (0 Bft) W 267 ° 0 min 0,000 mm 0,0 UV-I 14 W/m² 10,2 °C 11,3 °C 0,0 km/h (0 Bft)
05.06.2018 05:46 11,3 °C 93 % 1007,2 hPa 0,0 mm 0,0 km/h (0 Bft) W 267 ° 0 min 0,000 mm 0,0 UV-I 14 W/m² 10,2 °C 11,3 °C 0,0 km/h (0 Bft)
05.06.2018 05:47 11,3 °C 93 % 1007,2 hPa 0,0 mm 0,0 km/h (0 Bft) W 267 ° 0 min 0,000 mm 0,0 UV-I 14 W/m² 10,2 °C 11,3 °C 0,0 km/h (0 Bft)
05.06.2018 05:48 11,3 °C 93 % 1007,2 hPa 0,0 mm 0,0 km/h (0 Bft) W 267 ° 0 min 0,000 mm 0,0 UV-I 14 W/m² 10,2 °C 11,3 °C 0,0 km/h (0 Bft)
05.06.2018 05:49 11,3 °C 93 % 1007,2 hPa 0,0 mm 0,0 km/h (0 Bft) W 267 ° 0 min 0,000 mm 0,0 UV-I 14 W/m² 10,2 °C 11,3 °C 0,0 km/h (0 Bft)
05.06.2018 05:50 11,3 °C 93 % 1007,2 hPa 0,0 mm 0,0 km/h (0 Bft) W 267 ° 0 min 0,000 mm 0,0 UV-I 14 W/m² 10,2 °C 11,3 °C 0,0 km/h (0 Bft)
05.06.2018 05:51 11,3 °C 93 % 1007,2 hPa 0,0 mm 0,0 km/h (0 Bft) W 267 ° 0 min 0,000 mm 0,0 UV-I 14 W/m² 10,2 °C 11,3 °C 0,0 km/h (0 Bft)
05.06.2018 05:52 11,3 °C 93 % 1007,3 hPa 0,0 mm 0,0 km/h (0 Bft) W 267 ° 0 min 0,000 mm 0,0 UV-I 14 W/m² 10,2 °C 11,3 °C 0,0 km/h (0 Bft)
05.06.2018 05:53 11,3 °C 93 % 1007,3 hPa 0,0 mm 0,0 km/h (0 Bft) W 267 ° 0 min 0,000 mm 0,0 UV-I 14 W/m² 10,2 °C 11,3 °C 0,0 km/h (0 Bft)
05.06.2018 05:54 11,3 °C 93 % 1007,3 hPa 0,0 mm 0,0 km/h (0 Bft) W 267 ° 0 min 0,000 mm 0,0 UV-I 14 W/m² 10,2 °C 11,3 °C 0,0 km/h (0 Bft)
05.06.2018 05:55 11,3 °C 93 % 1007,3 hPa 0,0 mm 0,0 km/h (0 Bft) W 267 ° 0 min 0,000 mm 0,0 UV-I 14 W/m² 10,2 °C 11,3 °C 0,0 km/h (0 Bft)
05.06.2018 05:56 11,3 °C 93 % 1007,4 hPa 0,0 mm 0,0 km/h (0 Bft) W 267 ° 0 min 0,000 mm 0,0 UV-I 14 W/m² 10,2 °C 11,3 °C 0,0 km/h (0 Bft)
05.06.2018 05:57 11,3 °C 93 % 1007,3 hPa 0,0 mm 0,0 km/h (0 Bft) W 267 ° 0 min 0,000 mm 0,0 UV-I 14 W/m² 10,2 °C 11,3 °C 0,0 km/h (0 Bft)
05.06.2018 05:58 11,2 °C 92 % 1007,3 hPa 0,0 mm 0,0 km/h (0 Bft) W 267 ° 0 min 0,000 mm 0,0 UV-I 16 W/m² 9,9 °C 11,2 °C 0,0 km/h (0 Bft)
05.06.2018 05:59 11,2 °C 92 % 1007,4 hPa 0,0 mm 0,0 km/h (0 Bft) W 267 ° 0 min 0,000 mm 0,0 UV-I 16 W/m² 9,9 °C 11,2 °C 0,0 km/h (0 Bft)
05.06.2018 06:00 11,2 °C 93 % 1007,4 hPa 0,0 mm 0,0 km/h (0 Bft) W 267 ° 0 min 0,000 mm 0,0 UV-I 16 W/m² 10,1 °C 11,2 °C 0,0 km/h (0 Bft)
05.06.2018 06:01 11,2 °C 93 % 1007,4 hPa 0,0 mm 0,0 km/h (0 Bft) W 267 ° 0 min 0,000 mm 0,0 UV-I 16 W/m² 10,1 °C 11,2 °C 0,0 km/h (0 Bft)
05.06.2018 06:02 11,2 °C 93 % 1007,4 hPa 0,0 mm 0,0 km/h (0 Bft) W 267 ° 0 min 0,000 mm 0,0 UV-I 16 W/m² 10,1 °C 11,2 °C 0,0 km/h (0 Bft)
05.06.2018 06:03 11,2 °C 93 % 1007,4 hPa 0,0 mm 0,0 km/h (0 Bft) W 267 ° 0 min 0,000 mm 0,0 UV-I 16 W/m² 10,1 °C 11,2 °C 0,0 km/h (0 Bft)
05.06.2018 06:04 11,2 °C 93 % 1007,4 hPa 0,0 mm 0,0 km/h (0 Bft) W 267 ° 0 min 0,000 mm 0,0 UV-I 16 W/m² 10,1 °C 11,2 °C 0,0 km/h (0 Bft)
05.06.2018 06:05 11,3 °C 93 % 1007,5 hPa 0,0 mm 0,0 km/h (0 Bft) W 267 ° 0 min 0,000 mm 0,0 UV-I 18 W/m² 10,2 °C 11,3 °C 0,0 km/h (0 Bft)
05.06.2018 06:06 11,3 °C 93 % 1007,5 hPa 0,0 mm 0,0 km/h (0 Bft) W 267 ° 0 min 0,000 mm 0,0 UV-I 18 W/m² 10,2 °C 11,3 °C 0,0 km/h (0 Bft)
05.06.2018 06:07 11,3 °C 93 % 1007,5 hPa 0,0 mm 0,0 km/h (0 Bft) W 267 ° 0 min 0,000 mm 0,0 UV-I 18 W/m² 10,2 °C 11,3 °C 0,0 km/h (0 Bft)
05.06.2018 06:08 11,3 °C 93 % 1007,5 hPa 0,0 mm 0,0 km/h (0 Bft) W 267 ° 0 min 0,000 mm 0,0 UV-I 18 W/m² 10,2 °C 11,3 °C 0,0 km/h (0 Bft)
05.06.2018 06:09 11,3 °C 93 % 1007,5 hPa 0,0 mm 0,0 km/h (0 Bft) W 267 ° 0 min 0,000 mm 0,0 UV-I 19 W/m² 10,2 °C 11,3 °C 0,0 km/h (0 Bft)
05.06.2018 06:10 11,3 °C 93 % 1007,5 hPa 0,0 mm 0,0 km/h (0 Bft) W 267 ° 0 min 0,000 mm 0,0 UV-I 19 W/m² 10,2 °C 11,3 °C 0,0 km/h (0 Bft)
05.06.2018 06:11 11,3 °C 93 % 1007,5 hPa 0,0 mm 0,0 km/h (0 Bft) W 267 ° 0 min 0,000 mm 0,0 UV-I 19 W/m² 10,2 °C 11,3 °C 0,0 km/h (0 Bft)
05.06.2018 06:12 11,3 °C 93 % 1007,5 hPa 0,0 mm 0,0 km/h (0 Bft) W 267 ° 0 min 0,000 mm 0,0 UV-I 19 W/m² 10,2 °C 11,3 °C 0,0 km/h (0 Bft)
05.06.2018 06:13 11,3 °C 92 % 1007,5 hPa 0,0 mm 0,0 km/h (0 Bft) W 267 ° 0 min 0,000 mm 0,0 UV-I 19 W/m² 10,0 °C 11,3 °C 0,0 km/h (0 Bft)
05.06.2018 06:14 11,3 °C 92 % 1007,6 hPa 0,0 mm 0,0 km/h (0 Bft) W 267 ° 0 min 0,000 mm 0,0 UV-I 19 W/m² 10,0 °C 11,3 °C 0,0 km/h (0 Bft)
05.06.2018 06:15 11,2 °C 92 % 1007,5 hPa 0,0 mm 0,0 km/h (0 Bft) W 267 ° 0 min 0,000 mm 0,0 UV-I 19 W/m² 9,9 °C 11,2 °C 0,0 km/h (0 Bft)
05.06.2018 06:16 11,2 °C 92 % 1007,5 hPa 0,0 mm 0,0 km/h (0 Bft) W 267 ° 0 min 0,000 mm 0,0 UV-I 19 W/m² 9,9 °C 11,2 °C 0,0 km/h (0 Bft)
05.06.2018 06:17 11,2 °C 93 % 1007,5 hPa 0,0 mm 0,0 km/h (0 Bft) W 267 ° 0 min 0,000 mm 0,0 UV-I 21 W/m² 10,1 °C 11,2 °C 0,0 km/h (0 Bft)
05.06.2018 06:18 11,2 °C 93 % 1007,5 hPa 0,0 mm 0,0 km/h (0 Bft) W 267 ° 0 min 0,000 mm 0,0 UV-I 21 W/m² 10,1 °C 11,2 °C 0,0 km/h (0 Bft)
05.06.2018 06:19 11,3 °C 93 % 1007,5 hPa 0,0 mm 0,0 km/h (0 Bft) W 267 ° 0 min 0,000 mm 0,0 UV-I 21 W/m² 10,2 °C 11,3 °C 0,0 km/h (0 Bft)
05.06.2018 06:20 11,3 °C 93 % 1007,5 hPa 0,0 mm 0,0 km/h (0 Bft) W 267 ° 0 min 0,000 mm 0,0 UV-I 23 W/m² 10,2 °C 11,3 °C 0,0 km/h (0 Bft)
05.06.2018 06:21 11,3 °C 93 % 1007,5 hPa 0,0 mm 0,0 km/h (0 Bft) W 267 ° 0 min 0,000 mm 0,0 UV-I 23 W/m² 10,2 °C 11,3 °C 0,0 km/h (0 Bft)
05.06.2018 06:22 11,3 °C 93 % 1007,5 hPa 0,0 mm 0,0 km/h (0 Bft) W 267 ° 0 min 0,000 mm 0,0 UV-I 25 W/m² 10,2 °C 11,3 °C 0,0 km/h (0 Bft)
05.06.2018 06:23 11,3 °C 93 % 1007,5 hPa 0,0 mm 0,0 km/h (0 Bft) W 267 ° 0 min 0,000 mm 0,0 UV-I 30 W/m² 10,2 °C 11,3 °C 0,0 km/h (0 Bft)
05.06.2018 06:24 11,3 °C 93 % 1007,6 hPa 0,0 mm 0,0 km/h (0 Bft) W 267 ° 0 min 0,000 mm 0,0 UV-I 35 W/m² 10,2 °C 11,3 °C 0,0 km/h (0 Bft)
05.06.2018 06:25 11,3 °C 93 % 1007,6 hPa 0,0 mm 0,0 km/h (0 Bft) W 267 ° 0 min 0,000 mm 0,0 UV-I 40 W/m² 10,2 °C 11,3 °C 0,0 km/h (0 Bft)
05.06.2018 06:26 11,3 °C 93 % 1007,5 hPa 0,0 mm 0,0 km/h (0 Bft) W 267 ° 0 min 0,000 mm 0,0 UV-I 47 W/m² 10,2 °C 11,3 °C 0,0 km/h (0 Bft)
05.06.2018 06:27 11,3 °C 93 % 1007,5 hPa 0,0 mm 0,0 km/h (0 Bft) W 267 ° 0 min 0,000 mm 0,0 UV-I 49 W/m² 10,2 °C 11,3 °C 0,0 km/h (0 Bft)
05.06.2018 06:28 11,3 °C 93 % 1007,5 hPa 0,0 mm 0,0 km/h (0 Bft) W 267 ° 0 min 0,000 mm 0,0 UV-I 46 W/m² 10,2 °C 11,3 °C 0,0 km/h (0 Bft)
05.06.2018 06:29 11,3 °C 93 % 1007,6 hPa 0,0 mm 0,0 km/h (0 Bft) W 267 ° 0 min 0,000 mm 0,0 UV-I 42 W/m² 10,2 °C 11,3 °C 0,0 km/h (0 Bft)
05.06.2018 06:30 11,3 °C 93 % 1007,6 hPa 0,0 mm 0,0 km/h (0 Bft) W 267 ° 0 min 0,000 mm 0,0 UV-I 42 W/m² 10,2 °C 11,3 °C 0,0 km/h (0 Bft)
05.06.2018 06:31 11,3 °C 93 % 1007,5 hPa 0,0 mm 0,0 km/h (0 Bft) W 267 ° 0 min 0,000 mm 0,0 UV-I 42 W/m² 10,2 °C 11,3 °C 0,0 km/h (0 Bft)
05.06.2018 06:32 11,3 °C 93 % 1007,6 hPa 0,0 mm 0,0 km/h (0 Bft) W 267 ° 0 min 0,000 mm 0,0 UV-I 42 W/m² 10,2 °C 11,3 °C 0,0 km/h (0 Bft)
05.06.2018 06:33 11,3 °C 93 % 1007,6 hPa 0,0 mm 0,0 km/h (0 Bft) W 267 ° 0 min 0,000 mm 0,0 UV-I 42 W/m² 10,2 °C 11,3 °C 0,0 km/h (0 Bft)
05.06.2018 06:34 11,3 °C 93 % 1007,7 hPa 0,0 mm 0,0 km/h (0 Bft) W 267 ° 0 min 0,000 mm 0,0 UV-I 42 W/m² 10,2 °C 11,3 °C 0,0 km/h (0 Bft)
05.06.2018 06:35 11,3 °C 93 % 1007,7 hPa 0,0 mm 0,0 km/h (0 Bft) W 267 ° 0 min 0,000 mm 0,0 UV-I 39 W/m² 10,2 °C 11,3 °C 0,0 km/h (0 Bft)
05.06.2018 06:36 11,3 °C 92 % 1007,7 hPa 0,0 mm 0,0 km/h (0 Bft) W 267 ° 0 min 0,000 mm 0,0 UV-I 39 W/m² 10,0 °C 11,3 °C 0,0 km/h (0 Bft)
05.06.2018 06:37 11,3 °C 93 % 1007,7 hPa 0,0 mm 0,0 km/h (0 Bft) W 267 ° 0 min 0,000 mm 0,0 UV-I 37 W/m² 10,2 °C 11,3 °C 0,0 km/h (0 Bft)
05.06.2018 06:38 11,3 °C 92 % 1007,7 hPa 0,0 mm 0,0 km/h (0 Bft) W 267 ° 0 min 0,000 mm 0,0 UV-I 39 W/m² 10,0 °C 11,3 °C 0,0 km/h (0 Bft)
05.06.2018 06:39 11,3 °C 93 % 1007,7 hPa 0,0 mm 0,0 km/h (0 Bft) W 267 ° 0 min 0,000 mm 0,0 UV-I 39 W/m² 10,2 °C 11,3 °C 0,0 km/h (0 Bft)
05.06.2018 06:40 11,4 °C 93 % 1007,7 hPa 0,0 mm 0,0 km/h (0 Bft) W 267 ° 0 min 0,000 mm 0,0 UV-I 39 W/m² 10,3 °C 11,4 °C 0,0 km/h (0 Bft)
05.06.2018 06:41 11,4 °C 93 % 1007,7 hPa 0,0 mm 0,0 km/h (0 Bft) W 267 ° 0 min 0,000 mm 0,0 UV-I 40 W/m² 10,3 °C 11,4 °C 0,0 km/h (0 Bft)
05.06.2018 06:42 11,4 °C 92 % 1007,7 hPa 0,0 mm 0,0 km/h (0 Bft) W 267 ° 0 min 0,000 mm 0,0 UV-I 42 W/m² 10,1 °C 11,4 °C 0,0 km/h (0 Bft)
05.06.2018 06:43 11,4 °C 92 % 1007,7 hPa 0,0 mm 0,0 km/h (0 Bft) W 267 ° 0 min 0,000 mm 0,0 UV-I 42 W/m² 10,1 °C 11,4 °C 0,0 km/h (0 Bft)
05.06.2018 06:44 11,4 °C 92 % 1007,6 hPa 0,0 mm 0,0 km/h (0 Bft) W 267 ° 0 min 0,000 mm 0,0 UV-I 44 W/m² 10,1 °C 11,4 °C 0,0 km/h (0 Bft)
05.06.2018 06:45 11,4 °C 92 % 1007,7 hPa 0,0 mm 0,3 km/h (0 Bft) W 267 ° 0 min 0,000 mm 0,0 UV-I 46 W/m² 10,1 °C 11,4 °C 1,6 km/h (1 Bft)
05.06.2018 06:46 11,4 °C 92 % 1007,6 hPa 0,0 mm 0,2 km/h (0 Bft) W 267 ° 0 min 0,000 mm 0,0 UV-I 46 W/m² 10,1 °C 11,4 °C 1,6 km/h (1 Bft)
05.06.2018 06:47 11,6 °C 92 % 1007,7 hPa 0,0 mm 0,0 km/h (0 Bft) W 267 ° 0 min 0,000 mm 0,0 UV-I 56 W/m² 10,3 °C 11,6 °C 0,0 km/h (0 Bft)
05.06.2018 06:48 11,6 °C 93 % 1007,7 hPa 0,0 mm 0,0 km/h (0 Bft) W 267 ° 0 min 0,000 mm 0,5 UV-I 81 W/m² 10,5 °C 11,6 °C 0,0 km/h (0 Bft)
05.06.2018 06:49 11,7 °C 93 % 1007,7 hPa 0,0 mm 0,0 km/h (0 Bft) W 267 ° 0 min 0,000 mm 0,5 UV-I 93 W/m² 10,6 °C 11,7 °C 0,0 km/h (0 Bft)
05.06.2018 06:50 11,8 °C 93 % 1007,7 hPa 0,0 mm 0,0 km/h (0 Bft) W 267 ° 0 min 0,000 mm 0,5 UV-I 116 W/m² 10,7 °C 11,8 °C 0,0 km/h (0 Bft)
05.06.2018 06:51 11,9 °C 92 % 1007,7 hPa 0,0 mm 0,1 km/h (0 Bft) W 267 ° 0 min 0,000 mm 0,5 UV-I 128 W/m² 10,6 °C 11,9 °C 1,6 km/h (1 Bft)
05.06.2018 06:52 11,8 °C 92 % 1007,7 hPa 0,0 mm 0,0 km/h (0 Bft) W 267 ° 0 min 0,000 mm 0,5 UV-I 130 W/m² 10,5 °C 11,8 °C 0,0 km/h (0 Bft)
05.06.2018 06:53 11,9 °C 92 % 1007,7 hPa 0,0 mm 0,0 km/h (0 Bft) W 267 ° 0 min 0,000 mm 0,5 UV-I 132 W/m² 10,6 °C 11,9 °C 0,0 km/h (0 Bft)
05.06.2018 06:54 12,0 °C 92 % 1007,7 hPa 0,0 mm 0,0 km/h (0 Bft) W 267 ° 0 min 0,000 mm 0,5 UV-I 132 W/m² 10,7 °C 12,0 °C 0,0 km/h (0 Bft)
05.06.2018 06:55 12,1 °C 93 % 1007,7 hPa 0,0 mm 0,0 km/h (0 Bft) W 267 ° 0 min 0,000 mm 0,5 UV-I 121 W/m² 11,0 °C 12,1 °C 0,0 km/h (0 Bft)
05.06.2018 06:56 12,1 °C 92 % 1007,7 hPa 0,0 mm 0,0 km/h (0 Bft) W 267 ° 0 min 0,000 mm 0,5 UV-I 127 W/m² 10,8 °C 12,1 °C 0,0 km/h (0 Bft)
05.06.2018 06:57 12,2 °C 93 % 1007,7 hPa 0,0 mm 0,0 km/h (0 Bft) W 267 ° 0 min 0,000 mm 0,6 UV-I 132 W/m² 11,1 °C 12,2 °C 0,0 km/h (0 Bft)
05.06.2018 06:58 12,3 °C 92 % 1007,7 hPa 0,0 mm 0,0 km/h (0 Bft) W 267 ° 0 min 0,000 mm 0,6 UV-I 134 W/m² 11,0 °C 12,3 °C 0,0 km/h (0 Bft)
05.06.2018 06:59 12,5 °C 93 % 1007,7 hPa 0,0 mm 0,0 km/h (0 Bft) W 267 ° 0 min 0,000 mm 0,6 UV-I 139 W/m² 11,4 °C 12,5 °C 0,0 km/h (0 Bft)
05.06.2018 07:00 12,6 °C 92 % 1007,8 hPa 0,0 mm 0,8 km/h (0 Bft) W 267 ° 0 min 0,000 mm 0,6 UV-I 77 W/m² 11,3 °C 12,6 °C 1,6 km/h (1 Bft)
05.06.2018 07:01 12,7 °C 92 % 1007,8 hPa 0,0 mm 0,5 km/h (0 Bft) W 267 ° 0 min 0,025 mm 0,0 UV-I 53 W/m² 11,4 °C 12,7 °C 1,6 km/h (1 Bft)
05.06.2018 07:02 12,7 °C 91 % 1007,8 hPa 0,0 mm 0,4 km/h (0 Bft) W 267 ° 0 min 0,000 mm 0,6 UV-I 62 W/m² 11,3 °C 12,7 °C 1,6 km/h (1 Bft)
05.06.2018 07:03 12,7 °C 91 % 1007,8 hPa 0,0 mm 0,2 km/h (0 Bft) W 267 ° 0 min 0,000 mm 0,6 UV-I 56 W/m² 11,3 °C 12,7 °C 1,6 km/h (1 Bft)
05.06.2018 07:04 12,6 °C 91 % 1007,8 hPa 0,0 mm 0,0 km/h (0 Bft) W 267 ° 0 min 0,000 mm 0,0 UV-I 62 W/m² 11,2 °C 12,6 °C 0,0 km/h (0 Bft)
05.06.2018 07:05 12,6 °C 91 % 1007,8 hPa 0,0 mm 0,0 km/h (0 Bft) W 267 ° 0 min 0,000 mm 0,6 UV-I 97 W/m² 11,2 °C 12,6 °C 0,0 km/h (0 Bft)
05.06.2018 07:06 12,6 °C 91 % 1007,8 hPa 0,0 mm 0,0 km/h (0 Bft) W 267 ° 0 min 0,000 mm 0,6 UV-I 142 W/m² 11,2 °C 12,6 °C 0,0 km/h (0 Bft)
05.06.2018 07:07 12,6 °C 91 % 1007,8 hPa 0,0 mm 0,0 km/h (0 Bft) W 267 ° 0 min 0,000 mm 0,7 UV-I 151 W/m² 11,2 °C 12,6 °C 0,0 km/h (0 Bft)
05.06.2018 07:08 12,8 °C 92 % 1007,8 hPa 0,0 mm 0,0 km/h (0 Bft) W 267 ° 0 min 0,000 mm 0,7 UV-I 155 W/m² 11,5 °C 12,8 °C 0,0 km/h (0 Bft)
05.06.2018 07:09 12,9 °C 92 % 1007,7 hPa 0,0 mm 0,0 km/h (0 Bft) W 267 ° 0 min 0,000 mm 0,7 UV-I 156 W/m² 11,6 °C 12,9 °C 0,0 km/h (0 Bft)
05.06.2018 07:10 13,1 °C 92 % 1007,7 hPa 0,0 mm 0,0 km/h (0 Bft) W 267 ° 0 min 0,000 mm 0,7 UV-I 160 W/m² 11,8 °C 13,1 °C 0,0 km/h (0 Bft)
05.06.2018 07:11 13,2 °C 91 % 1007,8 hPa 0,0 mm 0,0 km/h (0 Bft) W 267 ° 0 min 0,000 mm 0,7 UV-I 162 W/m² 11,8 °C 13,2 °C 0,0 km/h (0 Bft)
05.06.2018 07:12 13,3 °C 91 % 1007,7 hPa 0,0 mm 0,0 km/h (0 Bft) W 267 ° 0 min 0,000 mm 0,7 UV-I 162 W/m² 11,9 °C 13,3 °C 0,0 km/h (0 Bft)
05.06.2018 07:13 13,3 °C 91 % 1007,7 hPa 0,0 mm 0,5 km/h (0 Bft) W 267 ° 0 min 0,000 mm 0,7 UV-I 167 W/m² 11,9 °C 13,3 °C 1,6 km/h (1 Bft)
05.06.2018 07:14 13,2 °C 90 % 1007,7 hPa 0,0 mm 0,0 km/h (0 Bft) W 267 ° 0 min 0,000 mm 0,7 UV-I 174 W/m² 11,6 °C 13,2 °C 0,0 km/h (0 Bft)
05.06.2018 07:15 13,2 °C 90 % 1007,7 hPa 0,0 mm 0,0 km/h (0 Bft) W 267 ° 0 min 0,000 mm 0,8 UV-I 181 W/m² 11,6 °C 13,2 °C 0,0 km/h (0 Bft)
05.06.2018 07:16 13,2 °C 91 % 1007,8 hPa 0,0 mm 0,0 km/h (0 Bft) W 267 ° 0 min 0,000 mm 0,7 UV-I 60 W/m² 11,8 °C 13,2 °C 0,0 km/h (0 Bft)
05.06.2018 07:17 13,2 °C 91 % 1007,7 hPa 0,0 mm 0,0 km/h (0 Bft) W 267 ° 0 min 0,000 mm 0,7 UV-I 60 W/m² 11,8 °C 13,2 °C 0,0 km/h (0 Bft)
05.06.2018 07:18 13,3 °C 91 % 1007,8 hPa 0,0 mm 0,0 km/h (0 Bft) W 267 ° 0 min 0,000 mm 0,8 UV-I 135 W/m² 11,9 °C 13,3 °C 0,0 km/h (0 Bft)
05.06.2018 07:19 13,4 °C 91 % 1007,7 hPa 0,0 mm 0,0 km/h (0 Bft) W 267 ° 0 min 0,000 mm 0,8 UV-I 192 W/m² 12,0 °C 13,4 °C 0,0 km/h (0 Bft)
05.06.2018 07:20 13,6 °C 91 % 1007,7 hPa 0,0 mm 0,0 km/h (0 Bft) W 267 ° 0 min 0,000 mm 0,8 UV-I 197 W/m² 12,2 °C 13,6 °C 0,0 km/h (0 Bft)
05.06.2018 07:21 13,7 °C 90 % 1007,7 hPa 0,0 mm 3,1 km/h (1 Bft) S-SW 213 ° 0 min 0,000 mm 0,8 UV-I 200 W/m² 12,1 °C 13,7 °C 4,8 km/h (1 Bft)
05.06.2018 07:22 13,8 °C 90 % 1007,7 hPa 0,0 mm 1,7 km/h (1 Bft) S-SW 213 ° 0 min 0,000 mm 0,9 UV-I 202 W/m² 12,2 °C 13,8 °C 3,2 km/h (1 Bft)
05.06.2018 07:23 13,9 °C 90 % 1007,7 hPa 0,0 mm 0,2 km/h (0 Bft) S-SW 213 ° 0 min 0,000 mm 0,9 UV-I 204 W/m² 12,3 °C 13,9 °C 1,6 km/h (1 Bft)
05.06.2018 07:24 13,9 °C 90 % 1007,7 hPa 0,0 mm 0,1 km/h (0 Bft) S-SW 213 ° 0 min 0,000 mm 0,9 UV-I 207 W/m² 12,3 °C 13,9 °C 1,6 km/h (1 Bft)
05.06.2018 07:25 14,1 °C 90 % 1007,7 hPa 0,0 mm 0,3 km/h (0 Bft) S-SW 213 ° 0 min 0,000 mm 0,9 UV-I 207 W/m² 12,5 °C 14,1 °C 1,6 km/h (1 Bft)
05.06.2018 07:26 14,1 °C 89 % 1007,7 hPa 0,0 mm 0,0 km/h (0 Bft) S-SW 213 ° 0 min 0,000 mm 0,9 UV-I 207 W/m² 12,3 °C 14,1 °C 0,0 km/h (0 Bft)
05.06.2018 07:27 14,2 °C 90 % 1007,7 hPa 0,0 mm 0,0 km/h (0 Bft) S-SW 213 ° 0 min 0,000 mm 0,9 UV-I 209 W/m² 12,6 °C 14,2 °C 0,0 km/h (0 Bft)
05.06.2018 07:28 14,3 °C 90 % 1007,8 hPa 0,0 mm 0,0 km/h (0 Bft) S-SW 213 ° 0 min 0,000 mm 0,9 UV-I 213 W/m² 12,7 °C 14,3 °C 0,0 km/h (0 Bft)
05.06.2018 07:29 14,5 °C 90 % 1007,7 hPa 0,0 mm 0,0 km/h (0 Bft) S-SW 213 ° 0 min 0,000 mm 1,0 UV-I 214 W/m² 12,9 °C 14,5 °C 0,0 km/h (0 Bft)
05.06.2018 07:30 14,7 °C 90 % 1007,7 hPa 0,0 mm 0,0 km/h (0 Bft) S-SW 213 ° 0 min 0,000 mm 1,0 UV-I 216 W/m² 13,1 °C 14,7 °C 0,0 km/h (0 Bft)
05.06.2018 07:31 14,9 °C 89 % 1007,7 hPa 0,0 mm 0,7 km/h (0 Bft) S-SW 213 ° 0 min 0,000 mm 1,0 UV-I 216 W/m² 13,1 °C 14,9 °C 1,6 km/h (1 Bft)
05.06.2018 07:32 14,9 °C 88 % 1007,7 hPa 0,0 mm 1,0 km/h (0 Bft) S-SW 213 ° 0 min 0,000 mm 1,0 UV-I 218 W/m² 12,9 °C 14,9 °C 1,6 km/h (1 Bft)
05.06.2018 07:33 15,1 °C 88 % 1007,7 hPa 0,0 mm 0,2 km/h (0 Bft) S-SW 213 ° 0 min 0,000 mm 1,0 UV-I 221 W/m² 13,1 °C 15,1 °C 1,6 km/h (1 Bft)
05.06.2018 07:34 15,2 °C 88 % 1007,7 hPa 0,0 mm 0,1 km/h (0 Bft) S-SW 213 ° 0 min 0,000 mm 1,0 UV-I 223 W/m² 13,2 °C 15,2 °C 1,6 km/h (1 Bft)
05.06.2018 07:35 15,2 °C 87 % 1007,7 hPa 0,0 mm 0,0 km/h (0 Bft) S-SW 213 ° 0 min 0,000 mm 1,1 UV-I 223 W/m² 13,0 °C 15,2 °C 0,0 km/h (0 Bft)
05.06.2018 07:36 15,2 °C 88 % 1007,7 hPa 0,0 mm 0,0 km/h (0 Bft) S-SW 213 ° 0 min 0,000 mm 1,1 UV-I 225 W/m² 13,2 °C 15,2 °C 0,0 km/h (0 Bft)
05.06.2018 07:37 15,2 °C 87 % 1007,7 hPa 0,0 mm 0,0 km/h (0 Bft) S-SW 213 ° 0 min 0,000 mm 1,1 UV-I 229 W/m² 13,0 °C 15,2 °C 0,0 km/h (0 Bft)
05.06.2018 07:38 15,1 °C 88 % 1007,7 hPa 0,0 mm 0,0 km/h (0 Bft) S-SW 213 ° 0 min 0,000 mm 1,1 UV-I 230 W/m² 13,1 °C 15,1 °C 0,0 km/h (0 Bft)
05.06.2018 07:39 15,1 °C 87 % 1007,7 hPa 0,0 mm 0,0 km/h (0 Bft) S-SW 213 ° 0 min 0,000 mm 1,1 UV-I 237 W/m² 13,0 °C 15,1 °C 0,0 km/h (0 Bft)
05.06.2018 07:40 15,1 °C 87 % 1007,7 hPa 0,0 mm 0,0 km/h (0 Bft) S-SW 213 ° 0 min 0,000 mm 1,2 UV-I 241 W/m² 13,0 °C 15,1 °C 0,0 km/h (0 Bft)
05.06.2018 07:41 15,2 °C 88 % 1007,7 hPa 0,0 mm 0,0 km/h (0 Bft) S-SW 213 ° 0 min 0,000 mm 1,2 UV-I 244 W/m² 13,2 °C 15,2 °C 0,0 km/h (0 Bft)
05.06.2018 07:42 15,2 °C 88 % 1007,7 hPa 0,0 mm 0,0 km/h (0 Bft) S-SW 213 ° 0 min 0,000 mm 1,2 UV-I 243 W/m² 13,2 °C 15,2 °C 0,0 km/h (0 Bft)
05.06.2018 07:43 15,3 °C 88 % 1007,7 hPa 0,0 mm 0,0 km/h (0 Bft) S-SW 213 ° 0 min 0,000 mm 1,2 UV-I 246 W/m² 13,3 °C 15,3 °C 0,0 km/h (0 Bft)
05.06.2018 07:44 15,3 °C 88 % 1007,7 hPa 0,0 mm 0,0 km/h (0 Bft) S-SW 213 ° 0 min 0,000 mm 1,2 UV-I 251 W/m² 13,3 °C 15,3 °C 0,0 km/h (0 Bft)
05.06.2018 07:45 15,3 °C 87 % 1007,7 hPa 0,0 mm 0,0 km/h (0 Bft) S-SW 213 ° 0 min 0,000 mm 1,2 UV-I 250 W/m² 13,1 °C 15,3 °C 0,0 km/h (0 Bft)
05.06.2018 07:46 15,3 °C 87 % 1007,7 hPa 0,0 mm 0,0 km/h (0 Bft) S-SW 213 ° 0 min 0,000 mm 1,3 UV-I 250 W/m² 13,1 °C 15,3 °C 0,0 km/h (0 Bft)
05.06.2018 07:47 15,4 °C 87 % 1007,8 hPa 0,0 mm 0,0 km/h (0 Bft) S-SW 213 ° 0 min 0,000 mm 1,3 UV-I 255 W/m² 13,2 °C 15,4 °C 0,0 km/h (0 Bft)
05.06.2018 07:48 15,5 °C 87 % 1007,8 hPa 0,0 mm 0,3 km/h (0 Bft) S-SW 213 ° 0 min 0,000 mm 1,3 UV-I 264 W/m² 13,3 °C 15,5 °C 1,6 km/h (1 Bft)
05.06.2018 07:49 15,7 °C 88 % 1007,7 hPa 0,0 mm 0,4 km/h (0 Bft) S-SW 213 ° 0 min 0,000 mm 1,3 UV-I 269 W/m² 13,7 °C 15,7 °C 1,6 km/h (1 Bft)
05.06.2018 07:50 15,7 °C 87 % 1007,8 hPa 0,0 mm 0,3 km/h (0 Bft) S-SW 213 ° 0 min 0,000 mm 1,3 UV-I 272 W/m² 13,5 °C 15,7 °C 1,6 km/h (1 Bft)
05.06.2018 07:51 15,7 °C 87 % 1007,8 hPa 0,0 mm 0,1 km/h (0 Bft) S-SW 213 ° 0 min 0,000 mm 1,3 UV-I 278 W/m² 13,5 °C 15,7 °C 1,6 km/h (1 Bft)
05.06.2018 07:52 15,8 °C 87 % 1007,8 hPa 0,0 mm 0,0 km/h (0 Bft) S-SW 213 ° 0 min 0,000 mm 1,4 UV-I 283 W/m² 13,6 °C 15,8 °C 0,0 km/h (0 Bft)
05.06.2018 07:53 15,8 °C 87 % 1007,8 hPa 0,0 mm 0,0 km/h (0 Bft) S-SW 213 ° 0 min 0,000 mm 1,4 UV-I 285 W/m² 13,6 °C 15,8 °C 0,0 km/h (0 Bft)
05.06.2018 07:54 15,8 °C 87 % 1007,8 hPa 0,0 mm 0,0 km/h (0 Bft) S-SW 213 ° 0 min 0,000 mm 1,4 UV-I 290 W/m² 13,6 °C 15,8 °C 0,0 km/h (0 Bft)
05.06.2018 07:55 15,8 °C 85 % 1007,8 hPa 0,0 mm 0,1 km/h (0 Bft) S-SW 213 ° 0 min 0,000 mm 1,4 UV-I 294 W/m² 13,3 °C 15,8 °C 1,6 km/h (1 Bft)
05.06.2018 07:56 15,9 °C 85 % 1007,8 hPa 0,0 mm 0,0 km/h (0 Bft) S-SW 213 ° 0 min 0,000 mm 1,4 UV-I 297 W/m² 13,4 °C 15,9 °C 0,0 km/h (0 Bft)
05.06.2018 07:57 16,1 °C 85 % 1007,8 hPa 0,0 mm 0,0 km/h (0 Bft) S-SW 213 ° 0 min 0,000 mm 1,5 UV-I 308 W/m² 13,6 °C 16,1 °C 0,0 km/h (0 Bft)
05.06.2018 07:58 16,2 °C 86 % 1007,7 hPa 0,0 mm 0,0 km/h (0 Bft) S-SW 213 ° 0 min 0,000 mm 1,5 UV-I 315 W/m² 13,9 °C 16,2 °C 0,0 km/h (0 Bft)
05.06.2018 07:59 16,3 °C 86 % 1007,7 hPa 0,0 mm 0,0 km/h (0 Bft) S-SW 213 ° 0 min 0,000 mm 1,5 UV-I 320 W/m² 14,0 °C 16,3 °C 0,0 km/h (0 Bft)
05.06.2018 08:00 16,5 °C 86 % 1007,7 hPa 0,0 mm 0,0 km/h (0 Bft) S-SW 213 ° 0 min 0,000 mm 1,5 UV-I 323 W/m² 14,1 °C 16,5 °C 0,0 km/h (0 Bft)
05.06.2018 08:01 16,7 °C 84 % 1007,7 hPa 0,0 mm 0,0 km/h (0 Bft) S-SW 213 ° 0 min 0,102 mm 1,6 UV-I 323 W/m² 14,0 °C 16,7 °C 0,0 km/h (0 Bft)
05.06.2018 08:02 16,8 °C 84 % 1007,7 hPa 0,0 mm 0,0 km/h (0 Bft) S-SW 213 ° 0 min 0,000 mm 1,6 UV-I 323 W/m² 14,1 °C 16,8 °C 0,0 km/h (0 Bft)
05.06.2018 08:03 16,9 °C 82 % 1007,7 hPa 0,0 mm 0,0 km/h (0 Bft) S-SW 213 ° 0 min 0,000 mm 1,6 UV-I 327 W/m² 13,8 °C 16,9 °C 0,0 km/h (0 Bft)
05.06.2018 08:04 16,9 °C 84 % 1007,7 hPa 0,0 mm 0,0 km/h (0 Bft) S-SW 213 ° 0 min 0,000 mm 1,6 UV-I 330 W/m² 14,2 °C 16,9 °C 0,0 km/h (0 Bft)
05.06.2018 08:05 16,9 °C 85 % 1007,7 hPa 0,0 mm 0,0 km/h (0 Bft) S-SW 213 ° 0 min 0,000 mm 1,6 UV-I 338 W/m² 14,4 °C 16,9 °C 0,0 km/h (0 Bft)
05.06.2018 08:06 16,9 °C 85 % 1007,7 hPa 0,0 mm 0,0 km/h (0 Bft) S-SW 213 ° 0 min 0,000 mm 1,7 UV-I 341 W/m² 14,4 °C 16,9 °C 0,0 km/h (0 Bft)
05.06.2018 08:07 16,8 °C 84 % 1007,7 hPa 0,0 mm 0,4 km/h (0 Bft) S-SW 213 ° 0 min 0,000 mm 1,7 UV-I 346 W/m² 14,1 °C 16,8 °C 1,6 km/h (1 Bft)
05.06.2018 08:08 16,8 °C 85 % 1007,8 hPa 0,0 mm 0,8 km/h (0 Bft) S-SW 213 ° 0 min 0,000 mm 1,7 UV-I 350 W/m² 14,3 °C 16,8 °C 1,6 km/h (1 Bft)
05.06.2018 08:09 16,8 °C 84 % 1007,7 hPa 0,0 mm 0,0 km/h (0 Bft) S-SW 213 ° 0 min 0,000 mm 1,7 UV-I 355 W/m² 14,1 °C 16,8 °C 0,0 km/h (0 Bft)
05.06.2018 08:10 16,8 °C 86 % 1007,7 hPa 0,0 mm 0,0 km/h (0 Bft) S-SW 213 ° 0 min 0,000 mm 1,7 UV-I 355 W/m² 14,4 °C 16,8 °C 0,0 km/h (0 Bft)
05.06.2018 08:11 16,9 °C 84 % 1007,7 hPa 0,0 mm 0,0 km/h (0 Bft) S-SW 213 ° 0 min 0,000 mm 1,8 UV-I 357 W/m² 14,2 °C 16,9 °C 0,0 km/h (0 Bft)
05.06.2018 08:12 16,8 °C 83 % 1007,8 hPa 0,0 mm 0,2 km/h (0 Bft) S-SW 213 ° 0 min 0,000 mm 1,8 UV-I 357 W/m² 13,9 °C 16,8 °C 1,6 km/h (1 Bft)
05.06.2018 08:13 16,9 °C 85 % 1007,8 hPa 0,0 mm 0,3 km/h (0 Bft) S-SW 213 ° 0 min 0,000 mm 1,8 UV-I 355 W/m² 14,4 °C 16,9 °C 1,6 km/h (1 Bft)
05.06.2018 08:14 16,9 °C 82 % 1007,8 hPa 0,0 mm 0,8 km/h (0 Bft) S-SW 213 ° 0 min 0,000 mm 1,8 UV-I 359 W/m² 13,8 °C 16,9 °C 1,6 km/h (1 Bft)
05.06.2018 08:15 17,0 °C 83 % 1007,7 hPa 0,0 mm 0,9 km/h (0 Bft) S-SW 213 ° 0 min 0,000 mm 1,8 UV-I 366 W/m² 14,1 °C 17,0 °C 1,6 km/h (1 Bft)
05.06.2018 08:16 17,0 °C 84 % 1007,7 hPa 0,0 mm 1,0 km/h (0 Bft) S-SW 213 ° 0 min 0,000 mm 1,8 UV-I 371 W/m² 14,3 °C 17,0 °C 3,2 km/h (1 Bft)
05.06.2018 08:17 17,2 °C 83 % 1007,7 hPa 0,0 mm 0,1 km/h (0 Bft) S-SW 213 ° 0 min 0,000 mm 1,8 UV-I 374 W/m² 14,3 °C 17,2 °C 1,6 km/h (1 Bft)
05.06.2018 08:18 17,2 °C 79 % 1007,7 hPa 0,0 mm 0,0 km/h (0 Bft) S-SW 213 ° 0 min 0,000 mm 1,9 UV-I 380 W/m² 13,5 °C 17,2 °C 0,0 km/h (0 Bft)
05.06.2018 08:19 17,3 °C 80 % 1007,7 hPa 0,0 mm 0,4 km/h (0 Bft) S-SW 213 ° 0 min 0,000 mm 1,9 UV-I 387 W/m² 13,8 °C 17,3 °C 1,6 km/h (1 Bft)
05.06.2018 08:20 17,4 °C 78 % 1007,7 hPa 0,0 mm 0,0 km/h (0 Bft) S-SW 213 ° 0 min 0,000 mm 1,9 UV-I 399 W/m² 13,5 °C 17,4 °C 0,0 km/h (0 Bft)
05.06.2018 08:21 17,6 °C 79 % 1007,7 hPa 0,0 mm 0,0 km/h (0 Bft) S-SW 213 ° 0 min 0,000 mm 1,9 UV-I 396 W/m² 13,9 °C 17,6 °C 0,0 km/h (0 Bft)
05.06.2018 08:22 17,8 °C 79 % 1007,7 hPa 0,0 mm 0,0 km/h (0 Bft) S-SW 213 ° 0 min 0,000 mm 1,9 UV-I 385 W/m² 14,1 °C 17,8 °C 0,0 km/h (0 Bft)
05.06.2018 08:23 17,8 °C 78 % 1007,8 hPa 0,0 mm 1,0 km/h (0 Bft) S-SW 213 ° 0 min 0,000 mm 1,9 UV-I 374 W/m² 13,9 °C 17,8 °C 1,6 km/h (1 Bft)
05.06.2018 08:24 17,8 °C 79 % 1007,7 hPa 0,0 mm 1,8 km/h (1 Bft) S-SW 213 ° 0 min 0,000 mm 1,9 UV-I 366 W/m² 14,1 °C 17,8 °C 3,2 km/h (1 Bft)
05.06.2018 08:25 17,8 °C 78 % 1007,7 hPa 0,0 mm 1,0 km/h (0 Bft) S-SW 213 ° 0 min 0,000 mm 1,9 UV-I 359 W/m² 13,9 °C 17,8 °C 1,6 km/h (1 Bft)
05.06.2018 08:26 17,9 °C 77 % 1007,7 hPa 0,0 mm 0,5 km/h (0 Bft) S-SW 213 ° 0 min 0,000 mm 2,0 UV-I 378 W/m² 13,8 °C 17,9 °C 1,6 km/h (1 Bft)
05.06.2018 08:27 17,9 °C 77 % 1007,7 hPa 0,0 mm 1,8 km/h (1 Bft) W-SW 249 ° 0 min 0,000 mm 2,0 UV-I 396 W/m² 13,8 °C 17,9 °C 3,2 km/h (1 Bft)
05.06.2018 08:28 17,9 °C 77 % 1007,7 hPa 0,0 mm 1,8 km/h (1 Bft) W-SW 254 ° 0 min 0,000 mm 2,0 UV-I 392 W/m² 13,8 °C 17,9 °C 3,2 km/h (1 Bft)
05.06.2018 08:29 18,1 °C 77 % 1007,7 hPa 0,0 mm 2,4 km/h (1 Bft) W-SW 254 ° 0 min 0,000 mm 2,0 UV-I 380 W/m² 14,0 °C 18,1 °C 3,2 km/h (1 Bft)
05.06.2018 08:30 18,1 °C 76 % 1007,6 hPa 0,0 mm 0,5 km/h (0 Bft) W-SW 254 ° 0 min 0,000 mm 1,9 UV-I 338 W/m² 13,8 °C 18,1 °C 1,6 km/h (1 Bft)
05.06.2018 08:32 18,0 °C 78 % 1007,6 hPa 0,0 mm 0,7 km/h (0 Bft) W-SW 254 ° 0 min 0,000 mm 1,6 UV-I 148 W/m² 14,1 °C 18,0 °C 3,2 km/h (1 Bft)
05.06.2018 08:33 18,0 °C 75 % 1007,6 hPa 0,0 mm 0,0 km/h (0 Bft) W-SW 254 ° 0 min 0,000 mm 2,1 UV-I 148 W/m² 13,5 °C 18,0 °C 0,0 km/h (0 Bft)
05.06.2018 08:34 18,1 °C 75 % 1007,6 hPa 0,0 mm 0,0 km/h (0 Bft) W-SW 254 ° 0 min 0,000 mm 1,9 UV-I 148 W/m² 13,6 °C 18,1 °C 0,0 km/h (0 Bft)
05.06.2018 08:35 18,1 °C 76 % 1007,6 hPa 0,0 mm 0,0 km/h (0 Bft) W-SW 254 ° 0 min 0,000 mm 2,2 UV-I 148 W/m² 13,8 °C 18,1 °C 0,0 km/h (0 Bft)
05.06.2018 08:36 18,0 °C 76 % 1007,7 hPa 0,0 mm 0,0 km/h (0 Bft) W-SW 254 ° 0 min 0,000 mm 2,2 UV-I 436 W/m² 13,7 °C 18,0 °C 0,0 km/h (0 Bft)
05.06.2018 08:37 18,1 °C 82 % 1007,7 hPa 0,0 mm 0,0 km/h (0 Bft) W-SW 254 ° 0 min 0,000 mm 2,2 UV-I 441 W/m² 15,0 °C 18,1 °C 0,0 km/h (0 Bft)
05.06.2018 08:38 18,1 °C 79 % 1007,7 hPa 0,0 mm 0,0 km/h (0 Bft) W-SW 254 ° 0 min 0,000 mm 2,2 UV-I 455 W/m² 14,4 °C 18,1 °C 0,0 km/h (0 Bft)
05.06.2018 08:39 18,1 °C 80 % 1007,7 hPa 0,0 mm 0,0 km/h (0 Bft) W-SW 254 ° 0 min 0,000 mm 2,2 UV-I 448 W/m² 14,6 °C 18,1 °C 0,0 km/h (0 Bft)
05.06.2018 08:40 18,2 °C 76 % 1007,7 hPa 0,0 mm 0,0 km/h (0 Bft) W-SW 254 ° 0 min 0,000 mm 2,2 UV-I 448 W/m² 13,9 °C 18,2 °C 0,0 km/h (0 Bft)
05.06.2018 08:41 18,2 °C 76 % 1007,7 hPa 0,0 mm 0,1 km/h (0 Bft) W-SW 255 ° 0 min 0,000 mm 2,3 UV-I 448 W/m² 13,9 °C 18,2 °C 1,6 km/h (1 Bft)
05.06.2018 08:42 18,2 °C 78 % 1007,7 hPa 0,0 mm 1,4 km/h (1 Bft) W 263 ° 0 min 0,000 mm 2,2 UV-I 420 W/m² 14,3 °C 18,2 °C 4,8 km/h (1 Bft)
05.06.2018 08:43 18,3 °C 76 % 1007,7 hPa 0,0 mm 2,7 km/h (1 Bft) W-NW 300 ° 0 min 0,000 mm 2,3 UV-I 394 W/m² 14,0 °C 18,3 °C 4,8 km/h (1 Bft)
05.06.2018 08:44 18,3 °C 75 % 1007,7 hPa 0,0 mm 2,8 km/h (1 Bft) NW 315 ° 0 min 0,000 mm 1,9 UV-I 151 W/m² 13,8 °C 18,3 °C 3,2 km/h (1 Bft)
05.06.2018 08:45 18,3 °C 76 % 1007,8 hPa 0,0 mm 3,2 km/h (1 Bft) NW 325 ° 0 min 0,000 mm 1,8 UV-I 155 W/m² 14,0 °C 18,3 °C 4,8 km/h (1 Bft)
05.06.2018 08:46 18,2 °C 76 % 1007,8 hPa 0,0 mm 3,5 km/h (1 Bft) NW 326 ° 0 min 0,000 mm 1,7 UV-I 167 W/m² 13,9 °C 18,2 °C 4,8 km/h (1 Bft)
05.06.2018 08:47 18,1 °C 74 % 1007,7 hPa 0,0 mm 1,7 km/h (1 Bft) NW 326 ° 0 min 0,000 mm 1,7 UV-I 134 W/m² 13,4 °C 18,1 °C 3,2 km/h (1 Bft)
05.06.2018 08:48 17,9 °C 75 % 1007,7 hPa 0,0 mm 0,4 km/h (0 Bft) NW 326 ° 0 min 0,000 mm 1,6 UV-I 125 W/m² 13,4 °C 17,9 °C 1,6 km/h (1 Bft)
05.06.2018 08:49 17,9 °C 76 % 1007,8 hPa 0,0 mm 1,0 km/h (0 Bft) NW 326 ° 0 min 0,000 mm 1,6 UV-I 120 W/m² 13,6 °C 17,9 °C 3,2 km/h (1 Bft)
05.06.2018 08:50 17,8 °C 77 % 1007,7 hPa 0,0 mm 0,0 km/h (0 Bft) NW 326 ° 0 min 0,000 mm 1,6 UV-I 116 W/m² 13,7 °C 17,8 °C 0,0 km/h (0 Bft)
05.06.2018 08:51 17,7 °C 77 % 1007,7 hPa 0,0 mm 0,4 km/h (0 Bft) NW 326 ° 0 min 0,000 mm 1,6 UV-I 116 W/m² 13,6 °C 17,7 °C 1,6 km/h (1 Bft)
05.06.2018 08:52 17,6 °C 77 % 1007,8 hPa 0,0 mm 0,0 km/h (0 Bft) NW 326 ° 0 min 0,000 mm 1,6 UV-I 118 W/m² 13,5 °C 17,6 °C 0,0 km/h (0 Bft)
05.06.2018 08:53 17,5 °C 78 % 1007,7 hPa 0,0 mm 1,6 km/h (1 Bft) NW 326 ° 0 min 0,000 mm 1,6 UV-I 121 W/m² 13,6 °C 17,5 °C 4,8 km/h (1 Bft)
05.06.2018 08:54 17,4 °C 79 % 1007,8 hPa 0,0 mm 2,7 km/h (1 Bft) NW 326 ° 0 min 0,000 mm 1,6 UV-I 123 W/m² 13,7 °C 17,4 °C 4,8 km/h (1 Bft)
05.06.2018 08:55 17,3 °C 81 % 1007,8 hPa 0,0 mm 0,4 km/h (0 Bft) NW 326 ° 0 min 0,000 mm 1,6 UV-I 125 W/m² 14,0 °C 17,3 °C 1,6 km/h (1 Bft)
05.06.2018 08:56 17,2 °C 81 % 1007,8 hPa 0,0 mm 0,0 km/h (0 Bft) NW 326 ° 0 min 0,000 mm 1,6 UV-I 134 W/m² 13,9 °C 17,2 °C 0,0 km/h (0 Bft)
05.06.2018 08:57 17,1 °C 79 % 1007,8 hPa 0,0 mm 0,0 km/h (0 Bft) NW 326 ° 0 min 0,000 mm 1,7 UV-I 141 W/m² 13,4 °C 17,1 °C 0,0 km/h (0 Bft)
05.06.2018 08:58 17,1 °C 79 % 1007,8 hPa 0,0 mm 0,0 km/h (0 Bft) NW 326 ° 0 min 0,000 mm 1,8 UV-I 149 W/m² 13,4 °C 17,1 °C 0,0 km/h (0 Bft)
05.06.2018 08:59 17,0 °C 81 % 1007,8 hPa 0,0 mm 0,0 km/h (0 Bft) NW 326 ° 0 min 0,000 mm 1,8 UV-I 156 W/m² 13,7 °C 17,0 °C 0,0 km/h (0 Bft)
05.06.2018 09:00 17,0 °C 82 % 1007,8 hPa 0,0 mm 0,0 km/h (0 Bft) NW 326 ° 0 min 0,000 mm 1,8 UV-I 162 W/m² 13,9 °C 17,0 °C 0,0 km/h (0 Bft)
05.06.2018 09:01 16,9 °C 81 % 1007,8 hPa 0,0 mm 0,0 km/h (0 Bft) NW 326 ° 0 min 0,178 mm 1,8 UV-I 163 W/m² 13,6 °C 16,9 °C 0,0 km/h (0 Bft)
05.06.2018 09:02 16,9 °C 81 % 1007,8 hPa 0,0 mm 0,0 km/h (0 Bft) NW 326 ° 0 min 0,000 mm 1,9 UV-I 234 W/m² 13,6 °C 16,9 °C 0,0 km/h (0 Bft)
05.06.2018 09:03 16,9 °C 82 % 1007,8 hPa 0,0 mm 0,0 km/h (0 Bft) NW 326 ° 0 min 0,000 mm 1,9 UV-I 213 W/m² 13,8 °C 16,9 °C 0,0 km/h (0 Bft)
05.06.2018 09:04 17,1 °C 83 % 1007,8 hPa 0,0 mm 0,0 km/h (0 Bft) NW 326 ° 0 min 0,000 mm 2,0 UV-I 200 W/m² 14,2 °C 17,1 °C 0,0 km/h (0 Bft)
05.06.2018 09:05 17,0 °C 82 % 1007,8 hPa 0,0 mm 0,0 km/h (0 Bft) NW 326 ° 0 min 0,000 mm 2,0 UV-I 186 W/m² 13,9 °C 17,0 °C 0,0 km/h (0 Bft)
05.06.2018 09:06 16,9 °C 82 % 1007,8 hPa 0,0 mm 0,0 km/h (0 Bft) NW 326 ° 0 min 0,000 mm 1,9 UV-I 178 W/m² 13,8 °C 16,9 °C 0,0 km/h (0 Bft)
05.06.2018 09:07 16,9 °C 83 % 1007,8 hPa 0,0 mm 0,0 km/h (0 Bft) NW 326 ° 0 min 0,000 mm 1,9 UV-I 156 W/m² 14,0 °C 16,9 °C 0,0 km/h (0 Bft)
05.06.2018 09:08 16,9 °C 83 % 1007,8 hPa 0,0 mm 0,0 km/h (0 Bft) NW 326 ° 0 min 0,000 mm 1,9 UV-I 153 W/m² 14,0 °C 16,9 °C 0,0 km/h (0 Bft)
05.06.2018 09:09 16,9 °C 82 % 1007,9 hPa 0,0 mm 0,0 km/h (0 Bft) NW 326 ° 0 min 0,000 mm 2,0 UV-I 153 W/m² 13,8 °C 16,9 °C 0,0 km/h (0 Bft)
05.06.2018 09:10 16,9 °C 81 % 1007,8 hPa 0,0 mm 0,0 km/h (0 Bft) NW 326 ° 0 min 0,000 mm 2,0 UV-I 155 W/m² 13,6 °C 16,9 °C 0,0 km/h (0 Bft)
05.06.2018 09:11 17,0 °C 81 % 1007,8 hPa 0,0 mm 0,0 km/h (0 Bft) NW 326 ° 0 min 0,000 mm 2,0 UV-I 158 W/m² 13,7 °C 17,0 °C 0,0 km/h (0 Bft)
05.06.2018 09:12 17,0 °C 80 % 1007,8 hPa 0,0 mm 0,0 km/h (0 Bft) NW 326 ° 0 min 0,000 mm 2,1 UV-I 162 W/m² 13,5 °C 17,0 °C 0,0 km/h (0 Bft)
05.06.2018 09:13 17,1 °C 80 % 1007,8 hPa 0,0 mm 0,0 km/h (0 Bft) NW 326 ° 0 min 0,000 mm 2,2 UV-I 188 W/m² 13,6 °C 17,1 °C 0,0 km/h (0 Bft)
05.06.2018 09:14 17,2 °C 82 % 1007,8 hPa 0,0 mm 0,0 km/h (0 Bft) NW 326 ° 0 min 0,000 mm 3,1 UV-I 188 W/m² 14,1 °C 17,2 °C 0,0 km/h (0 Bft)
05.06.2018 09:15 17,2 °C 82 % 1007,8 hPa 0,0 mm 0,0 km/h (0 Bft) NW 326 ° 0 min 0,000 mm 3,1 UV-I 563 W/m² 14,1 °C 17,2 °C 0,0 km/h (0 Bft)
05.06.2018 09:16 17,3 °C 81 % 1007,8 hPa 0,0 mm 0,2 km/h (0 Bft) NW 326 ° 0 min 0,000 mm 3,1 UV-I 568 W/m² 14,0 °C 17,3 °C 1,6 km/h (1 Bft)
05.06.2018 09:17 17,5 °C 80 % 1007,8 hPa 0,0 mm 1,1 km/h (1 Bft) NW 326 ° 0 min 0,000 mm 3,2 UV-I 563 W/m² 14,0 °C 17,5 °C 3,2 km/h (1 Bft)
05.06.2018 09:18 17,7 °C 79 % 1007,7 hPa 0,0 mm 0,8 km/h (0 Bft) NW 326 ° 0 min 0,000 mm 3,2 UV-I 566 W/m² 14,0 °C 17,7 °C 3,2 km/h (1 Bft)
05.06.2018 09:19 17,8 °C 78 % 1007,7 hPa 0,0 mm 2,9 km/h (1 Bft) N 355 ° 0 min 0,000 mm 3,2 UV-I 508 W/m² 13,9 °C 17,8 °C 4,8 km/h (1 Bft)
05.06.2018 09:20 18,0 °C 75 % 1007,7 hPa 0,0 mm 3,0 km/h (1 Bft) N-NO 24 ° 0 min 0,000 mm 3,1 UV-I 489 W/m² 13,5 °C 18,0 °C 4,8 km/h (1 Bft)
05.06.2018 09:21 18,1 °C 79 % 1007,7 hPa 0,0 mm 2,0 km/h (1 Bft) NO 36 ° 0 min 0,000 mm 3,2 UV-I 554 W/m² 14,4 °C 18,1 °C 4,8 km/h (1 Bft)
05.06.2018 09:22 18,2 °C 78 % 1007,7 hPa 0,0 mm 3,5 km/h (1 Bft) O-NO 59 ° 0 min 0,000 mm 3,3 UV-I 561 W/m² 14,3 °C 18,2 °C 4,8 km/h (1 Bft)
05.06.2018 09:23 18,3 °C 79 % 1007,7 hPa 0,0 mm 3,4 km/h (1 Bft) O-NO 59 ° 0 min 0,000 mm 3,3 UV-I 561 W/m² 14,6 °C 18,3 °C 4,8 km/h (1 Bft)
05.06.2018 09:24 18,4 °C 76 % 1007,7 hPa 0,0 mm 1,6 km/h (1 Bft) O-NO 59 ° 0 min 0,000 mm 3,3 UV-I 564 W/m² 14,1 °C 18,4 °C 3,2 km/h (1 Bft)
05.06.2018 09:25 18,6 °C 76 % 1007,7 hPa 0,0 mm 2,9 km/h (1 Bft) O 96 ° 0 min 0,000 mm 3,3 UV-I 566 W/m² 14,3 °C 18,6 °C 4,8 km/h (1 Bft)
05.06.2018 09:26 18,6 °C 73 % 1007,7 hPa 0,0 mm 2,5 km/h (1 Bft) O-SO 114 ° 0 min 0,000 mm 3,3 UV-I 566 W/m² 13,7 °C 18,6 °C 6,4 km/h (2 Bft)
05.06.2018 09:27 18,6 °C 71 % 1007,6 hPa 0,0 mm 2,2 km/h (1 Bft) O-SO 114 ° 0 min 0,000 mm 3,4 UV-I 568 W/m² 13,2 °C 18,6 °C 3,2 km/h (1 Bft)
05.06.2018 09:28 18,6 °C 76 % 1007,7 hPa 0,0 mm 4,3 km/h (1 Bft) NO 49 ° 0 min 0,000 mm 3,4 UV-I 570 W/m² 14,3 °C 18,6 °C 6,4 km/h (2 Bft)
05.06.2018 09:29 18,8 °C 73 % 1007,6 hPa 0,0 mm 3,6 km/h (1 Bft) N-NO 18 ° 0 min 0,000 mm 3,4 UV-I 573 W/m² 13,9 °C 18,8 °C 6,4 km/h (2 Bft)
05.06.2018 09:30 19,0 °C 71 % 1007,7 hPa 0,0 mm 4,2 km/h (1 Bft) N-NO 18 ° 0 min 0,000 mm 3,4 UV-I 573 W/m² 13,6 °C 19,0 °C 6,4 km/h (2 Bft)
05.06.2018 09:31 19,1 °C 70 % 1007,7 hPa 0,0 mm 4,9 km/h (1 Bft) N 5 ° 0 min 0,000 mm 3,4 UV-I 578 W/m² 13,5 °C 19,1 °C 6,4 km/h (2 Bft)
05.06.2018 09:32 19,2 °C 71 % 1007,7 hPa 0,0 mm 0,9 km/h (0 Bft) N 5 ° 0 min 0,000 mm 3,5 UV-I 582 W/m² 13,8 °C 19,2 °C 1,6 km/h (1 Bft)
05.06.2018 09:33 19,3 °C 72 % 1007,7 hPa 0,0 mm 3,2 km/h (1 Bft) O-NO 57 ° 0 min 0,000 mm 3,5 UV-I 584 W/m² 14,1 °C 19,3 °C 6,4 km/h (2 Bft)
05.06.2018 09:34 19,2 °C 70 % 1007,7 hPa 0,0 mm 3,1 km/h (1 Bft) NO 44 ° 0 min 0,000 mm 3,5 UV-I 584 W/m² 13,6 °C 19,2 °C 4,8 km/h (1 Bft)
05.06.2018 09:35 19,2 °C 69 % 1007,7 hPa 0,0 mm 3,6 km/h (1 Bft) N-NO 25 ° 0 min 0,000 mm 3,5 UV-I 587 W/m² 13,4 °C 19,2 °C 6,4 km/h (2 Bft)
05.06.2018 09:36 19,2 °C 69 % 1007,7 hPa 0,0 mm 2,3 km/h (1 Bft) N-NO 24 ° 0 min 0,000 mm 3,6 UV-I 591 W/m² 13,4 °C 19,2 °C 4,8 km/h (1 Bft)
05.06.2018 09:37 19,3 °C 70 % 1007,7 hPa 0,0 mm 2,8 km/h (1 Bft) O-NO 70 ° 0 min 0,000 mm 3,6 UV-I 599 W/m² 13,7 °C 19,3 °C 4,8 km/h (1 Bft)
05.06.2018 09:38 19,2 °C 70 % 1007,7 hPa 0,0 mm 3,5 km/h (1 Bft) O-NO 70 ° 1 min 0,000 mm 3,6 UV-I 601 W/m² 13,6 °C 19,2 °C 4,8 km/h (1 Bft)
05.06.2018 09:39 19,2 °C 69 % 1007,7 hPa 0,0 mm 0,8 km/h (0 Bft) O-NO 70 ° 1 min 0,000 mm 3,7 UV-I 603 W/m² 13,4 °C 19,2 °C 3,2 km/h (1 Bft)
05.06.2018 09:40 19,2 °C 71 % 1007,7 hPa 0,0 mm 0,0 km/h (0 Bft) O-NO 70 ° 1 min 0,000 mm 3,7 UV-I 606 W/m² 13,8 °C 19,2 °C 0,0 km/h (0 Bft)
05.06.2018 09:41 19,3 °C 70 % 1007,7 hPa 0,0 mm 6,6 km/h (2 Bft) N 10 ° 1 min 0,000 mm 3,7 UV-I 608 W/m² 13,7 °C 19,3 °C 8,0 km/h (2 Bft)
05.06.2018 09:42 19,4 °C 69 % 1007,7 hPa 0,0 mm 2,1 km/h (1 Bft) N 5 ° 1 min 0,000 mm 3,7 UV-I 610 W/m² 13,6 °C 19,4 °C 4,8 km/h (1 Bft)
05.06.2018 09:43 19,5 °C 70 % 1007,7 hPa 0,0 mm 3,3 km/h (1 Bft) NO 47 ° 1 min 0,000 mm 3,7 UV-I 610 W/m² 13,9 °C 19,5 °C 6,4 km/h (2 Bft)
05.06.2018 09:44 19,5 °C 70 % 1007,7 hPa 0,0 mm 2,3 km/h (1 Bft) NO 47 ° 1 min 0,000 mm 3,8 UV-I 613 W/m² 13,9 °C 19,5 °C 3,2 km/h (1 Bft)
05.06.2018 09:45 19,4 °C 70 % 1007,7 hPa 0,0 mm 1,5 km/h (1 Bft) N-NO 14 ° 1 min 0,000 mm 3,8 UV-I 613 W/m² 13,8 °C 19,4 °C 4,8 km/h (1 Bft)
05.06.2018 09:46 19,5 °C 69 % 1007,7 hPa 0,0 mm 5,0 km/h (1 Bft) N 355 ° 1 min 0,000 mm 3,8 UV-I 617 W/m² 13,7 °C 19,5 °C 6,4 km/h (2 Bft)
05.06.2018 09:47 19,6 °C 68 % 1007,7 hPa 0,0 mm 2,8 km/h (1 Bft) N 355 ° 1 min 0,000 mm 3,8 UV-I 619 W/m² 13,5 °C 19,6 °C 4,8 km/h (1 Bft)
05.06.2018 09:48 19,7 °C 69 % 1007,7 hPa 0,0 mm 3,7 km/h (1 Bft) N 355 ° 1 min 0,000 mm 3,8 UV-I 621 W/m² 13,8 °C 19,7 °C 6,4 km/h (2 Bft)
05.06.2018 09:49 19,7 °C 69 % 1007,6 hPa 0,0 mm 1,7 km/h (1 Bft) N 355 ° 1 min 0,000 mm 3,8 UV-I 624 W/m² 13,8 °C 19,7 °C 3,2 km/h (1 Bft)
05.06.2018 09:50 19,7 °C 67 % 1007,6 hPa 0,0 mm 0,4 km/h (0 Bft) N 355 ° 1 min 0,000 mm 3,9 UV-I 628 W/m² 13,4 °C 19,7 °C 1,6 km/h (1 Bft)
05.06.2018 09:51 19,6 °C 67 % 1007,6 hPa 0,0 mm 1,6 km/h (1 Bft) N 360 ° 1 min 0,000 mm 3,9 UV-I 633 W/m² 13,3 °C 19,6 °C 4,8 km/h (1 Bft)
05.06.2018 09:52 19,7 °C 69 % 1007,6 hPa 0,0 mm 0,1 km/h (0 Bft) N 360 ° 1 min 0,000 mm 4,0 UV-I 636 W/m² 13,8 °C 19,7 °C 1,6 km/h (1 Bft)
05.06.2018 09:53 19,7 °C 70 % 1007,6 hPa 0,0 mm 3,2 km/h (1 Bft) N 11 ° 1 min 0,000 mm 4,0 UV-I 640 W/m² 14,1 °C 19,7 °C 8,0 km/h (2 Bft)
05.06.2018 09:54 19,8 °C 69 % 1007,6 hPa 0,0 mm 4,7 km/h (1 Bft) N 9 ° 1 min 0,000 mm 4,0 UV-I 640 W/m² 13,9 °C 19,8 °C 6,4 km/h (2 Bft)
05.06.2018 09:55 19,9 °C 69 % 1007,6 hPa 0,0 mm 5,9 km/h (2 Bft) N 355 ° 1 min 0,000 mm 4,1 UV-I 650 W/m² 14,0 °C 19,9 °C 8,0 km/h (2 Bft)
05.06.2018 09:56 20,0 °C 68 % 1007,6 hPa 0,0 mm 4,0 km/h (1 Bft) N 360 ° 1 min 0,000 mm 4,1 UV-I 656 W/m² 13,9 °C 20,0 °C 6,4 km/h (2 Bft)
05.06.2018 09:57 20,0 °C 68 % 1007,5 hPa 0,0 mm 3,2 km/h (1 Bft) N 360 ° 1 min 0,000 mm 4,1 UV-I 657 W/m² 13,9 °C 20,0 °C 4,8 km/h (1 Bft)
05.06.2018 09:58 19,9 °C 68 % 1007,6 hPa 0,0 mm 3,3 km/h (1 Bft) N 11 ° 1 min 0,000 mm 4,1 UV-I 663 W/m² 13,8 °C 19,9 °C 4,8 km/h (1 Bft)
05.06.2018 09:59 19,8 °C 68 % 1007,6 hPa 0,0 mm 0,5 km/h (0 Bft) N 11 ° 1 min 0,000 mm 4,1 UV-I 666 W/m² 13,7 °C 19,8 °C 1,6 km/h (1 Bft)
05.06.2018 10:00 19,8 °C 69 % 1007,6 hPa 0,0 mm 2,3 km/h (1 Bft) NW 325 ° 1 min 0,000 mm 4,2 UV-I 666 W/m² 13,9 °C 19,8 °C 9,7 km/h (2 Bft)
05.06.2018 10:01 19,9 °C 71 % 1007,6 hPa 0,0 mm 5,2 km/h (1 Bft) N-NW 342 ° 1 min 0,279 mm 4,2 UV-I 666 W/m² 14,5 °C 19,9 °C 8,0 km/h (2 Bft)
05.06.2018 10:02 20,0 °C 70 % 1007,6 hPa 0,0 mm 3,9 km/h (1 Bft) NW 321 ° 1 min 0,000 mm 4,2 UV-I 668 W/m² 14,4 °C 20,0 °C 6,4 km/h (2 Bft)
05.06.2018 10:03 20,1 °C 69 % 1007,6 hPa 0,0 mm 3,7 km/h (1 Bft) NW 312 ° 1 min 0,000 mm 4,2 UV-I 664 W/m² 14,2 °C 20,1 °C 4,8 km/h (1 Bft)
05.06.2018 10:04 20,2 °C 69 % 1007,6 hPa 0,0 mm 4,3 km/h (1 Bft) NW 312 ° 1 min 0,000 mm 4,2 UV-I 663 W/m² 14,3 °C 20,2 °C 6,4 km/h (2 Bft)
05.06.2018 10:05 20,3 °C 69 % 1007,6 hPa 0,0 mm 2,6 km/h (1 Bft) N-NW 328 ° 1 min 0,000 mm 4,3 UV-I 671 W/m² 14,4 °C 20,3 °C 4,8 km/h (1 Bft)
05.06.2018 10:06 20,3 °C 69 % 1007,5 hPa 0,0 mm 1,6 km/h (1 Bft) N 355 ° 1 min 0,000 mm 4,3 UV-I 671 W/m² 14,4 °C 20,3 °C 4,8 km/h (1 Bft)
05.06.2018 10:07 20,4 °C 70 % 1007,6 hPa 0,0 mm 3,5 km/h (1 Bft) N 360 ° 1 min 0,000 mm 4,3 UV-I 673 W/m² 14,7 °C 20,4 °C 6,4 km/h (2 Bft)
05.06.2018 10:08 20,7 °C 71 % 1007,6 hPa 0,0 mm 6,3 km/h (2 Bft) N-NO 15 ° 1 min 0,000 mm 4,3 UV-I 673 W/m² 15,2 °C 20,7 °C 12,9 km/h (3 Bft)
05.06.2018 10:09 20,6 °C 65 % 1007,6 hPa 0,0 mm 7,3 km/h (2 Bft) N-NO 15 ° 1 min 0,000 mm 4,4 UV-I 673 W/m² 13,8 °C 20,6 °C 11,3 km/h (2 Bft)
05.06.2018 10:10 20,4 °C 66 % 1007,6 hPa 0,0 mm 5,0 km/h (1 Bft) N-NO 20 ° 1 min 0,000 mm 4,4 UV-I 677 W/m² 13,8 °C 20,4 °C 8,0 km/h (2 Bft)
05.06.2018 10:11 20,3 °C 68 % 1007,6 hPa 0,0 mm 2,6 km/h (1 Bft) N-NO 20 ° 1 min 0,000 mm 4,4 UV-I 670 W/m² 14,2 °C 20,3 °C 4,8 km/h (1 Bft)
05.06.2018 10:12 20,3 °C 72 % 1007,6 hPa 0,0 mm 3,0 km/h (1 Bft) N-NO 22 ° 1 min 0,000 mm 4,4 UV-I 673 W/m² 15,1 °C 20,3 °C 4,8 km/h (1 Bft)
05.06.2018 10:13 20,2 °C 67 % 1007,6 hPa 0,0 mm 3,4 km/h (1 Bft) N-NO 27 ° 1 min 0,000 mm 4,4 UV-I 675 W/m² 13,9 °C 20,2 °C 4,8 km/h (1 Bft)
05.06.2018 10:14 20,2 °C 69 % 1007,6 hPa 0,0 mm 1,8 km/h (1 Bft) N-NO 26 ° 1 min 0,000 mm 4,4 UV-I 673 W/m² 14,3 °C 20,2 °C 4,8 km/h (1 Bft)
05.06.2018 10:15 20,1 °C 67 % 1007,7 hPa 0,0 mm 0,3 km/h (0 Bft) N-NO 26 ° 1 min 0,000 mm 4,5 UV-I 680 W/m² 13,8 °C 20,1 °C 3,2 km/h (1 Bft)
05.06.2018 10:16 20,1 °C 67 % 1007,7 hPa 0,0 mm 1,4 km/h (1 Bft) N-NO 26 ° 1 min 0,000 mm 4,5 UV-I 687 W/m² 13,8 °C 20,1 °C 4,8 km/h (1 Bft)
05.06.2018 10:17 20,1 °C 68 % 1007,6 hPa 0,0 mm 2,7 km/h (1 Bft) N-NO 27 ° 1 min 0,000 mm 4,5 UV-I 687 W/m² 14,0 °C 20,1 °C 4,8 km/h (1 Bft)
05.06.2018 10:18 20,1 °C 68 % 1007,6 hPa 0,0 mm 3,1 km/h (1 Bft) N-NO 27 ° 1 min 0,000 mm 4,5 UV-I 696 W/m² 14,0 °C 20,1 °C 4,8 km/h (1 Bft)
05.06.2018 10:19 20,2 °C 68 % 1007,6 hPa 0,0 mm 1,6 km/h (1 Bft) N 349 ° 1 min 0,000 mm 4,6 UV-I 698 W/m² 14,1 °C 20,2 °C 4,8 km/h (1 Bft)
05.06.2018 10:20 20,3 °C 69 % 1007,6 hPa 0,0 mm 5,9 km/h (2 Bft) N 351 ° 1 min 0,000 mm 4,6 UV-I 698 W/m² 14,4 °C 20,3 °C 8,0 km/h (2 Bft)
05.06.2018 10:21 20,3 °C 67 % 1007,6 hPa 0,0 mm 4,2 km/h (1 Bft) N-NW 348 ° 1 min 0,000 mm 4,6 UV-I 701 W/m² 14,0 °C 20,3 °C 4,8 km/h (1 Bft)
05.06.2018 10:22 20,4 °C 66 % 1007,7 hPa 0,0 mm 3,1 km/h (1 Bft) N 9 ° 1 min 0,000 mm 4,6 UV-I 698 W/m² 13,8 °C 20,4 °C 4,8 km/h (1 Bft)
05.06.2018 10:23 20,3 °C 65 % 1007,7 hPa 0,0 mm 2,0 km/h (1 Bft) N 9 ° 1 min 0,000 mm 4,6 UV-I 680 W/m² 13,5 °C 20,3 °C 3,2 km/h (1 Bft)
05.06.2018 10:24 20,3 °C 65 % 1007,6 hPa 0,0 mm 2,4 km/h (1 Bft) N-NO 15 ° 1 min 0,000 mm 4,6 UV-I 708 W/m² 13,5 °C 20,3 °C 3,2 km/h (1 Bft)
05.06.2018 10:25 20,2 °C 67 % 1007,7 hPa 0,0 mm 2,5 km/h (1 Bft) N-NO 16 ° 1 min 0,000 mm 4,7 UV-I 710 W/m² 13,9 °C 20,2 °C 4,8 km/h (1 Bft)
05.06.2018 10:26 20,1 °C 67 % 1007,7 hPa 0,0 mm 4,7 km/h (1 Bft) NO 53 ° 1 min 0,000 mm 4,7 UV-I 715 W/m² 13,8 °C 20,1 °C 6,4 km/h (2 Bft)
05.06.2018 10:27 20,0 °C 66 % 1007,7 hPa 0,0 mm 0,5 km/h (0 Bft) NO 53 ° 1 min 0,000 mm 4,7 UV-I 721 W/m² 13,4 °C 20,0 °C 3,2 km/h (1 Bft)
05.06.2018 10:28 19,9 °C 67 % 1007,7 hPa 0,0 mm 0,1 km/h (0 Bft) NO 53 ° 1 min 0,000 mm 4,8 UV-I 726 W/m² 13,6 °C 19,9 °C 1,6 km/h (1 Bft)
05.06.2018 10:29 19,9 °C 68 % 1007,7 hPa 0,0 mm 0,1 km/h (0 Bft) NO 53 ° 1 min 0,000 mm 4,8 UV-I 733 W/m² 13,8 °C 19,9 °C 1,6 km/h (1 Bft)
05.06.2018 10:30 19,9 °C 67 % 1007,7 hPa 0,0 mm 0,0 km/h (0 Bft) NO 53 ° 1 min 0,000 mm 4,8 UV-I 733 W/m² 13,6 °C 19,9 °C 0,0 km/h (0 Bft)
05.06.2018 10:31 20,0 °C 69 % 1007,7 hPa 0,0 mm 0,0 km/h (0 Bft) NO 53 ° 1 min 0,000 mm 4,9 UV-I 737 W/m² 14,1 °C 20,0 °C 0,0 km/h (0 Bft)
05.06.2018 10:32 20,2 °C 69 % 1007,6 hPa 0,0 mm 0,3 km/h (0 Bft) NO 53 ° 1 min 0,000 mm 4,9 UV-I 731 W/m² 14,3 °C 20,2 °C 1,6 km/h (1 Bft)
05.06.2018 10:33 20,3 °C 69 % 1007,7 hPa 0,0 mm 2,3 km/h (1 Bft) NO 51 ° 1 min 0,000 mm 4,8 UV-I 721 W/m² 14,4 °C 20,3 °C 3,2 km/h (1 Bft)
05.06.2018 10:34 20,4 °C 69 % 1007,6 hPa 0,0 mm 2,3 km/h (1 Bft) N-NO 32 ° 1 min 0,000 mm 4,1 UV-I 721 W/m² 14,5 °C 20,4 °C 3,2 km/h (1 Bft)
05.06.2018 10:35 20,6 °C 69 % 1007,6 hPa 0,0 mm 4,5 km/h (1 Bft) NW 319 ° 1 min 0,000 mm 3,7 UV-I 721 W/m² 14,7 °C 20,6 °C 6,4 km/h (2 Bft)
05.06.2018 10:36 20,7 °C 69 % 1007,7 hPa 0,0 mm 5,3 km/h (1 Bft) W-NW 295 ° 0 min 0,000 mm 4,0 UV-I 431 W/m² 14,8 °C 20,7 °C 8,0 km/h (2 Bft)
05.06.2018 10:37 20,6 °C 68 % 1007,6 hPa 0,0 mm 3,2 km/h (1 Bft) W-NW 293 ° 0 min 0,000 mm 4,5 UV-I 431 W/m² 14,5 °C 20,6 °C 4,8 km/h (1 Bft)
05.06.2018 10:38 20,6 °C 69 % 1007,6 hPa 0,0 mm 2,1 km/h (1 Bft) W-NW 293 ° 0 min 0,000 mm 5,0 UV-I 431 W/m² 14,7 °C 20,6 °C 3,2 km/h (1 Bft)
05.06.2018 10:39 20,6 °C 68 % 1007,6 hPa 0,0 mm 6,5 km/h (2 Bft) N-NW 329 ° 1 min 0,000 mm 5,0 UV-I 756 W/m² 14,5 °C 20,6 °C 12,9 km/h (3 Bft)
05.06.2018 10:40 20,7 °C 69 % 1007,6 hPa 0,0 mm 1,1 km/h (1 Bft) N-NW 329 ° 1 min 0,000 mm 5,0 UV-I 768 W/m² 14,8 °C 20,7 °C 4,8 km/h (1 Bft)
05.06.2018 10:41 20,7 °C 67 % 1007,7 hPa 0,0 mm 0,5 km/h (0 Bft) N-NW 329 ° 1 min 0,000 mm 5,0 UV-I 768 W/m² 14,3 °C 20,7 °C 1,6 km/h (1 Bft)
05.06.2018 10:42 20,8 °C 70 % 1007,6 hPa 0,0 mm 1,1 km/h (1 Bft) N-NW 329 ° 1 min 0,000 mm 5,1 UV-I 780 W/m² 15,1 °C 20,8 °C 3,2 km/h (1 Bft)
05.06.2018 10:43 20,9 °C 68 % 1007,7 hPa 0,0 mm 2,6 km/h (1 Bft) NW 304 ° 1 min 0,000 mm 5,2 UV-I 782 W/m² 14,8 °C 20,9 °C 4,8 km/h (1 Bft)
05.06.2018 10:44 21,0 °C 68 % 1007,7 hPa 0,0 mm 0,9 km/h (0 Bft) NW 304 ° 1 min 0,000 mm 5,2 UV-I 786 W/m² 14,9 °C 21,0 °C 1,6 km/h (1 Bft)
05.06.2018 10:45 21,1 °C 68 % 1007,7 hPa 0,0 mm 3,1 km/h (1 Bft) N-NW 342 ° 1 min 0,000 mm 5,2 UV-I 782 W/m² 15,0 °C 21,1 °C 6,4 km/h (2 Bft)
05.06.2018 10:46 21,1 °C 66 % 1007,6 hPa 0,0 mm 4,6 km/h (1 Bft) N-NW 344 ° 1 min 0,000 mm 5,2 UV-I 786 W/m² 14,5 °C 21,1 °C 6,4 km/h (2 Bft)
05.06.2018 10:47 20,9 °C 63 % 1007,7 hPa 0,0 mm 3,3 km/h (1 Bft) N 360 ° 1 min 0,000 mm 5,2 UV-I 773 W/m² 13,6 °C 20,9 °C 4,8 km/h (1 Bft)
05.06.2018 10:48 20,8 °C 65 % 1007,7 hPa 0,0 mm 1,4 km/h (1 Bft) N 360 ° 1 min 0,000 mm 5,3 UV-I 798 W/m² 14,0 °C 20,8 °C 3,2 km/h (1 Bft)
05.06.2018 10:49 20,9 °C 68 % 1007,6 hPa 0,0 mm 5,1 km/h (1 Bft) NW 319 ° 1 min 0,000 mm 5,4 UV-I 807 W/m² 14,8 °C 20,9 °C 6,4 km/h (2 Bft)
05.06.2018 10:50 21,1 °C 65 % 1007,7 hPa 0,0 mm 5,1 km/h (1 Bft) NW 317 ° 1 min 0,000 mm 5,4 UV-I 809 W/m² 14,3 °C 21,1 °C 6,4 km/h (2 Bft)
05.06.2018 10:51 21,1 °C 66 % 1007,7 hPa 0,0 mm 4,9 km/h (1 Bft) N-NW 337 ° 1 min 0,000 mm 5,2 UV-I 729 W/m² 14,5 °C 21,1 °C 8,0 km/h (2 Bft)
05.06.2018 10:52 21,1 °C 65 % 1007,7 hPa 0,0 mm 2,3 km/h (1 Bft) N-NW 336 ° 1 min 0,000 mm 5,4 UV-I 805 W/m² 14,3 °C 21,1 °C 6,4 km/h (2 Bft)
05.06.2018 10:53 21,1 °C 67 % 1007,6 hPa 0,0 mm 3,1 km/h (1 Bft) N-NW 335 ° 1 min 0,000 mm 5,4 UV-I 802 W/m² 14,7 °C 21,1 °C 4,8 km/h (1 Bft)
05.06.2018 10:54 20,9 °C 65 % 1007,6 hPa 0,0 mm 2,0 km/h (1 Bft) N-NW 335 ° 1 min 0,000 mm 5,4 UV-I 798 W/m² 14,1 °C 20,9 °C 4,8 km/h (1 Bft)
05.06.2018 10:55 21,0 °C 70 % 1007,6 hPa 0,0 mm 1,5 km/h (1 Bft) NW 321 ° 1 min 0,000 mm 5,2 UV-I 788 W/m² 15,3 °C 21,0 °C 3,2 km/h (1 Bft)
05.06.2018 10:56 20,9 °C 67 % 1007,6 hPa 0,0 mm 3,3 km/h (1 Bft) NW 319 ° 1 min 0,000 mm 3,8 UV-I 788 W/m² 14,5 °C 20,9 °C 4,8 km/h (1 Bft)
05.06.2018 10:57 20,8 °C 66 % 1007,6 hPa 0,0 mm 1,9 km/h (1 Bft) NW 319 ° 0 min 0,000 mm 4,1 UV-I 348 W/m² 14,2 °C 20,8 °C 3,2 km/h (1 Bft)
05.06.2018 10:58 20,8 °C 66 % 1007,6 hPa 0,0 mm 3,9 km/h (1 Bft) N-NW 334 ° 0 min 0,000 mm 5,1 UV-I 348 W/m² 14,2 °C 20,8 °C 4,8 km/h (1 Bft)
05.06.2018 10:59 20,8 °C 67 % 1007,6 hPa 0,0 mm 2,6 km/h (1 Bft) N 355 ° 0 min 0,000 mm 5,4 UV-I 348 W/m² 14,4 °C 20,8 °C 4,8 km/h (1 Bft)
05.06.2018 11:00 20,8 °C 68 % 1007,6 hPa 0,0 mm 2,7 km/h (1 Bft) O-NO 66 ° 1 min 0,407 mm 5,4 UV-I 779 W/m² 14,7 °C 20,8 °C 6,4 km/h (2 Bft)
05.06.2018 11:01 20,8 °C 67 % 1007,6 hPa 0,0 mm 3,1 km/h (1 Bft) O-NO 74 ° 1 min 0,000 mm 5,5 UV-I 775 W/m² 14,4 °C 20,8 °C 6,4 km/h (2 Bft)
05.06.2018 11:02 20,8 °C 67 % 1007,6 hPa 0,0 mm 2,3 km/h (1 Bft) O-NO 74 ° 1 min 0,000 mm 5,5 UV-I 773 W/m² 14,4 °C 20,8 °C 3,2 km/h (1 Bft)
05.06.2018 11:03 20,7 °C 65 % 1007,6 hPa 0,0 mm 5,0 km/h (1 Bft) O-NO 69 ° 1 min 0,000 mm 5,5 UV-I 773 W/m² 13,9 °C 20,7 °C 8,0 km/h (2 Bft)
05.06.2018 11:04 20,7 °C 68 % 1007,6 hPa 0,0 mm 2,1 km/h (1 Bft) N-NW 344 ° 1 min 0,000 mm 5,5 UV-I 754 W/m² 14,6 °C 20,7 °C 4,8 km/h (1 Bft)
05.06.2018 11:05 20,8 °C 69 % 1007,6 hPa 0,0 mm 2,1 km/h (1 Bft) N-NW 338 ° 1 min 0,000 mm 5,4 UV-I 754 W/m² 14,9 °C 20,8 °C 4,8 km/h (1 Bft)
05.06.2018 11:06 21,0 °C 68 % 1007,6 hPa 0,0 mm 3,7 km/h (1 Bft) N 360 ° 1 min 0,000 mm 5,5 UV-I 772 W/m² 14,9 °C 21,0 °C 4,8 km/h (1 Bft)
05.06.2018 11:07 20,9 °C 65 % 1007,6 hPa 0,0 mm 2,3 km/h (1 Bft) NW 324 ° 1 min 0,000 mm 5,6 UV-I 789 W/m² 14,1 °C 20,9 °C 4,8 km/h (1 Bft)
05.06.2018 11:08 21,0 °C 68 % 1007,6 hPa 0,0 mm 3,9 km/h (1 Bft) W-NW 285 ° 1 min 0,000 mm 5,6 UV-I 798 W/m² 14,9 °C 21,0 °C 4,8 km/h (1 Bft)
05.06.2018 11:09 21,1 °C 69 % 1007,6 hPa 0,0 mm 6,3 km/h (2 Bft) W 261 ° 1 min 0,000 mm 5,6 UV-I 800 W/m² 15,2 °C 21,1 °C 9,7 km/h (2 Bft)
05.06.2018 11:10 21,2 °C 70 % 1007,6 hPa 0,0 mm 4,6 km/h (1 Bft) W-SW 248 ° 1 min 0,000 mm 5,6 UV-I 802 W/m² 15,5 °C 21,2 °C 6,4 km/h (2 Bft)
05.06.2018 11:11 21,3 °C 69 % 1007,6 hPa 0,0 mm 3,9 km/h (1 Bft) NW 317 ° 1 min 0,000 mm 5,6 UV-I 796 W/m² 15,4 °C 21,3 °C 4,8 km/h (1 Bft)
05.06.2018 11:12 21,4 °C 68 % 1007,6 hPa 0,0 mm 5,6 km/h (1 Bft) N 5 ° 1 min 0,000 mm 5,6 UV-I 798 W/m² 15,2 °C 21,4 °C 8,0 km/h (2 Bft)
05.06.2018 11:13 21,3 °C 64 % 1007,6 hPa 0,0 mm 3,4 km/h (1 Bft) NO 45 ° 1 min 0,000 mm 5,7 UV-I 800 W/m² 14,2 °C 21,3 °C 4,8 km/h (1 Bft)
05.06.2018 11:14 21,1 °C 64 % 1007,6 hPa 0,0 mm 1,3 km/h (1 Bft) NO 34 ° 1 min 0,000 mm 5,7 UV-I 805 W/m² 14,0 °C 21,1 °C 3,2 km/h (1 Bft)
05.06.2018 11:15 21,0 °C 66 % 1007,6 hPa 0,0 mm 2,5 km/h (1 Bft) N-NO 28 ° 1 min 0,000 mm 5,8 UV-I 810 W/m² 14,4 °C 21,0 °C 4,8 km/h (1 Bft)
05.06.2018 11:16 21,1 °C 67 % 1007,6 hPa 0,0 mm 0,9 km/h (0 Bft) N-NO 28 ° 1 min 0,000 mm 5,8 UV-I 816 W/m² 14,7 °C 21,1 °C 1,6 km/h (1 Bft)
05.06.2018 11:17 21,3 °C 67 % 1007,6 hPa 0,0 mm 2,4 km/h (1 Bft) NW 323 ° 1 min 0,000 mm 5,8 UV-I 814 W/m² 14,9 °C 21,3 °C 8,0 km/h (2 Bft)
05.06.2018 11:18 21,5 °C 67 % 1007,6 hPa 0,0 mm 5,2 km/h (1 Bft) NW 321 ° 1 min 0,000 mm 5,9 UV-I 817 W/m² 15,1 °C 21,5 °C 6,4 km/h (2 Bft)
05.06.2018 11:19 21,6 °C 65 % 1007,6 hPa 0,0 mm 2,2 km/h (1 Bft) NW 321 ° 1 min 0,000 mm 5,9 UV-I 817 W/m² 14,7 °C 21,6 °C 4,8 km/h (1 Bft)
05.06.2018 11:20 21,6 °C 64 % 1007,6 hPa 0,0 mm 2,2 km/h (1 Bft) NW 321 ° 1 min 0,000 mm 5,9 UV-I 816 W/m² 14,5 °C 21,6 °C 3,2 km/h (1 Bft)
05.06.2018 11:21 21,5 °C 66 % 1007,6 hPa 0,0 mm 2,0 km/h (1 Bft) NO 39 ° 1 min 0,000 mm 5,9 UV-I 817 W/m² 14,9 °C 21,5 °C 4,8 km/h (1 Bft)
05.06.2018 11:22 21,4 °C 65 % 1007,6 hPa 0,0 mm 5,1 km/h (1 Bft) NO 49 ° 1 min 0,000 mm 5,9 UV-I 819 W/m² 14,5 °C 21,4 °C 8,0 km/h (2 Bft)
05.06.2018 11:23 21,3 °C 65 % 1007,6 hPa 0,0 mm 3,6 km/h (1 Bft) O-NO 61 ° 1 min 0,000 mm 5,9 UV-I 821 W/m² 14,4 °C 21,3 °C 4,8 km/h (1 Bft)
05.06.2018 11:24 21,2 °C 63 % 1007,6 hPa 0,0 mm 1,7 km/h (1 Bft) O-NO 61 ° 1 min 0,000 mm 5,9 UV-I 821 W/m² 13,9 °C 21,2 °C 3,2 km/h (1 Bft)
05.06.2018 11:25 21,1 °C 68 % 1007,6 hPa 0,0 mm 2,0 km/h (1 Bft) O-NO 58 ° 1 min 0,000 mm 5,9 UV-I 824 W/m² 15,0 °C 21,1 °C 4,8 km/h (1 Bft)
05.06.2018 11:26 21,1 °C 67 % 1007,6 hPa 0,0 mm 4,1 km/h (1 Bft) NO 55 ° 1 min 0,000 mm 6,0 UV-I 826 W/m² 14,7 °C 21,1 °C 8,0 km/h (2 Bft)
05.06.2018 11:27 21,1 °C 65 % 1007,7 hPa 0,0 mm 1,8 km/h (1 Bft) NO 55 ° 1 min 0,000 mm 6,0 UV-I 830 W/m² 14,3 °C 21,1 °C 3,2 km/h (1 Bft)
05.06.2018 11:28 20,9 °C 64 % 1007,6 hPa 0,0 mm 2,4 km/h (1 Bft) O-NO 61 ° 1 min 0,000 mm 6,0 UV-I 833 W/m² 13,8 °C 20,9 °C 4,8 km/h (1 Bft)
05.06.2018 11:29 21,1 °C 67 % 1007,6 hPa 0,0 mm 4,2 km/h (1 Bft) S-SW 194 ° 1 min 0,000 mm 6,0 UV-I 831 W/m² 14,7 °C 21,1 °C 6,4 km/h (2 Bft)
05.06.2018 11:30 21,1 °C 65 % 1007,6 hPa 0,0 mm 0,7 km/h (0 Bft) S-SW 194 ° 1 min 0,000 mm 6,1 UV-I 831 W/m² 14,3 °C 21,1 °C 3,2 km/h (1 Bft)
05.06.2018 11:31 21,2 °C 64 % 1007,6 hPa 0,0 mm 0,0 km/h (0 Bft) S-SW 194 ° 1 min 0,000 mm 6,1 UV-I 833 W/m² 14,1 °C 21,2 °C 0,0 km/h (0 Bft)
05.06.2018 11:32 21,4 °C 69 % 1007,6 hPa 0,0 mm 0,1 km/h (0 Bft) S-SW 194 ° 1 min 0,000 mm 6,1 UV-I 833 W/m² 15,5 °C 21,4 °C 1,6 km/h (1 Bft)
05.06.2018 11:33 21,6 °C 65 % 1007,6 hPa 0,0 mm 1,2 km/h (1 Bft) W-NW 290 ° 1 min 0,000 mm 6,1 UV-I 837 W/m² 14,7 °C 21,6 °C 3,2 km/h (1 Bft)
05.06.2018 11:34 21,8 °C 67 % 1007,6 hPa 0,0 mm 5,7 km/h (1 Bft) N-NW 331 ° 1 min 0,000 mm 6,1 UV-I 837 W/m² 15,4 °C 21,8 °C 9,7 km/h (2 Bft)
05.06.2018 11:35 21,8 °C 64 % 1007,6 hPa 0,0 mm 7,7 km/h (2 Bft) W 276 ° 1 min 0,000 mm 6,1 UV-I 838 W/m² 14,7 °C 21,8 °C 9,7 km/h (2 Bft)
05.06.2018 11:36 21,8 °C 65 % 1007,6 hPa 0,0 mm 7,4 km/h (2 Bft) NW 314 ° 1 min 0,000 mm 6,2 UV-I 846 W/m² 14,9 °C 21,8 °C 11,3 km/h (2 Bft)
05.06.2018 11:37 21,8 °C 66 % 1007,5 hPa 0,0 mm 3,8 km/h (1 Bft) NW 307 ° 1 min 0,000 mm 6,2 UV-I 847 W/m² 15,2 °C 21,8 °C 8,0 km/h (2 Bft)
05.06.2018 11:38 21,8 °C 65 % 1007,5 hPa 0,0 mm 2,6 km/h (1 Bft) W 271 ° 1 min 0,000 mm 6,2 UV-I 846 W/m² 14,9 °C 21,8 °C 4,8 km/h (1 Bft)
05.06.2018 11:39 21,8 °C 68 % 1007,5 hPa 0,0 mm 3,1 km/h (1 Bft) W-NW 290 ° 1 min 0,000 mm 6,2 UV-I 849 W/m² 15,6 °C 21,8 °C 4,8 km/h (1 Bft)
05.06.2018 11:40 21,9 °C 69 % 1007,5 hPa 0,0 mm 6,4 km/h (2 Bft) N-NW 329 ° 1 min 0,000 mm 6,3 UV-I 860 W/m² 15,9 °C 21,9 °C 8,0 km/h (2 Bft)
05.06.2018 11:41 22,1 °C 68 % 1007,5 hPa 0,0 mm 4,1 km/h (1 Bft) N-NW 344 ° 1 min 0,000 mm 6,2 UV-I 846 W/m² 15,9 °C 22,1 °C 9,7 km/h (2 Bft)
05.06.2018 11:42 22,3 °C 67 % 1007,5 hPa 0,0 mm 4,9 km/h (1 Bft) NO 51 ° 1 min 0,000 mm 6,3 UV-I 849 W/m² 15,9 °C 22,3 °C 8,0 km/h (2 Bft)
05.06.2018 11:43 22,2 °C 66 % 1007,5 hPa 0,0 mm 3,0 km/h (1 Bft) N-NO 17 ° 1 min 0,000 mm 6,3 UV-I 853 W/m² 15,5 °C 22,2 °C 4,8 km/h (1 Bft)
05.06.2018 11:44 22,2 °C 64 % 1007,5 hPa 0,0 mm 2,4 km/h (1 Bft) O 92 ° 1 min 0,000 mm 6,3 UV-I 861 W/m² 15,1 °C 22,2 °C 9,7 km/h (2 Bft)
05.06.2018 11:45 22,1 °C 65 % 1007,5 hPa 0,0 mm 3,9 km/h (1 Bft) O 91 ° 1 min 0,000 mm 6,3 UV-I 900 W/m² 15,2 °C 22,1 °C 9,7 km/h (2 Bft)
05.06.2018 11:46 22,0 °C 63 % 1007,5 hPa 0,0 mm 0,5 km/h (0 Bft) O 91 ° 1 min 0,000 mm 5,9 UV-I 900 W/m² 14,6 °C 22,0 °C 1,6 km/h (1 Bft)
05.06.2018 11:47 21,9 °C 64 % 1007,5 hPa 0,0 mm 0,5 km/h (0 Bft) O 91 ° 0 min 0,000 mm 5,5 UV-I 322 W/m² 14,8 °C 21,9 °C 1,6 km/h (1 Bft)
05.06.2018 11:48 21,9 °C 67 % 1007,5 hPa 0,0 mm 3,2 km/h (1 Bft) NW 323 ° 0 min 0,000 mm 6,4 UV-I 322 W/m² 15,5 °C 21,9 °C 9,7 km/h (2 Bft)
05.06.2018 11:49 22,1 °C 66 % 1007,5 hPa 0,0 mm 8,0 km/h (2 Bft) N 355 ° 1 min 0,000 mm 6,3 UV-I 853 W/m² 15,4 °C 22,1 °C 11,3 km/h (2 Bft)
05.06.2018 11:50 22,2 °C 65 % 1007,5 hPa 0,0 mm 6,9 km/h (2 Bft) N-NO 28 ° 1 min 0,000 mm 4,1 UV-I 756 W/m² 15,3 °C 22,2 °C 9,7 km/h (2 Bft)
05.06.2018 11:51 22,3 °C 66 % 1007,5 hPa 0,0 mm 6,2 km/h (2 Bft) NO 46 ° 1 min 0,000 mm 6,5 UV-I 756 W/m² 15,6 °C 22,3 °C 9,7 km/h (2 Bft)
05.06.2018 11:52 22,2 °C 63 % 1007,5 hPa 0,0 mm 7,0 km/h (2 Bft) NO 53 ° 1 min 0,000 mm 4,2 UV-I 756 W/m² 14,8 °C 22,2 °C 11,3 km/h (2 Bft)
05.06.2018 11:53 22,1 °C 64 % 1007,5 hPa 0,0 mm 3,1 km/h (1 Bft) NO 51 ° 1 min 0,000 mm 3,5 UV-I 756 W/m² 15,0 °C 22,1 °C 8,0 km/h (2 Bft)
05.06.2018 11:54 21,8 °C 62 % 1007,5 hPa 0,0 mm 0,3 km/h (0 Bft) NO 51 ° 1 min 0,000 mm 4,3 UV-I 756 W/m² 14,2 °C 21,8 °C 1,6 km/h (1 Bft)
05.06.2018 11:55 21,7 °C 62 % 1007,5 hPa 0,0 mm 0,5 km/h (0 Bft) O-NO 59 ° 1 min 0,000 mm 3,8 UV-I 756 W/m² 14,1 °C 21,7 °C 1,6 km/h (1 Bft)
05.06.2018 11:56 21,6 °C 63 % 1007,5 hPa 0,0 mm 1,9 km/h (1 Bft) O-NO 61 ° 1 min 0,000 mm 3,5 UV-I 756 W/m² 14,2 °C 21,6 °C 3,2 km/h (1 Bft)
05.06.2018 11:57 21,5 °C 65 % 1007,5 hPa 0,0 mm 0,2 km/h (0 Bft) O-NO 61 ° 1 min 0,000 mm 6,5 UV-I 925 W/m² 14,6 °C 21,5 °C 1,6 km/h (1 Bft)
05.06.2018 11:58 21,6 °C 67 % 1007,5 hPa 0,0 mm 0,4 km/h (0 Bft) O-NO 61 ° 1 min 0,000 mm 5,8 UV-I 911 W/m² 15,2 °C 21,6 °C 1,6 km/h (1 Bft)
05.06.2018 11:59 21,8 °C 68 % 1007,3 hPa 0,0 mm 0,0 km/h (0 Bft) O-NO 61 ° 1 min 0,000 mm 6,5 UV-I 879 W/m² 15,6 °C 21,8 °C 0,0 km/h (0 Bft)
05.06.2018 12:00 22,0 °C 68 % 1007,4 hPa 0,0 mm 0,9 km/h (0 Bft) N-NO 15 ° 1 min 0,482 mm 6,4 UV-I 863 W/m² 15,8 °C 22,0 °C 3,2 km/h (1 Bft)
05.06.2018 12:01 22,2 °C 66 % 1007,4 hPa 0,0 mm 3,9 km/h (1 Bft) N-NO 32 ° 1 min 0,000 mm 6,4 UV-I 860 W/m² 15,5 °C 22,2 °C 4,8 km/h (1 Bft)
05.06.2018 12:03 22,2 °C 61 % 1007,3 hPa 0,0 mm 0,4 km/h (0 Bft) NO 38 ° 2 min 0,000 mm 6,5 UV-I 874 W/m² 14,3 °C 22,2 °C 3,2 km/h (1 Bft)
05.06.2018 12:04 22,2 °C 64 % 1007,3 hPa 0,0 mm 0,0 km/h (0 Bft) NO 38 ° 1 min 0,000 mm 6,5 UV-I 874 W/m² 15,1 °C 22,2 °C 0,0 km/h (0 Bft)
05.06.2018 12:05 22,3 °C 64 % 1007,3 hPa 0,0 mm 2,1 km/h (1 Bft) O 85 ° 1 min 0,000 mm 6,5 UV-I 875 W/m² 15,2 °C 22,3 °C 9,7 km/h (2 Bft)
05.06.2018 12:06 22,3 °C 64 % 1007,3 hPa 0,0 mm 6,3 km/h (2 Bft) NO 46 ° 1 min 0,000 mm 6,6 UV-I 875 W/m² 15,2 °C 22,3 °C 11,3 km/h (2 Bft)
05.06.2018 12:07 22,4 °C 65 % 1007,3 hPa 0,0 mm 3,8 km/h (1 Bft) O-NO 65 ° 1 min 0,000 mm 6,6 UV-I 877 W/m² 15,5 °C 22,4 °C 9,7 km/h (2 Bft)
05.06.2018 12:08 22,6 °C 65 % 1007,3 hPa 0,0 mm 3,0 km/h (1 Bft) N 350 ° 1 min 0,000 mm 6,6 UV-I 884 W/m² 15,7 °C 22,6 °C 8,0 km/h (2 Bft)
05.06.2018 12:09 22,7 °C 65 % 1007,3 hPa 0,0 mm 1,1 km/h (1 Bft) S 186 ° 1 min 0,000 mm 6,7 UV-I 896 W/m² 15,8 °C 22,7 °C 1,6 km/h (1 Bft)
05.06.2018 12:10 22,8 °C 66 % 1007,2 hPa 0,0 mm 7,1 km/h (2 Bft) N-NW 327 ° 1 min 0,000 mm 6,7 UV-I 900 W/m² 16,1 °C 22,8 °C 8,0 km/h (2 Bft)
05.06.2018 12:11 22,9 °C 65 % 1007,3 hPa 0,0 mm 7,1 km/h (2 Bft) N-NW 335 ° 1 min 0,000 mm 6,7 UV-I 898 W/m² 16,0 °C 22,9 °C 14,5 km/h (3 Bft)
05.06.2018 12:12 22,9 °C 65 % 1007,2 hPa 0,0 mm 7,5 km/h (2 Bft) N-NW 343 ° 1 min 0,000 mm 6,7 UV-I 916 W/m² 16,0 °C 22,9 °C 12,9 km/h (3 Bft)
05.06.2018 12:13 23,1 °C 68 % 1007,3 hPa 0,0 mm 8,9 km/h (2 Bft) O 88 ° 1 min 0,000 mm 6,1 UV-I 916 W/m² 16,9 °C 23,1 °C 12,9 km/h (3 Bft)
05.06.2018 12:14 23,0 °C 64 % 1007,3 hPa 0,0 mm 6,0 km/h (2 Bft) O-SO 105 ° 0 min 0,000 mm 5,5 UV-I 431 W/m² 15,8 °C 23,0 °C 11,3 km/h (2 Bft)
05.06.2018 12:15 22,8 °C 61 % 1007,3 hPa 0,0 mm 3,9 km/h (1 Bft) O 96 ° 0 min 0,000 mm 6,7 UV-I 431 W/m² 14,9 °C 22,8 °C 6,4 km/h (2 Bft)
05.06.2018 12:16 22,7 °C 63 % 1007,3 hPa 0,0 mm 4,5 km/h (1 Bft) N-NO 24 ° 1 min 0,000 mm 6,7 UV-I 895 W/m² 15,3 °C 22,7 °C 9,7 km/h (2 Bft)
05.06.2018 12:17 22,8 °C 63 % 1007,3 hPa 0,0 mm 9,1 km/h (2 Bft) NO 39 ° 1 min 0,000 mm 6,7 UV-I 893 W/m² 15,4 °C 22,8 °C 12,9 km/h (3 Bft)
05.06.2018 12:18 22,9 °C 61 % 1007,2 hPa 0,0 mm 7,5 km/h (2 Bft) NO 42 ° 1 min 0,000 mm 6,7 UV-I 888 W/m² 15,0 °C 22,9 °C 12,9 km/h (3 Bft)
05.06.2018 12:19 22,9 °C 60 % 1007,3 hPa 0,0 mm 5,5 km/h (1 Bft) N-NO 27 ° 1 min 0,000 mm 6,7 UV-I 886 W/m² 14,7 °C 22,9 °C 9,7 km/h (2 Bft)
05.06.2018 12:20 22,8 °C 60 % 1007,2 hPa 0,0 mm 2,2 km/h (1 Bft) O 95 ° 1 min 0,000 mm 6,7 UV-I 889 W/m² 14,6 °C 22,8 °C 4,8 km/h (1 Bft)
05.06.2018 12:21 22,9 °C 60 % 1007,2 hPa 0,0 mm 4,3 km/h (1 Bft) NO 53 ° 1 min 0,000 mm 6,7 UV-I 889 W/m² 14,7 °C 22,9 °C 6,4 km/h (2 Bft)
05.06.2018 12:22 23,0 °C 61 % 1007,2 hPa 0,0 mm 5,3 km/h (1 Bft) N-NO 22 ° 1 min 0,000 mm 6,7 UV-I 904 W/m² 15,1 °C 23,0 °C 8,0 km/h (2 Bft)
05.06.2018 12:23 23,1 °C 60 % 1007,3 hPa 0,0 mm 6,9 km/h (2 Bft) O 92 ° 1 min 0,000 mm 6,8 UV-I 925 W/m² 14,9 °C 23,1 °C 16,1 km/h (3 Bft)
05.06.2018 12:24 23,0 °C 63 % 1007,3 hPa 0,0 mm 11,3 km/h (2 Bft) NO 53 ° 1 min 0,000 mm 6,6 UV-I 947 W/m² 15,6 °C 23,0 °C 16,1 km/h (3 Bft)
05.06.2018 12:25 22,8 °C 59 % 1007,3 hPa 0,0 mm 7,7 km/h (2 Bft) O 88 ° 1 min 0,000 mm 3,9 UV-I 947 W/m² 14,4 °C 22,8 °C 14,5 km/h (3 Bft)
05.06.2018 12:26 22,7 °C 61 % 1007,3 hPa 0,0 mm 3,6 km/h (1 Bft) O-NO 59 ° 1 min 0,000 mm 6,6 UV-I 947 W/m² 14,8 °C 22,7 °C 6,4 km/h (2 Bft)
05.06.2018 12:27 22,6 °C 61 % 1007,3 hPa 0,0 mm 2,5 km/h (1 Bft) O-NO 77 ° 1 min 0,000 mm 3,7 UV-I 947 W/m² 14,7 °C 22,6 °C 4,8 km/h (1 Bft)
05.06.2018 12:28 22,6 °C 61 % 1007,2 hPa 0,0 mm 3,2 km/h (1 Bft) N 355 ° 1 min 0,000 mm 6,9 UV-I 949 W/m² 14,7 °C 22,6 °C 8,0 km/h (2 Bft)
05.06.2018 12:29 22,7 °C 63 % 1007,2 hPa 0,0 mm 5,2 km/h (1 Bft) N 355 ° 1 min 0,000 mm 6,9 UV-I 942 W/m² 15,3 °C 22,7 °C 8,0 km/h (2 Bft)
05.06.2018 12:30 22,9 °C 64 % 1007,2 hPa 0,0 mm 3,2 km/h (1 Bft) NO 34 ° 1 min 0,000 mm 6,9 UV-I 937 W/m² 15,7 °C 22,9 °C 6,4 km/h (2 Bft)
05.06.2018 12:31 23,1 °C 64 % 1007,2 hPa 0,0 mm 6,2 km/h (2 Bft) O 90 ° 1 min 0,000 mm 6,9 UV-I 937 W/m² 15,9 °C 23,1 °C 9,7 km/h (2 Bft)
05.06.2018 12:32 23,2 °C 59 % 1007,2 hPa 0,0 mm 9,7 km/h (2 Bft) O-SO 121 ° 1 min 0,000 mm 6,9 UV-I 926 W/m² 14,7 °C 23,2 °C 14,5 km/h (3 Bft)
05.06.2018 12:33 23,1 °C 58 % 1007,2 hPa 0,0 mm 13,5 km/h (3 Bft) NO 36 ° 1 min 0,000 mm 6,8 UV-I 919 W/m² 14,4 °C 23,1 °C 20,9 km/h (4 Bft)
05.06.2018 12:34 23,0 °C 58 % 1007,3 hPa 0,0 mm 9,1 km/h (2 Bft) O-NO 75 ° 1 min 0,000 mm 6,8 UV-I 935 W/m² 14,3 °C 23,0 °C 16,1 km/h (3 Bft)
05.06.2018 12:35 23,0 °C 59 % 1007,3 hPa 0,0 mm 11,3 km/h (2 Bft) NO 40 ° 1 min 0,000 mm 3,1 UV-I 935 W/m² 14,5 °C 23,0 °C 14,5 km/h (3 Bft)
05.06.2018 12:36 22,8 °C 58 % 1007,3 hPa 0,0 mm 9,3 km/h (2 Bft) N-NO 30 ° 0 min 0,000 mm 3,0 UV-I 135 W/m² 14,1 °C 22,8 °C 16,1 km/h (3 Bft)
05.06.2018 12:37 22,6 °C 58 % 1007,3 hPa 0,0 mm 8,5 km/h (2 Bft) NO 38 ° 0 min 0,000 mm 3,0 UV-I 132 W/m² 13,9 °C 22,6 °C 14,5 km/h (3 Bft)
05.06.2018 12:38 22,4 °C 59 % 1007,3 hPa 0,0 mm 8,4 km/h (2 Bft) NO 42 ° 0 min 0,000 mm 3,1 UV-I 172 W/m² 14,0 °C 22,4 °C 14,5 km/h (3 Bft)
05.06.2018 12:39 22,3 °C 59 % 1007,3 hPa 0,0 mm 5,8 km/h (2 Bft) O-NO 69 ° 0 min 0,000 mm 6,9 UV-I 172 W/m² 13,9 °C 22,3 °C 9,7 km/h (2 Bft)
05.06.2018 12:40 22,2 °C 61 % 1007,3 hPa 0,0 mm 1,3 km/h (1 Bft) NO 42 ° 1 min 0,000 mm 6,9 UV-I 988 W/m² 14,3 °C 22,2 °C 3,2 km/h (1 Bft)
05.06.2018 12:41 22,2 °C 60 % 1007,2 hPa 0,0 mm 3,0 km/h (1 Bft) N 5 ° 1 min 0,000 mm 6,8 UV-I 1002 W/m² 14,1 °C 22,2 °C 8,0 km/h (2 Bft)
05.06.2018 12:42 22,4 °C 60 % 1007,2 hPa 0,0 mm 6,3 km/h (2 Bft) N-NW 327 ° 1 min 0,000 mm 4,8 UV-I 1002 W/m² 14,2 °C 22,4 °C 9,7 km/h (2 Bft)
05.06.2018 12:43 22,6 °C 62 % 1007,2 hPa 0,0 mm 5,4 km/h (1 Bft) N-NO 15 ° 1 min 0,000 mm 6,8 UV-I 1002 W/m² 14,9 °C 22,6 °C 8,0 km/h (2 Bft)
05.06.2018 12:44 22,7 °C 60 % 1007,2 hPa 0,0 mm 8,9 km/h (2 Bft) O-NO 61 ° 1 min 0,000 mm 3,3 UV-I 1002 W/m² 14,5 °C 22,7 °C 12,9 km/h (3 Bft)
05.06.2018 12:45 22,7 °C 58 % 1007,3 hPa 0,0 mm 5,4 km/h (1 Bft) O-NO 65 ° 0 min 0,000 mm 6,7 UV-I 213 W/m² 14,0 °C 22,7 °C 9,7 km/h (2 Bft)
05.06.2018 12:46 22,5 °C 59 % 1007,3 hPa 0,0 mm 7,9 km/h (2 Bft) O-NO 67 ° 1 min 0,000 mm 6,9 UV-I 970 W/m² 14,1 °C 22,5 °C 11,3 km/h (2 Bft)
05.06.2018 12:47 22,6 °C 59 % 1007,3 hPa 0,0 mm 6,5 km/h (2 Bft) NO 41 ° 1 min 0,000 mm 3,3 UV-I 970 W/m² 14,2 °C 22,6 °C 11,3 km/h (2 Bft)
05.06.2018 12:48 22,6 °C 62 % 1007,3 hPa 0,0 mm 4,7 km/h (1 Bft) O-NO 66 ° 1 min 0,000 mm 3,2 UV-I 970 W/m² 14,9 °C 22,6 °C 11,3 km/h (2 Bft)
05.06.2018 12:49 22,4 °C 58 % 1007,3 hPa 0,0 mm 4,0 km/h (1 Bft) O-NO 69 ° 0 min 0,000 mm 3,2 UV-I 162 W/m² 13,7 °C 22,4 °C 6,4 km/h (2 Bft)
05.06.2018 12:50 22,4 °C 61 % 1007,3 hPa 0,0 mm 3,9 km/h (1 Bft) O-NO 68 ° 1 min 0,000 mm 6,7 UV-I 962 W/m² 14,5 °C 22,4 °C 6,4 km/h (2 Bft)
05.06.2018 12:51 22,4 °C 61 % 1007,3 hPa 0,0 mm 2,3 km/h (1 Bft) O-NO 68 ° 1 min 0,000 mm 6,3 UV-I 969 W/m² 14,5 °C 22,4 °C 4,8 km/h (1 Bft)
05.06.2018 12:52 22,6 °C 63 % 1007,3 hPa 0,0 mm 3,8 km/h (1 Bft) N-NO 30 ° 1 min 0,000 mm 6,8 UV-I 969 W/m² 15,2 °C 22,6 °C 4,8 km/h (1 Bft)
05.06.2018 12:53 22,7 °C 62 % 1007,3 hPa 0,0 mm 4,3 km/h (1 Bft) N-NW 335 ° 1 min 0,000 mm 6,8 UV-I 942 W/m² 15,0 °C 22,7 °C 8,0 km/h (2 Bft)
05.06.2018 12:54 22,9 °C 58 % 1007,3 hPa 0,0 mm 2,2 km/h (1 Bft) N-NO 30 ° 1 min 0,000 mm 6,8 UV-I 932 W/m² 14,2 °C 22,9 °C 4,8 km/h (1 Bft)
05.06.2018 12:55 23,0 °C 59 % 1007,3 hPa 0,0 mm 2,7 km/h (1 Bft) N-NO 13 ° 1 min 0,000 mm 5,4 UV-I 932 W/m² 14,5 °C 23,0 °C 4,8 km/h (1 Bft)
05.06.2018 12:56 23,1 °C 63 % 1007,2 hPa 0,0 mm 4,5 km/h (1 Bft) NO 39 ° 1 min 0,000 mm 6,9 UV-I 925 W/m² 15,7 °C 23,1 °C 8,0 km/h (2 Bft)
05.06.2018 12:57 23,3 °C 61 % 1007,2 hPa 0,0 mm 6,5 km/h (2 Bft) N-NO 12 ° 1 min 0,000 mm 4,1 UV-I 925 W/m² 15,3 °C 23,3 °C 9,7 km/h (2 Bft)
05.06.2018 12:58 23,3 °C 61 % 1007,2 hPa 0,0 mm 2,8 km/h (1 Bft) SO 136 ° 1 min 0,000 mm 3,5 UV-I 925 W/m² 15,3 °C 23,3 °C 9,7 km/h (2 Bft)
05.06.2018 12:59 23,2 °C 57 % 1007,2 hPa 0,0 mm 2,3 km/h (1 Bft) O-SO 115 ° 1 min 0,000 mm 7,0 UV-I 925 W/m² 14,2 °C 23,2 °C 6,4 km/h (2 Bft)
05.06.2018 13:00 23,1 °C 58 % 1007,2 hPa 0,0 mm 5,4 km/h (1 Bft) O-NO 59 ° 1 min 0,483 mm 6,8 UV-I 939 W/m² 14,4 °C 23,1 °C 11,3 km/h (2 Bft)
05.06.2018 13:01 23,1 °C 57 % 1007,2 hPa 0,0 mm 7,1 km/h (2 Bft) O 90 ° 1 min 0,000 mm 6,9 UV-I 944 W/m² 14,1 °C 23,1 °C 12,9 km/h (3 Bft)
05.06.2018 13:02 23,1 °C 56 % 1007,2 hPa 0,0 mm 5,8 km/h (2 Bft) O 96 ° 1 min 0,000 mm 6,9 UV-I 900 W/m² 13,8 °C 23,1 °C 12,9 km/h (3 Bft)
05.06.2018 13:03 23,0 °C 56 % 1007,2 hPa 0,0 mm 4,6 km/h (1 Bft) O 82 ° 1 min 0,000 mm 3,3 UV-I 900 W/m² 13,7 °C 23,0 °C 8,0 km/h (2 Bft)
05.06.2018 13:04 22,9 °C 56 % 1007,2 hPa 0,0 mm 4,8 km/h (1 Bft) O-NO 71 ° 1 min 0,000 mm 6,7 UV-I 900 W/m² 13,6 °C 22,9 °C 8,0 km/h (2 Bft)
05.06.2018 13:05 22,9 °C 57 % 1007,2 hPa 0,0 mm 4,2 km/h (1 Bft) O-NO 65 ° 1 min 0,000 mm 6,9 UV-I 928 W/m² 13,9 °C 22,9 °C 11,3 km/h (2 Bft)
05.06.2018 13:06 22,9 °C 57 % 1007,1 hPa 0,0 mm 5,2 km/h (1 Bft) O-NO 71 ° 1 min 0,000 mm 7,0 UV-I 933 W/m² 13,9 °C 22,9 °C 9,7 km/h (2 Bft)
05.06.2018 13:07 23,1 °C 58 % 1007,1 hPa 0,0 mm 3,9 km/h (1 Bft) N-NO 22 ° 1 min 0,000 mm 7,0 UV-I 937 W/m² 14,4 °C 23,1 °C 6,4 km/h (2 Bft)
05.06.2018 13:08 23,3 °C 57 % 1007,1 hPa 0,0 mm 2,7 km/h (1 Bft) NO 41 ° 1 min 0,000 mm 7,0 UV-I 940 W/m² 14,3 °C 23,3 °C 8,0 km/h (2 Bft)
05.06.2018 13:09 23,4 °C 57 % 1007,1 hPa 0,0 mm 3,3 km/h (1 Bft) SW 236 ° 1 min 0,000 mm 7,0 UV-I 937 W/m² 14,4 °C 23,4 °C 11,3 km/h (2 Bft)
05.06.2018 13:10 23,6 °C 58 % 1007,0 hPa 0,0 mm 4,9 km/h (1 Bft) NO 53 ° 1 min 0,000 mm 6,9 UV-I 937 W/m² 14,8 °C 23,6 °C 11,3 km/h (2 Bft)
05.06.2018 13:11 23,6 °C 57 % 1007,2 hPa 0,0 mm 9,9 km/h (2 Bft) O-NO 78 ° 1 min 0,000 mm 6,9 UV-I 942 W/m² 14,6 °C 23,6 °C 14,5 km/h (3 Bft)
05.06.2018 13:12 23,6 °C 56 % 1007,2 hPa 0,0 mm 8,7 km/h (2 Bft) NO 46 ° 1 min 0,000 mm 6,9 UV-I 969 W/m² 14,3 °C 23,6 °C 14,5 km/h (3 Bft)
05.06.2018 13:13 23,5 °C 55 % 1007,2 hPa 0,0 mm 7,8 km/h (2 Bft) NO 44 ° 1 min 0,000 mm 7,0 UV-I 965 W/m² 13,9 °C 23,5 °C 11,3 km/h (2 Bft)
05.06.2018 13:14 23,4 °C 55 % 1007,2 hPa 0,0 mm 7,0 km/h (2 Bft) O-NO 66 ° 1 min 0,000 mm 7,1 UV-I 979 W/m² 13,8 °C 23,4 °C 12,9 km/h (3 Bft)
05.06.2018 13:15 23,3 °C 52 % 1007,2 hPa 0,0 mm 4,9 km/h (1 Bft) O 81 ° 1 min 0,000 mm 7,2 UV-I 986 W/m² 12,9 °C 23,3 °C 9,7 km/h (2 Bft)
05.06.2018 13:16 23,3 °C 53 % 1007,2 hPa 0,0 mm 6,4 km/h (2 Bft) N-NO 23 ° 1 min 0,000 mm 7,3 UV-I 988 W/m² 13,2 °C 23,3 °C 9,7 km/h (2 Bft)
05.06.2018 13:17 23,3 °C 54 % 1007,2 hPa 0,0 mm 9,5 km/h (2 Bft) O-NO 75 ° 1 min 0,000 mm 7,2 UV-I 991 W/m² 13,5 °C 23,3 °C 12,9 km/h (3 Bft)
05.06.2018 13:18 23,3 °C 54 % 1007,2 hPa 0,0 mm 4,3 km/h (1 Bft) N-NO 16 ° 1 min 0,000 mm 7,1 UV-I 983 W/m² 13,5 °C 23,3 °C 8,0 km/h (2 Bft)
05.06.2018 13:19 23,4 °C 55 % 1007,1 hPa 0,0 mm 6,0 km/h (2 Bft) NO 34 ° 1 min 0,000 mm 7,2 UV-I 1000 W/m² 13,8 °C 23,4 °C 8,0 km/h (2 Bft)
05.06.2018 13:20 23,4 °C 55 % 1007,1 hPa 0,0 mm 5,7 km/h (1 Bft) NO 34 ° 1 min 0,000 mm 4,2 UV-I 1000 W/m² 13,8 °C 23,4 °C 8,0 km/h (2 Bft)
05.06.2018 13:21 23,6 °C 54 % 1007,1 hPa 0,0 mm 5,4 km/h (1 Bft) NO 51 ° 1 min 0,000 mm 4,3 UV-I 1000 W/m² 13,7 °C 23,6 °C 9,7 km/h (2 Bft)
05.06.2018 13:22 23,6 °C 57 % 1007,1 hPa 0,0 mm 4,6 km/h (1 Bft) O-NO 72 ° 1 min 0,000 mm 6,3 UV-I 1000 W/m² 14,6 °C 23,6 °C 8,0 km/h (2 Bft)
05.06.2018 13:23 23,6 °C 52 % 1007,1 hPa 0,0 mm 1,0 km/h (0 Bft) O-NO 71 ° 1 min 0,000 mm 7,1 UV-I 965 W/m² 13,2 °C 23,6 °C 3,2 km/h (1 Bft)
05.06.2018 13:24 23,5 °C 53 % 1007,1 hPa 0,0 mm 1,9 km/h (1 Bft) SO 143 ° 1 min 0,000 mm 7,1 UV-I 954 W/m² 13,4 °C 23,5 °C 4,8 km/h (1 Bft)
05.06.2018 13:25 23,4 °C 55 % 1007,0 hPa 0,0 mm 0,4 km/h (0 Bft) SO 143 ° 1 min 0,000 mm 7,1 UV-I 947 W/m² 13,8 °C 23,4 °C 1,6 km/h (1 Bft)
05.06.2018 13:26 23,5 °C 54 % 1007,0 hPa 0,0 mm 1,0 km/h (0 Bft) O 101 ° 1 min 0,000 mm 7,0 UV-I 947 W/m² 13,6 °C 23,5 °C 1,6 km/h (1 Bft)
05.06.2018 13:27 23,6 °C 57 % 1007,0 hPa 0,0 mm 7,8 km/h (2 Bft) NW 317 ° 1 min 0,000 mm 7,0 UV-I 949 W/m² 14,6 °C 23,6 °C 12,9 km/h (3 Bft)
05.06.2018 13:28 23,8 °C 54 % 1007,0 hPa 0,0 mm 6,2 km/h (2 Bft) SO 130 ° 1 min 0,000 mm 7,0 UV-I 956 W/m² 13,9 °C 23,8 °C 14,5 km/h (3 Bft)
05.06.2018 13:29 23,8 °C 53 % 1007,0 hPa 0,0 mm 5,4 km/h (1 Bft) O-NO 59 ° 1 min 0,000 mm 7,0 UV-I 963 W/m² 13,6 °C 23,8 °C 12,9 km/h (3 Bft)
05.06.2018 13:30 23,8 °C 54 % 1007,0 hPa 0,0 mm 6,6 km/h (2 Bft) O-NO 68 ° 1 min 0,000 mm 7,0 UV-I 965 W/m² 13,9 °C 23,8 °C 11,3 km/h (2 Bft)
05.06.2018 13:31 23,9 °C 55 % 1007,0 hPa 0,0 mm 3,2 km/h (1 Bft) O-NO 57 ° 1 min 0,000 mm 7,0 UV-I 983 W/m² 14,3 °C 23,9 °C 6,4 km/h (2 Bft)
05.06.2018 13:32 23,9 °C 58 % 1007,0 hPa 0,0 mm 2,8 km/h (1 Bft) N-NO 17 ° 1 min 0,000 mm 7,1 UV-I 983 W/m² 15,1 °C 23,9 °C 6,4 km/h (2 Bft)
05.06.2018 13:33 23,9 °C 55 % 1007,1 hPa 0,0 mm 7,6 km/h (2 Bft) NO 39 ° 1 min 0,000 mm 7,1 UV-I 983 W/m² 14,3 °C 23,9 °C 14,5 km/h (3 Bft)
05.06.2018 13:34 23,9 °C 57 % 1007,1 hPa 0,0 mm 7,8 km/h (2 Bft) O-NO 61 ° 1 min 0,000 mm 7,2 UV-I 997 W/m² 14,9 °C 23,9 °C 12,9 km/h (3 Bft)
05.06.2018 13:35 23,7 °C 52 % 1007,1 hPa 0,0 mm 4,6 km/h (1 Bft) SO 135 ° 1 min 0,000 mm 7,0 UV-I 939 W/m² 13,2 °C 23,7 °C 12,9 km/h (3 Bft)
05.06.2018 13:36 23,6 °C 54 % 1007,0 hPa 0,0 mm 2,7 km/h (1 Bft) O-NO 57 ° 1 min 0,000 mm 7,0 UV-I 930 W/m² 13,7 °C 23,6 °C 6,4 km/h (2 Bft)
05.06.2018 13:37 23,6 °C 56 % 1007,0 hPa 0,0 mm 2,9 km/h (1 Bft) O 79 ° 1 min 0,000 mm 6,9 UV-I 916 W/m² 14,3 °C 23,6 °C 6,4 km/h (2 Bft)
05.06.2018 13:38 23,6 °C 52 % 1007,0 hPa 0,0 mm 4,3 km/h (1 Bft) O 92 ° 1 min 0,000 mm 6,9 UV-I 914 W/m² 13,2 °C 23,6 °C 9,7 km/h (2 Bft)
05.06.2018 13:39 23,7 °C 52 % 1006,9 hPa 0,0 mm 6,0 km/h (2 Bft) NO 51 ° 1 min 0,000 mm 6,9 UV-I 914 W/m² 13,2 °C 23,7 °C 8,0 km/h (2 Bft)
05.06.2018 13:40 23,7 °C 49 % 1006,9 hPa 0,0 mm 8,9 km/h (2 Bft) O 91 ° 1 min 0,000 mm 6,9 UV-I 909 W/m² 12,3 °C 23,7 °C 12,9 km/h (3 Bft)
05.06.2018 13:41 23,7 °C 53 % 1006,9 hPa 0,0 mm 6,9 km/h (2 Bft) O-NO 76 ° 1 min 0,000 mm 6,9 UV-I 911 W/m² 13,5 °C 23,7 °C 12,9 km/h (3 Bft)
05.06.2018 13:42 23,8 °C 55 % 1006,9 hPa 0,0 mm 6,5 km/h (2 Bft) N-NO 30 ° 1 min 0,000 mm 7,0 UV-I 919 W/m² 14,2 °C 23,8 °C 11,3 km/h (2 Bft)
05.06.2018 13:43 23,9 °C 57 % 1006,9 hPa 0,0 mm 7,2 km/h (2 Bft) O-NO 62 ° 1 min 0,000 mm 7,0 UV-I 916 W/m² 14,9 °C 23,9 °C 12,9 km/h (3 Bft)
05.06.2018 13:44 23,8 °C 50 % 1007,0 hPa 0,0 mm 1,5 km/h (1 Bft) O-NO 65 ° 1 min 0,000 mm 6,9 UV-I 918 W/m² 12,7 °C 23,8 °C 4,8 km/h (1 Bft)
05.06.2018 13:45 23,8 °C 54 % 1006,9 hPa 0,0 mm 6,4 km/h (2 Bft) O-NO 69 ° 1 min 0,000 mm 6,9 UV-I 916 W/m² 13,9 °C 23,8 °C 8,0 km/h (2 Bft)
05.06.2018 13:46 23,8 °C 52 % 1006,9 hPa 0,0 mm 4,5 km/h (1 Bft) O 81 ° 1 min 0,000 mm 7,0 UV-I 916 W/m² 13,3 °C 23,8 °C 9,7 km/h (2 Bft)
05.06.2018 13:47 23,9 °C 50 % 1007,0 hPa 0,0 mm 7,8 km/h (2 Bft) N-NO 14 ° 1 min 0,000 mm 7,0 UV-I 925 W/m² 12,8 °C 23,9 °C 14,5 km/h (3 Bft)
05.06.2018 13:48 24,1 °C 51 % 1006,9 hPa 0,0 mm 7,0 km/h (2 Bft) NO 38 ° 1 min 0,000 mm 6,9 UV-I 870 W/m² 13,3 °C 24,1 °C 11,3 km/h (2 Bft)
05.06.2018 13:49 24,3 °C 51 % 1006,8 hPa 0,0 mm 6,7 km/h (2 Bft) NO 56 ° 1 min 0,000 mm 6,7 UV-I 916 W/m² 13,5 °C 24,3 °C 11,3 km/h (2 Bft)
05.06.2018 13:50 24,4 °C 52 % 1006,8 hPa 0,0 mm 5,8 km/h (2 Bft) NO 55 ° 1 min 0,000 mm 6,7 UV-I 916 W/m² 13,9 °C 24,4 °C 11,3 km/h (2 Bft)
05.06.2018 13:51 24,4 °C 53 % 1006,8 hPa 0,0 mm 9,7 km/h (2 Bft) N-NO 24 ° 1 min 0,000 mm 6,7 UV-I 918 W/m² 14,2 °C 24,4 °C 14,5 km/h (3 Bft)
05.06.2018 13:52 24,4 °C 50 % 1006,8 hPa 0,0 mm 6,2 km/h (2 Bft) N-NO 29 ° 1 min 0,000 mm 7,0 UV-I 877 W/m² 13,3 °C 24,4 °C 16,1 km/h (3 Bft)
05.06.2018 13:53 24,3 °C 51 % 1006,8 hPa 0,0 mm 4,4 km/h (1 Bft) N-NO 25 ° 1 min 0,000 mm 4,9 UV-I 877 W/m² 13,5 °C 24,3 °C 6,4 km/h (2 Bft)
05.06.2018 13:54 24,4 °C 55 % 1006,8 hPa 0,0 mm 4,2 km/h (1 Bft) NO 53 ° 1 min 0,000 mm 6,8 UV-I 918 W/m² 14,8 °C 24,4 °C 6,4 km/h (2 Bft)
05.06.2018 13:55 24,4 °C 52 % 1006,8 hPa 0,0 mm 5,7 km/h (1 Bft) NW 325 ° 1 min 0,000 mm 6,8 UV-I 911 W/m² 13,9 °C 24,4 °C 11,3 km/h (2 Bft)
05.06.2018 13:56 24,3 °C 54 % 1006,8 hPa 0,0 mm 6,6 km/h (2 Bft) N 360 ° 1 min 0,000 mm 6,7 UV-I 904 W/m² 14,4 °C 24,3 °C 12,9 km/h (3 Bft)
05.06.2018 13:57 24,4 °C 53 % 1006,8 hPa 0,0 mm 6,4 km/h (2 Bft) O 83 ° 1 min 0,000 mm 6,7 UV-I 904 W/m² 14,2 °C 24,4 °C 9,7 km/h (2 Bft)
05.06.2018 13:58 24,4 °C 49 % 1006,9 hPa 0,0 mm 7,2 km/h (2 Bft) O-NO 69 ° 1 min 0,000 mm 6,8 UV-I 907 W/m² 13,0 °C 24,4 °C 11,3 km/h (2 Bft)
05.06.2018 13:59 24,2 °C 49 % 1006,8 hPa 0,0 mm 2,2 km/h (1 Bft) NO 48 ° 1 min 0,000 mm 6,9 UV-I 911 W/m² 12,8 °C 24,2 °C 6,4 km/h (2 Bft)
05.06.2018 14:00 24,1 °C 51 % 1006,7 hPa 0,0 mm 5,4 km/h (1 Bft) N-NO 14 ° 1 min 0,000 mm 6,8 UV-I 905 W/m² 13,3 °C 24,1 °C 8,0 km/h (2 Bft)
05.06.2018 14:01 24,1 °C 47 % 1006,8 hPa 0,0 mm 5,4 km/h (1 Bft) N 360 ° 1 min 0,584 mm 6,8 UV-I 902 W/m² 12,1 °C 24,1 °C 9,7 km/h (2 Bft)
05.06.2018 14:02 24,1 °C 48 % 1006,7 hPa 0,0 mm 5,2 km/h (1 Bft) N 355 ° 1 min 0,000 mm 6,8 UV-I 907 W/m² 12,4 °C 24,1 °C 8,0 km/h (2 Bft)
05.06.2018 14:03 24,1 °C 47 % 1006,7 hPa 0,0 mm 3,6 km/h (1 Bft) N-NO 22 ° 1 min 0,000 mm 6,8 UV-I 909 W/m² 12,1 °C 24,1 °C 6,4 km/h (2 Bft)
05.06.2018 14:04 24,2 °C 48 % 1006,7 hPa 0,0 mm 2,7 km/h (1 Bft) N-NW 344 ° 1 min 0,000 mm 6,8 UV-I 902 W/m² 12,5 °C 24,2 °C 4,8 km/h (1 Bft)
05.06.2018 14:05 24,2 °C 47 % 1006,7 hPa 0,0 mm 6,2 km/h (2 Bft) N-NW 340 ° 1 min 0,000 mm 6,8 UV-I 905 W/m² 12,2 °C 24,2 °C 12,9 km/h (3 Bft)
05.06.2018 14:06 24,2 °C 50 % 1006,6 hPa 0,0 mm 10,1 km/h (2 Bft) N-NO 13 ° 1 min 0,000 mm 6,8 UV-I 918 W/m² 13,1 °C 24,2 °C 14,5 km/h (3 Bft)
05.06.2018 14:07 24,2 °C 47 % 1006,7 hPa 0,0 mm 2,5 km/h (1 Bft) N-NO 18 ° 1 min 0,000 mm 6,8 UV-I 919 W/m² 12,2 °C 24,2 °C 8,0 km/h (2 Bft)
05.06.2018 14:08 24,2 °C 49 % 1006,7 hPa 0,0 mm 0,8 km/h (0 Bft) N-NO 19 ° 1 min 0,000 mm 6,9 UV-I 932 W/m² 12,8 °C 24,2 °C 4,8 km/h (1 Bft)
05.06.2018 14:09 24,2 °C 51 % 1006,7 hPa 0,0 mm 4,5 km/h (1 Bft) O 99 ° 1 min 0,000 mm 7,0 UV-I 949 W/m² 13,4 °C 24,2 °C 8,0 km/h (2 Bft)
05.06.2018 14:10 24,3 °C 51 % 1006,7 hPa 0,0 mm 4,3 km/h (1 Bft) N-NW 328 ° 1 min 0,000 mm 6,8 UV-I 965 W/m² 13,5 °C 24,3 °C 8,0 km/h (2 Bft)
05.06.2018 14:11 24,4 °C 53 % 1006,6 hPa 0,0 mm 5,6 km/h (1 Bft) N 355 ° 1 min 0,000 mm 7,0 UV-I 974 W/m² 14,2 °C 24,4 °C 9,7 km/h (2 Bft)
05.06.2018 14:12 24,5 °C 52 % 1006,6 hPa 0,0 mm 8,1 km/h (2 Bft) N-NO 22 ° 1 min 0,000 mm 7,0 UV-I 970 W/m² 14,0 °C 24,5 °C 16,1 km/h (3 Bft)
05.06.2018 14:13 24,3 °C 49 % 1006,7 hPa 0,0 mm 6,6 km/h (2 Bft) N-NO 21 ° 1 min 0,000 mm 3,2 UV-I 970 W/m² 12,9 °C 24,3 °C 9,7 km/h (2 Bft)
05.06.2018 14:14 24,2 °C 48 % 1006,6 hPa 0,0 mm 2,8 km/h (1 Bft) O-SO 109 ° 0 min 0,000 mm 3,1 UV-I 174 W/m² 12,5 °C 24,2 °C 6,4 km/h (2 Bft)
05.06.2018 14:15 24,0 °C 49 % 1006,7 hPa 0,0 mm 2,7 km/h (1 Bft) O 87 ° 0 min 0,000 mm 3,1 UV-I 160 W/m² 12,6 °C 24,0 °C 4,8 km/h (1 Bft)
05.06.2018 14:16 23,8 °C 50 % 1006,6 hPa 0,0 mm 2,4 km/h (1 Bft) O-NO 78 ° 0 min 0,000 mm 3,0 UV-I 146 W/m² 12,7 °C 23,8 °C 4,8 km/h (1 Bft)
05.06.2018 14:17 23,7 °C 49 % 1006,6 hPa 0,0 mm 6,8 km/h (2 Bft) O-NO 61 ° 0 min 0,000 mm 3,3 UV-I 155 W/m² 12,3 °C 23,7 °C 9,7 km/h (2 Bft)
05.06.2018 14:18 23,7 °C 49 % 1006,6 hPa 0,0 mm 6,0 km/h (2 Bft) N-NO 22 ° 0 min 0,000 mm 5,1 UV-I 155 W/m² 12,3 °C 23,7 °C 11,3 km/h (2 Bft)
05.06.2018 14:19 23,8 °C 52 % 1006,6 hPa 0,0 mm 3,3 km/h (1 Bft) N 5 ° 1 min 0,000 mm 6,6 UV-I 926 W/m² 13,3 °C 23,8 °C 4,8 km/h (1 Bft)
05.06.2018 14:20 23,9 °C 48 % 1006,5 hPa 0,0 mm 2,2 km/h (1 Bft) N-NO 18 ° 1 min 0,000 mm 6,7 UV-I 930 W/m² 12,2 °C 23,9 °C 4,8 km/h (1 Bft)
05.06.2018 14:21 24,2 °C 52 % 1006,5 hPa 0,0 mm 4,0 km/h (1 Bft) SO 125 ° 1 min 0,000 mm 6,7 UV-I 933 W/m² 13,7 °C 24,2 °C 6,4 km/h (2 Bft)
05.06.2018 14:22 24,3 °C 48 % 1006,5 hPa 0,0 mm 5,6 km/h (1 Bft) NO 44 ° 1 min 0,000 mm 6,8 UV-I 933 W/m² 12,6 °C 24,3 °C 9,7 km/h (2 Bft)
05.06.2018 14:23 24,4 °C 50 % 1006,5 hPa 0,0 mm 7,4 km/h (2 Bft) N-NO 15 ° 1 min 0,000 mm 6,8 UV-I 932 W/m² 13,3 °C 24,4 °C 16,1 km/h (3 Bft)
05.06.2018 14:24 24,4 °C 46 % 1006,6 hPa 0,0 mm 8,4 km/h (2 Bft) N-NO 29 ° 1 min 0,000 mm 6,8 UV-I 940 W/m² 12,0 °C 24,4 °C 16,1 km/h (3 Bft)
05.06.2018 14:25 24,5 °C 48 % 1006,6 hPa 0,0 mm 7,1 km/h (2 Bft) NO 36 ° 1 min 0,000 mm 6,8 UV-I 953 W/m² 12,8 °C 24,5 °C 11,3 km/h (2 Bft)
05.06.2018 14:26 24,5 °C 49 % 1006,5 hPa 0,0 mm 5,4 km/h (1 Bft) N 360 ° 1 min 0,000 mm 6,7 UV-I 958 W/m² 13,1 °C 24,5 °C 8,0 km/h (2 Bft)
05.06.2018 14:27 24,4 °C 48 % 1006,5 hPa 0,0 mm 6,0 km/h (2 Bft) N-NW 331 ° 1 min 0,000 mm 6,7 UV-I 958 W/m² 12,7 °C 24,4 °C 11,3 km/h (2 Bft)
05.06.2018 14:28 24,3 °C 47 % 1006,4 hPa 0,0 mm 4,7 km/h (1 Bft) N-NO 17 ° 0 min 0,000 mm 3,2 UV-I 185 W/m² 12,3 °C 24,3 °C 8,0 km/h (2 Bft)
05.06.2018 14:29 24,2 °C 46 % 1006,5 hPa 0,0 mm 7,0 km/h (2 Bft) N-NO 33 ° 0 min 0,000 mm 3,1 UV-I 211 W/m² 11,8 °C 24,2 °C 12,9 km/h (3 Bft)
05.06.2018 14:30 24,1 °C 45 % 1006,4 hPa 0,0 mm 4,8 km/h (1 Bft) NO 42 ° 0 min 0,000 mm 3,5 UV-I 211 W/m² 11,4 °C 24,1 °C 9,7 km/h (2 Bft)
05.06.2018 14:31 24,1 °C 47 % 1006,5 hPa 0,0 mm 6,1 km/h (2 Bft) O-NO 60 ° 1 min 0,000 mm 6,7 UV-I 976 W/m² 12,1 °C 24,1 °C 8,0 km/h (2 Bft)
05.06.2018 14:32 24,1 °C 48 % 1006,4 hPa 0,0 mm 4,4 km/h (1 Bft) NO 47 ° 1 min 0,000 mm 6,7 UV-I 969 W/m² 12,4 °C 24,1 °C 9,7 km/h (2 Bft)
05.06.2018 14:33 24,2 °C 49 % 1006,4 hPa 0,0 mm 4,2 km/h (1 Bft) N 9 ° 1 min 0,000 mm 6,7 UV-I 969 W/m² 12,8 °C 24,2 °C 6,4 km/h (2 Bft)
05.06.2018 14:34 24,3 °C 51 % 1006,4 hPa 0,0 mm 10,0 km/h (2 Bft) NO 40 ° 1 min 0,000 mm 6,7 UV-I 965 W/m² 13,5 °C 24,3 °C 17,7 km/h (3 Bft)
05.06.2018 14:35 24,3 °C 47 % 1006,5 hPa 0,0 mm 10,0 km/h (2 Bft) NO 40 ° 1 min 0,000 mm 6,6 UV-I 960 W/m² 12,3 °C 24,3 °C 14,5 km/h (3 Bft)
05.06.2018 14:36 24,3 °C 48 % 1006,4 hPa 0,0 mm 6,5 km/h (2 Bft) O-NO 73 ° 1 min 0,000 mm 6,6 UV-I 956 W/m² 12,6 °C 24,3 °C 9,7 km/h (2 Bft)
05.06.2018 14:37 24,4 °C 49 % 1006,5 hPa 0,0 mm 3,1 km/h (1 Bft) N-NW 346 ° 1 min 0,000 mm 6,6 UV-I 960 W/m² 13,0 °C 24,4 °C 6,4 km/h (2 Bft)
05.06.2018 14:38 24,4 °C 50 % 1006,4 hPa 0,0 mm 2,5 km/h (1 Bft) O-NO 76 ° 1 min 0,000 mm 6,6 UV-I 967 W/m² 13,3 °C 24,4 °C 6,4 km/h (2 Bft)
05.06.2018 14:39 24,6 °C 53 % 1006,4 hPa 0,0 mm 5,4 km/h (1 Bft) NO 45 ° 1 min 0,000 mm 6,5 UV-I 967 W/m² 14,4 °C 24,6 °C 9,7 km/h (2 Bft)
05.06.2018 14:40 24,6 °C 47 % 1006,4 hPa 0,0 mm 4,6 km/h (1 Bft) O-SO 103 ° 1 min 0,000 mm 6,5 UV-I 965 W/m² 12,5 °C 24,6 °C 6,4 km/h (2 Bft)
05.06.2018 14:41 24,4 °C 48 % 1006,5 hPa 0,0 mm 3,4 km/h (1 Bft) N 9 ° 1 min 0,000 mm 6,3 UV-I 949 W/m² 12,7 °C 24,4 °C 6,4 km/h (2 Bft)
05.06.2018 14:42 24,4 °C 48 % 1006,4 hPa 0,0 mm 4,6 km/h (1 Bft) N-NO 32 ° 1 min 0,000 mm 6,4 UV-I 940 W/m² 12,7 °C 24,4 °C 6,4 km/h (2 Bft)
05.06.2018 14:43 24,7 °C 52 % 1006,4 hPa 0,0 mm 6,9 km/h (2 Bft) N-NO 25 ° 1 min 0,000 mm 6,4 UV-I 937 W/m² 14,2 °C 24,7 °C 11,3 km/h (2 Bft)
05.06.2018 14:44 24,7 °C 48 % 1006,4 hPa 0,0 mm 5,6 km/h (1 Bft) N 360 ° 1 min 0,000 mm 6,5 UV-I 953 W/m² 12,9 °C 24,7 °C 9,7 km/h (2 Bft)
05.06.2018 14:45 24,7 °C 49 % 1006,5 hPa 0,0 mm 8,0 km/h (2 Bft) N 10 ° 1 min 0,000 mm 6,6 UV-I 977 W/m² 13,3 °C 24,7 °C 14,5 km/h (3 Bft)
05.06.2018 14:46 24,7 °C 51 % 1006,4 hPa 0,0 mm 5,6 km/h (1 Bft) N-NW 346 ° 1 min 0,000 mm 6,5 UV-I 995 W/m² 13,9 °C 24,7 °C 8,0 km/h (2 Bft)
05.06.2018 14:47 24,6 °C 48 % 1006,4 hPa 0,0 mm 1,9 km/h (1 Bft) N-NW 340 ° 1 min 0,000 mm 6,4 UV-I 1007 W/m² 12,8 °C 24,6 °C 3,2 km/h (1 Bft)
05.06.2018 14:48 24,4 °C 51 % 1006,3 hPa 0,0 mm 3,2 km/h (1 Bft) N-NW 336 ° 1 min 0,000 mm 3,2 UV-I 1007 W/m² 13,6 °C 24,4 °C 6,4 km/h (2 Bft)
05.06.2018 14:49 24,3 °C 53 % 1006,3 hPa 0,0 mm 6,7 km/h (2 Bft) N-NO 14 ° 0 min 0,000 mm 3,0 UV-I 269 W/m² 14,1 °C 24,3 °C 8,0 km/h (2 Bft)
05.06.2018 14:50 24,3 °C 52 % 1006,4 hPa 0,0 mm 9,3 km/h (2 Bft) N 355 ° 0 min 0,000 mm 2,9 UV-I 239 W/m² 13,8 °C 24,3 °C 14,5 km/h (3 Bft)
05.06.2018 14:51 24,2 °C 52 % 1006,3 hPa 0,0 mm 8,2 km/h (2 Bft) O-NO 68 ° 0 min 0,000 mm 2,8 UV-I 232 W/m² 13,7 °C 24,2 °C 12,9 km/h (3 Bft)
05.06.2018 14:52 23,9 °C 52 % 1006,4 hPa 0,0 mm 5,3 km/h (1 Bft) NO 49 ° 0 min 0,000 mm 2,6 UV-I 207 W/m² 13,4 °C 23,9 °C 11,3 km/h (2 Bft)
05.06.2018 14:53 23,8 °C 53 % 1006,4 hPa 0,0 mm 5,2 km/h (1 Bft) NO 34 ° 0 min 0,000 mm 2,5 UV-I 188 W/m² 13,6 °C 23,8 °C 8,0 km/h (2 Bft)
05.06.2018 14:54 23,6 °C 53 % 1006,5 hPa 0,0 mm 4,9 km/h (1 Bft) O 90 ° 0 min 0,000 mm 2,5 UV-I 172 W/m² 13,4 °C 23,6 °C 9,7 km/h (2 Bft)
05.06.2018 14:55 23,4 °C 53 % 1006,4 hPa 0,0 mm 4,2 km/h (1 Bft) NO 38 ° 0 min 0,000 mm 2,5 UV-I 167 W/m² 13,3 °C 23,4 °C 6,4 km/h (2 Bft)
05.06.2018 14:56 23,3 °C 55 % 1006,5 hPa 0,0 mm 3,2 km/h (1 Bft) N 5 ° 0 min 0,000 mm 2,5 UV-I 163 W/m² 13,7 °C 23,3 °C 8,0 km/h (2 Bft)
05.06.2018 14:57 23,2 °C 55 % 1006,5 hPa 0,0 mm 3,9 km/h (1 Bft) N-NO 26 ° 0 min 0,000 mm 2,5 UV-I 163 W/m² 13,6 °C 23,2 °C 6,4 km/h (2 Bft)
05.06.2018 14:58 23,0 °C 56 % 1006,5 hPa 0,0 mm 1,3 km/h (1 Bft) N-NO 26 ° 0 min 0,000 mm 2,5 UV-I 149 W/m² 13,7 °C 23,0 °C 4,8 km/h (1 Bft)
05.06.2018 14:59 22,9 °C 58 % 1006,4 hPa 0,0 mm 4,7 km/h (1 Bft) N-NO 26 ° 0 min 0,000 mm 2,5 UV-I 148 W/m² 14,2 °C 22,9 °C 9,7 km/h (2 Bft)
05.06.2018 15:00 22,8 °C 55 % 1006,4 hPa 0,0 mm 5,3 km/h (1 Bft) N 360 ° 0 min 0,000 mm 2,7 UV-I 160 W/m² 13,3 °C 22,8 °C 8,0 km/h (2 Bft)
05.06.2018 15:01 22,8 °C 56 % 1006,4 hPa 0,0 mm 3,0 km/h (1 Bft) N 10 ° 0 min 0,457 mm 2,7 UV-I 169 W/m² 13,6 °C 22,8 °C 6,4 km/h (2 Bft)
05.06.2018 15:02 22,8 °C 56 % 1006,4 hPa 0,0 mm 4,5 km/h (1 Bft) N 5 ° 0 min 0,000 mm 2,7 UV-I 160 W/m² 13,6 °C 22,8 °C 6,4 km/h (2 Bft)
05.06.2018 15:03 22,8 °C 56 % 1006,4 hPa 0,0 mm 5,3 km/h (1 Bft) N 355 ° 0 min 0,000 mm 2,9 UV-I 181 W/m² 13,6 °C 22,8 °C 8,0 km/h (2 Bft)
05.06.2018 15:04 22,8 °C 55 % 1006,4 hPa 0,0 mm 4,0 km/h (1 Bft) N-NO 13 ° 0 min 0,000 mm 5,2 UV-I 181 W/m² 13,3 °C 22,8 °C 6,4 km/h (2 Bft)
05.06.2018 15:05 22,9 °C 57 % 1006,4 hPa 0,0 mm 1,3 km/h (1 Bft) O-NO 61 ° 1 min 0,000 mm 5,4 UV-I 868 W/m² 13,9 °C 22,9 °C 6,4 km/h (2 Bft)
05.06.2018 15:06 23,1 °C 54 % 1006,4 hPa 0,0 mm 3,4 km/h (1 Bft) O 79 ° 1 min 0,000 mm 5,8 UV-I 863 W/m² 13,3 °C 23,1 °C 4,8 km/h (1 Bft)
05.06.2018 15:07 23,3 °C 54 % 1006,3 hPa 0,0 mm 3,2 km/h (1 Bft) NO 40 ° 1 min 0,000 mm 5,8 UV-I 870 W/m² 13,5 °C 23,3 °C 4,8 km/h (1 Bft)
05.06.2018 15:08 23,5 °C 54 % 1006,3 hPa 0,0 mm 4,2 km/h (1 Bft) N 355 ° 1 min 0,000 mm 5,9 UV-I 875 W/m² 13,6 °C 23,5 °C 6,4 km/h (2 Bft)
05.06.2018 15:09 23,7 °C 53 % 1006,3 hPa 0,0 mm 4,3 km/h (1 Bft) NW 321 ° 1 min 0,000 mm 5,9 UV-I 884 W/m² 13,5 °C 23,7 °C 6,4 km/h (2 Bft)
05.06.2018 15:10 23,8 °C 52 % 1006,3 hPa 0,0 mm 4,4 km/h (1 Bft) NW 324 ° 1 min 0,000 mm 5,9 UV-I 889 W/m² 13,3 °C 23,8 °C 6,4 km/h (2 Bft)
05.06.2018 15:11 23,9 °C 55 % 1006,3 hPa 0,0 mm 6,2 km/h (2 Bft) NO 38 ° 1 min 0,000 mm 5,9 UV-I 882 W/m² 14,3 °C 23,9 °C 9,7 km/h (2 Bft)
05.06.2018 15:12 24,0 °C 49 % 1006,3 hPa 0,0 mm 1,8 km/h (1 Bft) NO 37 ° 1 min 0,000 mm 5,8 UV-I 884 W/m² 12,6 °C 24,0 °C 3,2 km/h (1 Bft)
05.06.2018 15:13 24,1 °C 49 % 1006,2 hPa 0,0 mm 0,0 km/h (0 Bft) NO 38 ° 1 min 0,000 mm 5,8 UV-I 888 W/m² 12,7 °C 24,1 °C 0,0 km/h (0 Bft)
05.06.2018 15:14 24,2 °C 51 % 1006,2 hPa 0,0 mm 0,0 km/h (0 Bft) NO 38 ° 1 min 0,000 mm 5,8 UV-I 896 W/m² 13,4 °C 24,2 °C 0,0 km/h (0 Bft)
05.06.2018 15:15 24,2 °C 50 % 1006,2 hPa 0,0 mm 0,7 km/h (0 Bft) NO 38 ° 1 min 0,000 mm 5,8 UV-I 898 W/m² 13,1 °C 24,2 °C 3,2 km/h (1 Bft)
05.06.2018 15:16 24,2 °C 50 % 1006,2 hPa 0,0 mm 5,6 km/h (1 Bft) N-NO 30 ° 1 min 0,000 mm 5,9 UV-I 846 W/m² 13,1 °C 24,2 °C 12,9 km/h (3 Bft)
05.06.2018 15:17 24,3 °C 50 % 1006,2 hPa 0,0 mm 5,1 km/h (1 Bft) N-NW 329 ° 1 min 0,000 mm 5,7 UV-I 891 W/m² 13,2 °C 24,3 °C 12,9 km/h (3 Bft)
05.06.2018 15:18 24,4 °C 48 % 1006,2 hPa 0,0 mm 13,6 km/h (3 Bft) NO 39 ° 1 min 0,000 mm 5,6 UV-I 891 W/m² 12,7 °C 24,4 °C 17,7 km/h (3 Bft)
05.06.2018 15:19 24,4 °C 48 % 1006,3 hPa 0,0 mm 11,1 km/h (2 Bft) N-NO 25 ° 1 min 0,000 mm 3,4 UV-I 891 W/m² 12,7 °C 24,4 °C 17,7 km/h (3 Bft)
05.06.2018 15:20 24,4 °C 47 % 1006,3 hPa 0,0 mm 10,0 km/h (2 Bft) N-NO 27 ° 0 min 0,000 mm 3,1 UV-I 246 W/m² 12,3 °C 24,4 °C 17,7 km/h (3 Bft)
05.06.2018 15:21 24,3 °C 47 % 1006,2 hPa 0,0 mm 3,6 km/h (1 Bft) O-NO 76 ° 0 min 0,000 mm 3,0 UV-I 246 W/m² 12,3 °C 24,3 °C 6,4 km/h (2 Bft)
05.06.2018 15:22 24,3 °C 50 % 1006,2 hPa 0,0 mm 0,9 km/h (0 Bft) O-NO 76 ° 0 min 0,000 mm 2,8 UV-I 193 W/m² 13,2 °C 24,3 °C 3,2 km/h (1 Bft)
05.06.2018 15:23 24,1 °C 48 % 1006,3 hPa 0,0 mm 3,4 km/h (1 Bft) O-NO 72 ° 0 min 0,000 mm 2,6 UV-I 178 W/m² 12,4 °C 24,1 °C 6,4 km/h (2 Bft)
05.06.2018 15:24 23,9 °C 48 % 1006,2 hPa 0,0 mm 3,7 km/h (1 Bft) O-NO 71 ° 0 min 0,000 mm 2,5 UV-I 171 W/m² 12,2 °C 23,9 °C 6,4 km/h (2 Bft)
05.06.2018 15:25 23,8 °C 48 % 1006,2 hPa 0,0 mm 0,1 km/h (0 Bft) O-NO 71 ° 0 min 0,000 mm 2,5 UV-I 174 W/m² 12,1 °C 23,8 °C 1,6 km/h (1 Bft)
05.06.2018 15:26 23,6 °C 51 % 1006,2 hPa 0,0 mm 2,5 km/h (1 Bft) O-NO 70 ° 0 min 0,000 mm 2,5 UV-I 181 W/m² 12,9 °C 23,6 °C 3,2 km/h (1 Bft)
05.06.2018 15:27 23,4 °C 58 % 1006,2 hPa 0,0 mm 2,7 km/h (1 Bft) O-NO 71 ° 0 min 0,000 mm 2,5 UV-I 188 W/m² 14,7 °C 23,4 °C 4,8 km/h (1 Bft)
05.06.2018 15:28 23,3 °C 49 % 1006,2 hPa 0,0 mm 3,9 km/h (1 Bft) O-NO 62 ° 0 min 0,000 mm 2,5 UV-I 202 W/m² 12,0 °C 23,3 °C 6,4 km/h (2 Bft)
05.06.2018 15:29 23,3 °C 55 % 1006,3 hPa 0,0 mm 7,7 km/h (2 Bft) O 101 ° 0 min 0,000 mm 2,4 UV-I 202 W/m² 13,7 °C 23,3 °C 14,5 km/h (3 Bft)
05.06.2018 15:30 23,2 °C 53 % 1006,3 hPa 0,0 mm 11,6 km/h (2 Bft) O-NO 62 ° 0 min 0,000 mm 2,3 UV-I 204 W/m² 13,1 °C 23,2 °C 16,1 km/h (3 Bft)
05.06.2018 15:31 23,3 °C 53 % 1006,3 hPa 0,0 mm 8,0 km/h (2 Bft) NO 46 ° 0 min 0,000 mm 2,3 UV-I 204 W/m² 13,2 °C 23,3 °C 12,9 km/h (3 Bft)
05.06.2018 15:32 23,3 °C 53 % 1006,3 hPa 0,0 mm 6,0 km/h (2 Bft) O 94 ° 0 min 0,000 mm 2,3 UV-I 200 W/m² 13,2 °C 23,3 °C 8,0 km/h (2 Bft)
05.06.2018 15:33 23,3 °C 53 % 1006,3 hPa 0,0 mm 7,3 km/h (2 Bft) NW 317 ° 0 min 0,000 mm 2,2 UV-I 202 W/m² 13,2 °C 23,3 °C 12,9 km/h (3 Bft)
05.06.2018 15:34 23,3 °C 53 % 1006,3 hPa 0,0 mm 7,8 km/h (2 Bft) O-SO 102 ° 0 min 0,000 mm 2,1 UV-I 156 W/m² 13,2 °C 23,3 °C 14,5 km/h (3 Bft)
05.06.2018 15:35 23,2 °C 54 % 1006,3 hPa 0,0 mm 10,2 km/h (2 Bft) NO 48 ° 0 min 0,000 mm 2,0 UV-I 144 W/m² 13,4 °C 23,2 °C 17,7 km/h (3 Bft)
05.06.2018 15:36 23,1 °C 54 % 1006,3 hPa 0,0 mm 6,4 km/h (2 Bft) O-NO 78 ° 0 min 0,000 mm 2,0 UV-I 134 W/m² 13,3 °C 23,1 °C 14,5 km/h (3 Bft)
05.06.2018 15:37 23,0 °C 54 % 1006,3 hPa 0,0 mm 7,2 km/h (2 Bft) NO 41 ° 0 min 0,000 mm 1,9 UV-I 123 W/m² 13,2 °C 23,0 °C 12,9 km/h (3 Bft)
05.06.2018 15:38 22,9 °C 57 % 1006,3 hPa 0,0 mm 2,1 km/h (1 Bft) O-NO 72 ° 0 min 0,000 mm 1,8 UV-I 113 W/m² 13,9 °C 22,9 °C 6,4 km/h (2 Bft)
05.06.2018 15:39 22,8 °C 55 % 1006,3 hPa 0,0 mm 2,8 km/h (1 Bft) NO 49 ° 0 min 0,000 mm 1,8 UV-I 105 W/m² 13,3 °C 22,8 °C 6,4 km/h (2 Bft)
05.06.2018 15:40 22,8 °C 54 % 1006,3 hPa 0,0 mm 3,8 km/h (1 Bft) NW 317 ° 0 min 0,000 mm 1,8 UV-I 95 W/m² 13,0 °C 22,8 °C 9,7 km/h (2 Bft)
05.06.2018 15:41 22,7 °C 55 % 1006,3 hPa 0,0 mm 6,5 km/h (2 Bft) NO 42 ° 0 min 0,000 mm 1,7 UV-I 95 W/m² 13,2 °C 22,7 °C 8,0 km/h (2 Bft)
05.06.2018 15:42 22,7 °C 56 % 1006,3 hPa 0,0 mm 6,2 km/h (2 Bft) N 360 ° 0 min 0,000 mm 1,8 UV-I 100 W/m² 13,5 °C 22,7 °C 11,3 km/h (2 Bft)
05.06.2018 15:43 22,7 °C 54 % 1006,3 hPa 0,0 mm 6,8 km/h (2 Bft) N-NO 20 ° 0 min 0,000 mm 1,8 UV-I 107 W/m² 12,9 °C 22,7 °C 8,0 km/h (2 Bft)
05.06.2018 15:44 22,7 °C 54 % 1006,3 hPa 0,0 mm 5,4 km/h (1 Bft) N 360 ° 0 min 0,000 mm 1,9 UV-I 116 W/m² 12,9 °C 22,7 °C 8,0 km/h (2 Bft)
05.06.2018 15:45 22,8 °C 55 % 1006,3 hPa 0,0 mm 7,2 km/h (2 Bft) N 11 ° 0 min 0,000 mm 1,9 UV-I 123 W/m² 13,3 °C 22,8 °C 12,9 km/h (3 Bft)
05.06.2018 15:46 22,7 °C 54 % 1006,3 hPa 0,0 mm 6,0 km/h (2 Bft) N-NO 16 ° 0 min 0,000 mm 1,9 UV-I 100 W/m² 12,9 °C 22,7 °C 11,3 km/h (2 Bft)
05.06.2018 15:47 22,7 °C 55 % 1006,3 hPa 0,0 mm 4,7 km/h (1 Bft) N-NO 31 ° 0 min 0,000 mm 1,9 UV-I 125 W/m² 13,2 °C 22,7 °C 8,0 km/h (2 Bft)
05.06.2018 15:48 22,7 °C 55 % 1006,2 hPa 0,0 mm 5,9 km/h (2 Bft) N-NO 19 ° 0 min 0,000 mm 2,0 UV-I 123 W/m² 13,2 °C 22,7 °C 8,0 km/h (2 Bft)
05.06.2018 15:49 22,7 °C 56 % 1006,2 hPa 0,0 mm 2,5 km/h (1 Bft) O 88 ° 0 min 0,000 mm 2,0 UV-I 123 W/m² 13,5 °C 22,7 °C 4,8 km/h (1 Bft)
05.06.2018 15:50 22,6 °C 56 % 1006,2 hPa 0,0 mm 2,5 km/h (1 Bft) N 11 ° 0 min 0,000 mm 2,0 UV-I 121 W/m² 13,4 °C 22,6 °C 4,8 km/h (1 Bft)
05.06.2018 15:51 22,6 °C 55 % 1006,2 hPa 0,0 mm 0,1 km/h (0 Bft) N 11 ° 0 min 0,000 mm 2,0 UV-I 134 W/m² 13,1 °C 22,6 °C 1,6 km/h (1 Bft)
05.06.2018 15:52 22,6 °C 55 % 1006,3 hPa 0,0 mm 1,5 km/h (1 Bft) N 11 ° 0 min 0,000 mm 2,2 UV-I 139 W/m² 13,1 °C 22,6 °C 3,2 km/h (1 Bft)
05.06.2018 15:53 22,6 °C 54 % 1006,2 hPa 0,0 mm 3,6 km/h (1 Bft) N-NW 348 ° 0 min 0,000 mm 2,2 UV-I 137 W/m² 12,8 °C 22,6 °C 6,4 km/h (2 Bft)
05.06.2018 15:54 22,5 °C 54 % 1006,2 hPa 0,0 mm 2,8 km/h (1 Bft) N 9 ° 0 min 0,000 mm 2,2 UV-I 135 W/m² 12,7 °C 22,5 °C 4,8 km/h (1 Bft)
05.06.2018 15:55 22,6 °C 54 % 1006,2 hPa 0,0 mm 4,3 km/h (1 Bft) N-NW 339 ° 0 min 0,000 mm 2,2 UV-I 135 W/m² 12,8 °C 22,6 °C 6,4 km/h (2 Bft)
05.06.2018 15:56 22,6 °C 56 % 1006,1 hPa 0,0 mm 1,4 km/h (1 Bft) N-NW 339 ° 0 min 0,000 mm 2,5 UV-I 135 W/m² 13,4 °C 22,6 °C 4,8 km/h (1 Bft)
05.06.2018 15:57 22,6 °C 56 % 1006,1 hPa 0,0 mm 2,5 km/h (1 Bft) N 5 ° 1 min 0,000 mm 4,0 UV-I 784 W/m² 13,4 °C 22,6 °C 4,8 km/h (1 Bft)
05.06.2018 15:58 22,7 °C 56 % 1006,1 hPa 0,0 mm 3,6 km/h (1 Bft) N-NO 20 ° 1 min 0,000 mm 4,0 UV-I 719 W/m² 13,5 °C 22,7 °C 6,4 km/h (2 Bft)
05.06.2018 15:59 22,9 °C 55 % 1006,1 hPa 0,0 mm 3,6 km/h (1 Bft) N-NO 24 ° 1 min 0,000 mm 2,7 UV-I 719 W/m² 13,4 °C 22,9 °C 8,0 km/h (2 Bft)
05.06.2018 16:00 23,0 °C 54 % 1006,1 hPa 0,0 mm 1,9 km/h (1 Bft) NW 313 ° 0 min 0,000 mm 2,8 UV-I 211 W/m² 13,2 °C 23,0 °C 3,2 km/h (1 Bft)
05.06.2018 16:01 23,1 °C 54 % 1006,1 hPa 0,0 mm 0,1 km/h (0 Bft) NW 313 ° 0 min 0,254 mm 4,1 UV-I 211 W/m² 13,3 °C 23,1 °C 1,6 km/h (1 Bft)
05.06.2018 16:02 23,2 °C 57 % 1006,1 hPa 0,0 mm 3,2 km/h (1 Bft) N-NO 26 ° 0 min 0,000 mm 4,2 UV-I 211 W/m² 14,2 °C 23,2 °C 8,0 km/h (2 Bft)
05.06.2018 16:03 23,3 °C 53 % 1006,0 hPa 0,0 mm 6,2 km/h (2 Bft) NO 34 ° 1 min 0,000 mm 4,3 UV-I 784 W/m² 13,2 °C 23,3 °C 11,3 km/h (2 Bft)
05.06.2018 16:04 23,4 °C 54 % 1006,0 hPa 0,0 mm 3,9 km/h (1 Bft) N-NW 335 ° 1 min 0,000 mm 4,3 UV-I 789 W/m² 13,6 °C 23,4 °C 4,8 km/h (1 Bft)
05.06.2018 16:05 23,6 °C 52 % 1006,0 hPa 0,0 mm 7,7 km/h (2 Bft) NW 311 ° 1 min 0,000 mm 4,3 UV-I 795 W/m² 13,2 °C 23,6 °C 12,9 km/h (3 Bft)
05.06.2018 16:06 23,8 °C 54 % 1006,0 hPa 0,0 mm 6,7 km/h (2 Bft) W-NW 299 ° 1 min 0,000 mm 4,2 UV-I 793 W/m² 13,9 °C 23,8 °C 11,3 km/h (2 Bft)
05.06.2018 16:07 23,8 °C 51 % 1006,0 hPa 0,0 mm 6,4 km/h (2 Bft) W-NW 290 ° 1 min 0,000 mm 3,7 UV-I 793 W/m² 13,0 °C 23,8 °C 8,0 km/h (2 Bft)
05.06.2018 16:08 23,8 °C 53 % 1005,9 hPa 0,0 mm 2,7 km/h (1 Bft) NO 45 ° 1 min 0,000 mm 3,4 UV-I 631 W/m² 13,6 °C 23,8 °C 4,8 km/h (1 Bft)
05.06.2018 16:09 23,9 °C 52 % 1006,0 hPa 0,0 mm 4,3 km/h (1 Bft) N-NO 17 ° 1 min 0,000 mm 2,9 UV-I 631 W/m² 13,4 °C 23,9 °C 6,4 km/h (2 Bft)
05.06.2018 16:10 23,9 °C 51 % 1006,0 hPa 0,0 mm 7,2 km/h (2 Bft) N-NW 328 ° 0 min 0,000 mm 2,9 UV-I 272 W/m² 13,1 °C 23,9 °C 11,3 km/h (2 Bft)
05.06.2018 16:11 24,0 °C 51 % 1006,0 hPa 0,0 mm 5,0 km/h (1 Bft) NO 44 ° 0 min 0,000 mm 2,7 UV-I 230 W/m² 13,2 °C 24,0 °C 8,0 km/h (2 Bft)
05.06.2018 16:12 24,1 °C 51 % 1006,0 hPa 0,0 mm 8,6 km/h (2 Bft) N-NO 25 ° 0 min 0,000 mm 2,6 UV-I 236 W/m² 13,3 °C 24,1 °C 16,1 km/h (3 Bft)
05.06.2018 16:13 24,3 °C 51 % 1006,0 hPa 0,0 mm 7,3 km/h (2 Bft) N-NO 12 ° 0 min 0,000 mm 2,5 UV-I 225 W/m² 13,5 °C 24,3 °C 12,9 km/h (3 Bft)
05.06.2018 16:14 24,3 °C 51 % 1006,0 hPa 0,0 mm 7,2 km/h (2 Bft) N-NO 26 ° 0 min 0,000 mm 2,3 UV-I 197 W/m² 13,5 °C 24,3 °C 11,3 km/h (2 Bft)
05.06.2018 16:15 24,2 °C 49 % 1006,0 hPa 0,0 mm 6,7 km/h (2 Bft) O 87 ° 0 min 0,000 mm 2,2 UV-I 193 W/m² 12,8 °C 24,2 °C 9,7 km/h (2 Bft)
05.06.2018 16:16 24,1 °C 48 % 1005,9 hPa 0,0 mm 2,3 km/h (1 Bft) O-NO 63 ° 0 min 0,000 mm 2,1 UV-I 192 W/m² 12,4 °C 24,1 °C 4,8 km/h (1 Bft)
05.06.2018 16:17 23,9 °C 49 % 1006,0 hPa 0,0 mm 5,9 km/h (2 Bft) O-NO 75 ° 0 min 0,000 mm 2,1 UV-I 192 W/m² 12,5 °C 23,9 °C 11,3 km/h (2 Bft)
05.06.2018 16:18 23,9 °C 51 % 1006,0 hPa 0,0 mm 7,4 km/h (2 Bft) O-NO 78 ° 0 min 0,000 mm 2,0 UV-I 179 W/m² 13,1 °C 23,9 °C 11,3 km/h (2 Bft)
05.06.2018 16:19 23,8 °C 51 % 1006,0 hPa 0,0 mm 3,8 km/h (1 Bft) O-NO 78 ° 0 min 0,000 mm 2,0 UV-I 174 W/m² 13,0 °C 23,8 °C 6,4 km/h (2 Bft)
05.06.2018 16:20 23,6 °C 51 % 1006,0 hPa 0,0 mm 6,5 km/h (2 Bft) O 83 ° 0 min 0,000 mm 2,0 UV-I 172 W/m² 12,9 °C 23,6 °C 11,3 km/h (2 Bft)
05.06.2018 16:21 23,6 °C 51 % 1006,0 hPa 0,0 mm 5,9 km/h (2 Bft) O-NO 62 ° 0 min 0,000 mm 2,0 UV-I 183 W/m² 12,9 °C 23,6 °C 14,5 km/h (3 Bft)
05.06.2018 16:22 23,4 °C 52 % 1006,0 hPa 0,0 mm 6,2 km/h (2 Bft) NO 44 ° 0 min 0,000 mm 2,0 UV-I 181 W/m² 13,0 °C 23,4 °C 8,0 km/h (2 Bft)
05.06.2018 16:23 23,4 °C 50 % 1006,0 hPa 0,0 mm 4,2 km/h (1 Bft) N-NO 26 ° 0 min 0,000 mm 2,0 UV-I 178 W/m² 12,4 °C 23,4 °C 6,4 km/h (2 Bft)
05.06.2018 16:24 23,4 °C 51 % 1006,1 hPa 0,0 mm 2,4 km/h (1 Bft) N-NO 12 ° 0 min 0,000 mm 2,1 UV-I 176 W/m² 12,7 °C 23,4 °C 3,2 km/h (1 Bft)
05.06.2018 16:25 23,4 °C 50 % 1006,0 hPa 0,0 mm 3,5 km/h (1 Bft) NO 34 ° 0 min 0,000 mm 2,1 UV-I 172 W/m² 12,4 °C 23,4 °C 4,8 km/h (1 Bft)
05.06.2018 16:26 23,4 °C 51 % 1006,0 hPa 0,0 mm 3,6 km/h (1 Bft) NO 35 ° 0 min 0,000 mm 2,1 UV-I 160 W/m² 12,7 °C 23,4 °C 4,8 km/h (1 Bft)
05.06.2018 16:27 23,4 °C 52 % 1006,1 hPa 0,0 mm 1,7 km/h (1 Bft) NO 34 ° 0 min 0,000 mm 2,1 UV-I 156 W/m² 13,0 °C 23,4 °C 6,4 km/h (2 Bft)
05.06.2018 16:28 23,4 °C 48 % 1006,0 hPa 0,0 mm 2,3 km/h (1 Bft) N 5 ° 0 min 0,000 mm 2,2 UV-I 156 W/m² 11,8 °C 23,4 °C 6,4 km/h (2 Bft)
05.06.2018 16:29 23,3 °C 50 % 1006,0 hPa 0,0 mm 3,9 km/h (1 Bft) N-NO 18 ° 0 min 0,000 mm 2,2 UV-I 153 W/m² 12,3 °C 23,3 °C 6,4 km/h (2 Bft)
05.06.2018 16:30 23,3 °C 50 % 1006,0 hPa 0,0 mm 5,0 km/h (1 Bft) O 100 ° 0 min 0,000 mm 2,2 UV-I 148 W/m² 12,3 °C 23,3 °C 11,3 km/h (2 Bft)
05.06.2018 16:31 23,3 °C 52 % 1005,9 hPa 0,0 mm 5,5 km/h (1 Bft) O-NO 64 ° 0 min 0,000 mm 2,2 UV-I 151 W/m² 12,9 °C 23,3 °C 6,4 km/h (2 Bft)
05.06.2018 16:32 23,3 °C 49 % 1006,0 hPa 0,0 mm 8,2 km/h (2 Bft) N-NO 20 ° 0 min 0,000 mm 2,3 UV-I 156 W/m² 12,0 °C 23,3 °C 14,5 km/h (3 Bft)
05.06.2018 16:33 23,3 °C 49 % 1006,0 hPa 0,0 mm 4,3 km/h (1 Bft) N-NO 27 ° 0 min 0,000 mm 2,3 UV-I 151 W/m² 12,0 °C 23,3 °C 8,0 km/h (2 Bft)
05.06.2018 16:34 23,4 °C 50 % 1005,9 hPa 0,0 mm 4,0 km/h (1 Bft) O-NO 59 ° 0 min 0,000 mm 2,4 UV-I 141 W/m² 12,4 °C 23,4 °C 6,4 km/h (2 Bft)
05.06.2018 16:35 23,6 °C 51 % 1005,9 hPa 0,0 mm 7,2 km/h (2 Bft) O-NO 68 ° 0 min 0,000 mm 2,3 UV-I 146 W/m² 12,9 °C 23,6 °C 11,3 km/h (2 Bft)
05.06.2018 16:36 23,6 °C 49 % 1006,0 hPa 0,0 mm 8,2 km/h (2 Bft) NO 48 ° 0 min 0,000 mm 2,3 UV-I 134 W/m² 12,2 °C 23,6 °C 16,1 km/h (3 Bft)
05.06.2018 16:37 23,7 °C 51 % 1006,0 hPa 0,0 mm 8,1 km/h (2 Bft) O-NO 65 ° 0 min 0,000 mm 2,3 UV-I 132 W/m² 13,0 °C 23,7 °C 14,5 km/h (3 Bft)
05.06.2018 16:38 23,7 °C 48 % 1005,9 hPa 0,0 mm 7,6 km/h (2 Bft) O 83 ° 0 min 0,000 mm 2,3 UV-I 130 W/m² 12,0 °C 23,7 °C 11,3 km/h (2 Bft)
05.06.2018 16:39 23,7 °C 51 % 1005,9 hPa 0,0 mm 8,7 km/h (2 Bft) O-NO 65 ° 0 min 0,000 mm 2,3 UV-I 130 W/m² 13,0 °C 23,7 °C 12,9 km/h (3 Bft)
05.06.2018 16:40 23,8 °C 48 % 1005,9 hPa 0,0 mm 8,6 km/h (2 Bft) O-NO 71 ° 0 min 0,000 mm 2,3 UV-I 130 W/m² 12,1 °C 23,8 °C 11,3 km/h (2 Bft)
05.06.2018 16:41 23,8 °C 50 % 1005,9 hPa 0,0 mm 7,8 km/h (2 Bft) NO 37 ° 0 min 0,000 mm 2,3 UV-I 130 W/m² 12,7 °C 23,8 °C 9,7 km/h (2 Bft)
05.06.2018 16:42 23,9 °C 49 % 1005,9 hPa 0,0 mm 8,0 km/h (2 Bft) NO 42 ° 0 min 0,000 mm 2,3 UV-I 128 W/m² 12,5 °C 23,9 °C 11,3 km/h (2 Bft)
05.06.2018 16:43 24,0 °C 49 % 1005,9 hPa 0,0 mm 5,8 km/h (2 Bft) N-NO 30 ° 0 min 0,000 mm 2,3 UV-I 125 W/m² 12,6 °C 24,0 °C 11,3 km/h (2 Bft)
05.06.2018 16:44 24,1 °C 49 % 1005,9 hPa 0,0 mm 7,0 km/h (2 Bft) NO 35 ° 0 min 0,000 mm 2,2 UV-I 125 W/m² 12,7 °C 24,1 °C 16,1 km/h (3 Bft)
05.06.2018 16:45 24,1 °C 48 % 1006,0 hPa 0,0 mm 10,9 km/h (2 Bft) O 94 ° 0 min 0,000 mm 2,3 UV-I 128 W/m² 12,4 °C 24,1 °C 19,3 km/h (3 Bft)
05.06.2018 16:46 24,0 °C 48 % 1005,9 hPa 0,0 mm 6,1 km/h (2 Bft) O-NO 74 ° 0 min 0,000 mm 2,3 UV-I 134 W/m² 12,3 °C 24,0 °C 9,7 km/h (2 Bft)
05.06.2018 16:48 23,9 °C 48 % 1005,9 hPa 0,0 mm 7,1 km/h (2 Bft) NO 44 ° 0 min 0,000 mm 2,3 UV-I 142 W/m² 12,2 °C 23,9 °C 11,3 km/h (2 Bft)
05.06.2018 16:49 23,9 °C 48 % 1005,9 hPa 0,0 mm 5,0 km/h (1 Bft) N 355 ° 0 min 0,000 mm 2,3 UV-I 144 W/m² 12,2 °C 23,9 °C 8,0 km/h (2 Bft)
05.06.2018 16:50 24,0 °C 48 % 1005,8 hPa 0,0 mm 6,1 km/h (2 Bft) O 99 ° 0 min 0,000 mm 2,2 UV-I 132 W/m² 12,3 °C 24,0 °C 9,7 km/h (2 Bft)
05.06.2018 16:51 24,0 °C 48 % 1005,8 hPa 0,0 mm 8,4 km/h (2 Bft) O-NO 66 ° 0 min 0,000 mm 2,2 UV-I 135 W/m² 12,3 °C 24,0 °C 12,9 km/h (3 Bft)
05.06.2018 16:52 24,0 °C 48 % 1005,8 hPa 0,0 mm 5,0 km/h (1 Bft) N 360 ° 0 min 0,000 mm 2,2 UV-I 146 W/m² 12,3 °C 24,0 °C 8,0 km/h (2 Bft)
05.06.2018 16:53 23,9 °C 48 % 1005,8 hPa 0,0 mm 8,3 km/h (2 Bft) O 90 ° 0 min 0,000 mm 2,2 UV-I 155 W/m² 12,2 °C 23,9 °C 14,5 km/h (3 Bft)
05.06.2018 16:54 23,9 °C 49 % 1005,8 hPa 0,0 mm 7,6 km/h (2 Bft) O 99 ° 0 min 0,000 mm 2,1 UV-I 156 W/m² 12,5 °C 23,9 °C 12,9 km/h (3 Bft)
05.06.2018 16:55 24,0 °C 52 % 1005,8 hPa 0,0 mm 5,4 km/h (1 Bft) O 96 ° 0 min 0,000 mm 1,9 UV-I 146 W/m² 13,5 °C 24,0 °C 11,3 km/h (2 Bft)
05.06.2018 16:56 24,1 °C 50 % 1005,9 hPa 0,0 mm 6,4 km/h (2 Bft) N-NO 24 ° 0 min 0,000 mm 1,8 UV-I 109 W/m² 13,0 °C 24,1 °C 9,7 km/h (2 Bft)
05.06.2018 16:57 24,2 °C 50 % 1005,9 hPa 0,0 mm 6,2 km/h (2 Bft) NO 47 ° 0 min 0,000 mm 1,7 UV-I 97 W/m² 13,1 °C 24,2 °C 8,0 km/h (2 Bft)
05.06.2018 16:58 24,2 °C 49 % 1006,0 hPa 0,0 mm 9,4 km/h (2 Bft) N-NW 346 ° 0 min 0,000 mm 1,6 UV-I 91 W/m² 12,8 °C 24,2 °C 16,1 km/h (3 Bft)
05.06.2018 16:59 24,1 °C 47 % 1006,0 hPa 0,0 mm 9,7 km/h (2 Bft) N-NO 15 ° 0 min 0,000 mm 1,6 UV-I 88 W/m² 12,1 °C 24,1 °C 16,1 km/h (3 Bft)
05.06.2018 17:00 23,9 °C 48 % 1006,0 hPa 0,0 mm 5,3 km/h (1 Bft) N-NO 13 ° 0 min 0,000 mm 1,6 UV-I 86 W/m² 12,2 °C 23,9 °C 8,0 km/h (2 Bft)
05.06.2018 17:01 23,8 °C 48 % 1006,0 hPa 0,0 mm 7,6 km/h (2 Bft) N-NO 33 ° 0 min 0,203 mm 1,6 UV-I 88 W/m² 12,1 °C 23,8 °C 9,7 km/h (2 Bft)
05.06.2018 17:02 23,7 °C 48 % 1006,0 hPa 0,0 mm 5,9 km/h (2 Bft) N-NO 28 ° 0 min 0,000 mm 1,6 UV-I 90 W/m² 12,0 °C 23,7 °C 8,0 km/h (2 Bft)
05.06.2018 17:03 23,6 °C 50 % 1006,0 hPa 0,0 mm 7,6 km/h (2 Bft) O-NO 78 ° 0 min 0,000 mm 1,6 UV-I 93 W/m² 12,6 °C 23,6 °C 11,3 km/h (2 Bft)
05.06.2018 17:04 23,4 °C 49 % 1006,0 hPa 0,0 mm 8,3 km/h (2 Bft) O 100 ° 0 min 0,000 mm 1,6 UV-I 93 W/m² 12,1 °C 23,4 °C 12,9 km/h (3 Bft)
05.06.2018 17:05 23,3 °C 49 % 1006,0 hPa 0,0 mm 1,4 km/h (1 Bft) O-NO 71 ° 0 min 0,000 mm 1,6 UV-I 95 W/m² 12,0 °C 23,3 °C 4,8 km/h (1 Bft)
05.06.2018 17:06 23,1 °C 51 % 1006,0 hPa 0,0 mm 2,9 km/h (1 Bft) SO 141 ° 0 min 0,000 mm 1,6 UV-I 98 W/m² 12,4 °C 23,1 °C 4,8 km/h (1 Bft)
05.06.2018 17:07 22,9 °C 50 % 1006,0 hPa 0,0 mm 0,3 km/h (0 Bft) SO 141 ° 0 min 0,000 mm 1,6 UV-I 102 W/m² 11,9 °C 22,9 °C 1,6 km/h (1 Bft)
05.06.2018 17:08 22,9 °C 50 % 1006,1 hPa 0,0 mm 0,0 km/h (0 Bft) SO 141 ° 0 min 0,000 mm 1,6 UV-I 105 W/m² 11,9 °C 22,9 °C 0,0 km/h (0 Bft)
05.06.2018 17:09 22,8 °C 52 % 1006,0 hPa 0,0 mm 1,7 km/h (1 Bft) O 93 ° 0 min 0,000 mm 1,6 UV-I 107 W/m² 12,4 °C 22,8 °C 3,2 km/h (1 Bft)
05.06.2018 17:10 22,8 °C 50 % 1006,1 hPa 0,0 mm 1,7 km/h (1 Bft) O 93 ° 0 min 0,000 mm 1,6 UV-I 107 W/m² 11,8 °C 22,8 °C 4,8 km/h (1 Bft)
05.06.2018 17:11 22,7 °C 55 % 1006,0 hPa 0,0 mm 1,9 km/h (1 Bft) O-NO 75 ° 0 min 0,000 mm 1,6 UV-I 109 W/m² 13,2 °C 22,7 °C 4,8 km/h (1 Bft)
05.06.2018 17:12 22,6 °C 53 % 1006,1 hPa 0,0 mm 0,9 km/h (0 Bft) O-NO 75 ° 0 min 0,000 mm 1,7 UV-I 111 W/m² 12,5 °C 22,6 °C 3,2 km/h (1 Bft)
05.06.2018 17:13 22,4 °C 57 % 1006,1 hPa 0,0 mm 1,0 km/h (0 Bft) O-NO 75 ° 0 min 0,000 mm 1,7 UV-I 111 W/m² 13,5 °C 22,4 °C 1,6 km/h (1 Bft)
05.06.2018 17:14 22,3 °C 54 % 1006,1 hPa 0,0 mm 2,8 km/h (1 Bft) O 97 ° 0 min 0,000 mm 1,7 UV-I 114 W/m² 12,5 °C 22,3 °C 4,8 km/h (1 Bft)
05.06.2018 17:15 22,4 °C 52 % 1006,0 hPa 0,0 mm 0,3 km/h (0 Bft) O 97 ° 0 min 0,000 mm 1,8 UV-I 118 W/m² 12,1 °C 22,4 °C 3,2 km/h (1 Bft)
05.06.2018 17:16 22,4 °C 52 % 1006,0 hPa 0,0 mm 0,0 km/h (0 Bft) O 97 ° 0 min 0,000 mm 1,8 UV-I 121 W/m² 12,1 °C 22,4 °C 0,0 km/h (0 Bft)
05.06.2018 17:17 22,6 °C 54 % 1006,0 hPa 0,0 mm 0,2 km/h (0 Bft) O 97 ° 0 min 0,000 mm 1,8 UV-I 127 W/m² 12,8 °C 22,6 °C 1,6 km/h (1 Bft)
05.06.2018 17:18 22,7 °C 51 % 1006,0 hPa 0,0 mm 0,0 km/h (0 Bft) O 97 ° 0 min 0,000 mm 1,9 UV-I 130 W/m² 12,0 °C 22,7 °C 0,0 km/h (0 Bft)
05.06.2018 17:19 22,8 °C 54 % 1006,0 hPa 0,0 mm 3,8 km/h (1 Bft) O-NO 60 ° 0 min 0,000 mm 1,9 UV-I 153 W/m² 13,0 °C 22,8 °C 6,4 km/h (2 Bft)
05.06.2018 17:20 22,9 °C 53 % 1006,0 hPa 0,0 mm 1,5 km/h (1 Bft) O-NO 60 ° 0 min 0,000 mm 1,9 UV-I 163 W/m² 12,8 °C 22,9 °C 3,2 km/h (1 Bft)
05.06.2018 17:21 23,0 °C 53 % 1006,0 hPa 0,0 mm 1,4 km/h (1 Bft) O 90 ° 0 min 0,000 mm 1,9 UV-I 172 W/m² 12,9 °C 23,0 °C 4,8 km/h (1 Bft)
05.06.2018 17:22 23,1 °C 52 % 1006,0 hPa 0,0 mm 3,0 km/h (1 Bft) O 90 ° 0 min 0,000 mm 1,9 UV-I 172 W/m² 12,7 °C 23,1 °C 4,8 km/h (1 Bft)
05.06.2018 17:23 23,1 °C 55 % 1006,0 hPa 0,0 mm 3,9 km/h (1 Bft) O-NO 69 ° 0 min 0,000 mm 1,8 UV-I 165 W/m² 13,6 °C 23,1 °C 4,8 km/h (1 Bft)
05.06.2018 17:24 23,1 °C 54 % 1006,0 hPa 0,0 mm 4,2 km/h (1 Bft) O-NO 73 ° 0 min 0,000 mm 1,7 UV-I 155 W/m² 13,3 °C 23,1 °C 8,0 km/h (2 Bft)
05.06.2018 17:25 23,2 °C 51 % 1006,0 hPa 0,0 mm 6,4 km/h (2 Bft) N-NO 26 ° 0 min 0,000 mm 1,6 UV-I 127 W/m² 12,5 °C 23,2 °C 12,9 km/h (3 Bft)
05.06.2018 17:26 23,3 °C 52 % 1006,0 hPa 0,0 mm 4,2 km/h (1 Bft) N-NO 29 ° 0 min 0,000 mm 1,5 UV-I 118 W/m² 12,9 °C 23,3 °C 6,4 km/h (2 Bft)
05.06.2018 17:27 23,3 °C 52 % 1006,0 hPa 0,0 mm 4,4 km/h (1 Bft) O 81 ° 0 min 0,000 mm 1,5 UV-I 107 W/m² 12,9 °C 23,3 °C 6,4 km/h (2 Bft)
05.06.2018 17:28 23,3 °C 52 % 1006,0 hPa 0,0 mm 3,9 km/h (1 Bft) O-NO 62 ° 0 min 0,000 mm 1,5 UV-I 102 W/m² 12,9 °C 23,3 °C 8,0 km/h (2 Bft)
05.06.2018 17:29 23,3 °C 51 % 1006,0 hPa 0,0 mm 1,2 km/h (1 Bft) O-NO 66 ° 0 min 0,000 mm 1,5 UV-I 97 W/m² 12,6 °C 23,3 °C 4,8 km/h (1 Bft)
05.06.2018 17:30 23,3 °C 50 % 1006,0 hPa 0,0 mm 3,2 km/h (1 Bft) NO 45 ° 0 min 0,000 mm 1,5 UV-I 91 W/m² 12,3 °C 23,3 °C 9,7 km/h (2 Bft)
05.06.2018 17:31 23,3 °C 50 % 1006,0 hPa 0,0 mm 2,3 km/h (1 Bft) O-NO 68 ° 0 min 0,000 mm 1,5 UV-I 88 W/m² 12,3 °C 23,3 °C 6,4 km/h (2 Bft)
05.06.2018 17:32 23,3 °C 51 % 1006,0 hPa 0,0 mm 2,7 km/h (1 Bft) O-SO 102 ° 0 min 0,000 mm 1,5 UV-I 88 W/m² 12,6 °C 23,3 °C 4,8 km/h (1 Bft)
05.06.2018 17:33 23,2 °C 54 % 1006,0 hPa 0,0 mm 4,5 km/h (1 Bft) O-NO 77 ° 0 min 0,000 mm 1,5 UV-I 93 W/m² 13,4 °C 23,2 °C 8,0 km/h (2 Bft)
05.06.2018 17:34 23,1 °C 52 % 1006,1 hPa 0,0 mm 4,2 km/h (1 Bft) O 80 ° 0 min 0,000 mm 1,6 UV-I 102 W/m² 12,7 °C 23,1 °C 6,4 km/h (2 Bft)
05.06.2018 17:35 22,9 °C 52 % 1006,1 hPa 0,0 mm 4,6 km/h (1 Bft) O 84 ° 0 min 0,000 mm 1,6 UV-I 111 W/m² 12,5 °C 22,9 °C 6,4 km/h (2 Bft)
05.06.2018 17:36 22,9 °C 51 % 1006,0 hPa 0,0 mm 2,0 km/h (1 Bft) SO 137 ° 0 min 0,000 mm 1,6 UV-I 114 W/m² 12,2 °C 22,9 °C 6,4 km/h (2 Bft)
05.06.2018 17:37 22,8 °C 50 % 1006,0 hPa 0,0 mm 1,5 km/h (1 Bft) SO 137 ° 0 min 0,000 mm 1,6 UV-I 118 W/m² 11,8 °C 22,8 °C 3,2 km/h (1 Bft)
05.06.2018 17:38 22,8 °C 51 % 1006,0 hPa 0,0 mm 4,8 km/h (1 Bft) O-NO 63 ° 0 min 0,000 mm 1,6 UV-I 116 W/m² 12,1 °C 22,8 °C 9,7 km/h (2 Bft)
05.06.2018 17:39 22,7 °C 51 % 1006,0 hPa 0,0 mm 4,8 km/h (1 Bft) N 355 ° 0 min 0,000 mm 1,5 UV-I 114 W/m² 12,0 °C 22,7 °C 8,0 km/h (2 Bft)
05.06.2018 17:40 22,7 °C 52 % 1006,0 hPa 0,0 mm 2,7 km/h (1 Bft) O 92 ° 0 min 0,000 mm 1,5 UV-I 113 W/m² 12,3 °C 22,7 °C 6,4 km/h (2 Bft)
05.06.2018 17:41 22,7 °C 51 % 1006,0 hPa 0,0 mm 0,7 km/h (0 Bft) O 92 ° 0 min 0,000 mm 1,5 UV-I 111 W/m² 12,0 °C 22,7 °C 3,2 km/h (1 Bft)
05.06.2018 17:42 22,6 °C 51 % 1006,0 hPa 0,0 mm 1,9 km/h (1 Bft) O-SO 111 ° 0 min 0,000 mm 1,5 UV-I 104 W/m² 11,9 °C 22,6 °C 11,3 km/h (2 Bft)
05.06.2018 17:43 22,5 °C 51 % 1006,0 hPa 0,0 mm 3,0 km/h (1 Bft) O-NO 61 ° 0 min 0,000 mm 1,5 UV-I 102 W/m² 11,8 °C 22,5 °C 6,4 km/h (2 Bft)
05.06.2018 17:44 22,5 °C 52 % 1006,0 hPa 0,0 mm 3,4 km/h (1 Bft) SO 138 ° 0 min 0,000 mm 1,5 UV-I 111 W/m² 12,1 °C 22,5 °C 6,4 km/h (2 Bft)
05.06.2018 17:45 22,6 °C 51 % 1006,0 hPa 0,0 mm 5,9 km/h (2 Bft) S 180 ° 0 min 0,000 mm 1,5 UV-I 118 W/m² 11,9 °C 22,6 °C 11,3 km/h (2 Bft)
05.06.2018 17:46 22,6 °C 49 % 1005,9 hPa 0,0 mm 6,0 km/h (2 Bft) S-SO 156 ° 0 min 0,000 mm 1,4 UV-I 113 W/m² 11,3 °C 22,6 °C 8,0 km/h (2 Bft)
05.06.2018 17:47 22,7 °C 52 % 1006,0 hPa 0,0 mm 4,4 km/h (1 Bft) NO 53 ° 0 min 0,000 mm 1,4 UV-I 114 W/m² 12,3 °C 22,7 °C 11,3 km/h (2 Bft)
05.06.2018 17:48 22,8 °C 52 % 1006,0 hPa 0,0 mm 5,3 km/h (1 Bft) N-NO 13 ° 0 min 0,000 mm 1,4 UV-I 109 W/m² 12,4 °C 22,8 °C 8,0 km/h (2 Bft)
05.06.2018 17:49 22,9 °C 51 % 1006,0 hPa 0,0 mm 2,3 km/h (1 Bft) O-NO 63 ° 0 min 0,000 mm 1,4 UV-I 118 W/m² 12,2 °C 22,9 °C 4,8 km/h (1 Bft)
05.06.2018 17:50 23,1 °C 52 % 1006,0 hPa 0,0 mm 4,3 km/h (1 Bft) NO 46 ° 0 min 0,000 mm 1,4 UV-I 118 W/m² 12,7 °C 23,1 °C 8,0 km/h (2 Bft)
05.06.2018 17:51 23,1 °C 52 % 1006,1 hPa 0,0 mm 7,6 km/h (2 Bft) O 97 ° 0 min 0,000 mm 1,5 UV-I 120 W/m² 12,7 °C 23,1 °C 17,7 km/h (3 Bft)
05.06.2018 17:52 23,1 °C 50 % 1006,0 hPa 0,0 mm 6,2 km/h (2 Bft) N-NO 23 ° 0 min 0,000 mm 1,5 UV-I 121 W/m² 12,1 °C 23,1 °C 11,3 km/h (2 Bft)
05.06.2018 17:53 23,1 °C 50 % 1006,1 hPa 0,0 mm 4,8 km/h (1 Bft) W-NW 283 ° 0 min 0,000 mm 1,5 UV-I 125 W/m² 12,1 °C 23,1 °C 6,4 km/h (2 Bft)
05.06.2018 17:54 23,2 °C 51 % 1006,0 hPa 0,0 mm 6,9 km/h (2 Bft) O 96 ° 0 min 0,000 mm 1,5 UV-I 130 W/m² 12,5 °C 23,2 °C 12,9 km/h (3 Bft)
05.06.2018 17:55 23,2 °C 49 % 1006,0 hPa 0,0 mm 2,7 km/h (1 Bft) O-NO 65 ° 0 min 0,000 mm 1,5 UV-I 132 W/m² 11,9 °C 23,2 °C 4,8 km/h (1 Bft)
05.06.2018 17:56 23,2 °C 50 % 1006,0 hPa 0,0 mm 6,1 km/h (2 Bft) N-NO 15 ° 0 min 0,000 mm 1,5 UV-I 139 W/m² 12,2 °C 23,2 °C 9,7 km/h (2 Bft)
05.06.2018 17:57 23,3 °C 48 % 1006,0 hPa 0,0 mm 7,3 km/h (2 Bft) NO 54 ° 0 min 0,000 mm 1,5 UV-I 135 W/m² 11,7 °C 23,3 °C 14,5 km/h (3 Bft)
05.06.2018 17:58 23,4 °C 47 % 1006,1 hPa 0,0 mm 8,0 km/h (2 Bft) NO 36 ° 0 min 0,000 mm 1,5 UV-I 134 W/m² 11,4 °C 23,4 °C 14,5 km/h (3 Bft)
05.06.2018 17:59 23,4 °C 49 % 1006,0 hPa 0,0 mm 7,4 km/h (2 Bft) NO 38 ° 0 min 0,000 mm 1,5 UV-I 130 W/m² 12,1 °C 23,4 °C 14,5 km/h (3 Bft)
05.06.2018 18:00 23,5 °C 48 % 1006,1 hPa 0,0 mm 7,6 km/h (2 Bft) NO 50 ° 0 min 0,000 mm 1,5 UV-I 120 W/m² 11,8 °C 23,5 °C 14,5 km/h (3 Bft)
05.06.2018 18:01 23,5 °C 47 % 1006,0 hPa 0,0 mm 3,6 km/h (1 Bft) N-NO 23 ° 0 min 0,102 mm 1,5 UV-I 114 W/m² 11,5 °C 23,5 °C 8,0 km/h (2 Bft)
05.06.2018 18:02 23,6 °C 49 % 1006,0 hPa 0,0 mm 1,8 km/h (1 Bft) NO 53 ° 0 min 0,000 mm 1,5 UV-I 111 W/m² 12,2 °C 23,6 °C 4,8 km/h (1 Bft)
05.06.2018 18:03 23,6 °C 49 % 1006,0 hPa 0,0 mm 5,0 km/h (1 Bft) O-NO 71 ° 0 min 0,000 mm 1,5 UV-I 109 W/m² 12,2 °C 23,6 °C 8,0 km/h (2 Bft)
05.06.2018 18:04 23,6 °C 48 % 1006,0 hPa 0,0 mm 6,0 km/h (2 Bft) O-NO 67 ° 0 min 0,000 mm 1,5 UV-I 109 W/m² 11,9 °C 23,6 °C 11,3 km/h (2 Bft)
05.06.2018 18:05 23,7 °C 48 % 1006,0 hPa 0,0 mm 5,5 km/h (1 Bft) O-NO 71 ° 0 min 0,000 mm 1,4 UV-I 111 W/m² 12,0 °C 23,7 °C 8,0 km/h (2 Bft)
05.06.2018 18:06 23,7 °C 47 % 1006,0 hPa 0,0 mm 11,3 km/h (2 Bft) O-NO 77 ° 0 min 0,000 mm 1,5 UV-I 113 W/m² 11,7 °C 23,7 °C 16,1 km/h (3 Bft)
05.06.2018 18:07 23,7 °C 48 % 1006,0 hPa 0,0 mm 3,3 km/h (1 Bft) NO 39 ° 0 min 0,000 mm 1,4 UV-I 114 W/m² 12,0 °C 23,7 °C 6,4 km/h (2 Bft)
05.06.2018 18:08 23,7 °C 49 % 1006,0 hPa 0,0 mm 1,2 km/h (1 Bft) NO 39 ° 0 min 0,000 mm 1,4 UV-I 113 W/m² 12,3 °C 23,7 °C 1,6 km/h (1 Bft)
05.06.2018 18:09 23,8 °C 49 % 1006,0 hPa 0,0 mm 3,1 km/h (1 Bft) N 360 ° 0 min 0,000 mm 1,4 UV-I 109 W/m² 12,4 °C 23,8 °C 8,0 km/h (2 Bft)
05.06.2018 18:10 23,8 °C 49 % 1006,0 hPa 0,0 mm 6,9 km/h (2 Bft) O-SO 110 ° 0 min 0,000 mm 1,4 UV-I 107 W/m² 12,4 °C 23,8 °C 12,9 km/h (3 Bft)
05.06.2018 18:11 23,8 °C 47 % 1006,0 hPa 0,0 mm 7,6 km/h (2 Bft) O-NO 76 ° 0 min 0,000 mm 1,4 UV-I 104 W/m² 11,8 °C 23,8 °C 12,9 km/h (3 Bft)
05.06.2018 18:12 23,9 °C 48 % 1006,0 hPa 0,0 mm 4,5 km/h (1 Bft) NO 54 ° 0 min 0,000 mm 1,4 UV-I 98 W/m² 12,2 °C 23,9 °C 6,4 km/h (2 Bft)
05.06.2018 18:13 23,9 °C 48 % 1006,0 hPa 0,0 mm 3,4 km/h (1 Bft) O-NO 74 ° 0 min 0,000 mm 1,4 UV-I 97 W/m² 12,2 °C 23,9 °C 4,8 km/h (1 Bft)
05.06.2018 18:14 23,9 °C 48 % 1006,0 hPa 0,0 mm 4,4 km/h (1 Bft) N 351 ° 0 min 0,000 mm 1,3 UV-I 98 W/m² 12,2 °C 23,9 °C 8,0 km/h (2 Bft)
05.06.2018 18:15 23,9 °C 46 % 1005,9 hPa 0,0 mm 8,2 km/h (2 Bft) NO 49 ° 0 min 0,000 mm 1,3 UV-I 98 W/m² 11,6 °C 23,9 °C 11,3 km/h (2 Bft)
05.06.2018 18:16 23,9 °C 45 % 1005,9 hPa 0,0 mm 7,3 km/h (2 Bft) N-NW 336 ° 0 min 0,000 mm 1,3 UV-I 98 W/m² 11,2 °C 23,9 °C 9,7 km/h (2 Bft)
05.06.2018 18:17 23,9 °C 47 % 1005,9 hPa 0,0 mm 6,5 km/h (2 Bft) O-NO 63 ° 0 min 0,000 mm 1,3 UV-I 100 W/m² 11,9 °C 23,9 °C 9,7 km/h (2 Bft)
05.06.2018 18:18 23,9 °C 47 % 1005,9 hPa 0,0 mm 6,5 km/h (2 Bft) O-NO 61 ° 0 min 0,000 mm 1,3 UV-I 98 W/m² 11,9 °C 23,9 °C 12,9 km/h (3 Bft)
05.06.2018 18:19 23,8 °C 46 % 1005,9 hPa 0,0 mm 8,8 km/h (2 Bft) O-NO 59 ° 0 min 0,000 mm 1,3 UV-I 98 W/m² 11,5 °C 23,8 °C 12,9 km/h (3 Bft)
05.06.2018 18:20 23,8 °C 46 % 1005,9 hPa 0,0 mm 8,5 km/h (2 Bft) NO 40 ° 0 min 0,000 mm 1,3 UV-I 102 W/m² 11,5 °C 23,8 °C 14,5 km/h (3 Bft)
05.06.2018 18:21 23,8 °C 46 % 1005,9 hPa 0,0 mm 5,8 km/h (2 Bft) O-NO 77 ° 0 min 0,000 mm 1,3 UV-I 97 W/m² 11,5 °C 23,8 °C 14,5 km/h (3 Bft)
05.06.2018 18:22 23,7 °C 47 % 1006,0 hPa 0,0 mm 9,7 km/h (2 Bft) O 96 ° 0 min 0,000 mm 1,3 UV-I 97 W/m² 11,7 °C 23,7 °C 17,7 km/h (3 Bft)
05.06.2018 18:23 23,7 °C 48 % 1005,9 hPa 0,0 mm 7,8 km/h (2 Bft) N 360 ° 0 min 0,000 mm 1,3 UV-I 95 W/m² 12,0 °C 23,7 °C 12,9 km/h (3 Bft)
05.06.2018 18:24 23,7 °C 48 % 1005,9 hPa 0,0 mm 5,1 km/h (1 Bft) N 355 ° 0 min 0,000 mm 1,3 UV-I 95 W/m² 12,0 °C 23,7 °C 6,4 km/h (2 Bft)
05.06.2018 18:25 23,6 °C 48 % 1006,0 hPa 0,0 mm 8,0 km/h (2 Bft) N 355 ° 0 min 0,000 mm 1,2 UV-I 95 W/m² 11,9 °C 23,6 °C 16,1 km/h (3 Bft)
05.06.2018 18:26 23,7 °C 48 % 1006,0 hPa 0,0 mm 9,5 km/h (2 Bft) N-NW 331 ° 0 min 0,000 mm 1,2 UV-I 104 W/m² 12,0 °C 23,7 °C 17,7 km/h (3 Bft)
05.06.2018 18:27 23,7 °C 49 % 1006,0 hPa 0,0 mm 7,2 km/h (2 Bft) N 11 ° 0 min 0,000 mm 1,2 UV-I 91 W/m² 12,3 °C 23,7 °C 14,5 km/h (3 Bft)
05.06.2018 18:28 23,7 °C 48 % 1006,0 hPa 0,0 mm 6,0 km/h (2 Bft) NO 38 ° 0 min 0,000 mm 1,2 UV-I 91 W/m² 12,0 °C 23,7 °C 11,3 km/h (2 Bft)
05.06.2018 18:29 23,7 °C 49 % 1006,0 hPa 0,0 mm 2,9 km/h (1 Bft) NO 47 ° 0 min 0,000 mm 1,2 UV-I 86 W/m² 12,3 °C 23,7 °C 4,8 km/h (1 Bft)
05.06.2018 18:30 23,6 °C 50 % 1006,0 hPa 0,0 mm 5,3 km/h (1 Bft) N 5 ° 0 min 0,000 mm 1,2 UV-I 125 W/m² 12,6 °C 23,6 °C 9,7 km/h (2 Bft)
05.06.2018 18:31 23,6 °C 50 % 1006,0 hPa 0,0 mm 5,3 km/h (1 Bft) N 360 ° 0 min 0,000 mm 1,2 UV-I 128 W/m² 12,6 °C 23,6 °C 9,7 km/h (2 Bft)
05.06.2018 18:32 23,6 °C 49 % 1006,0 hPa 0,0 mm 1,9 km/h (1 Bft) N 360 ° 0 min 0,000 mm 1,2 UV-I 95 W/m² 12,2 °C 23,6 °C 3,2 km/h (1 Bft)
05.06.2018 18:33 23,6 °C 49 % 1006,0 hPa 0,0 mm 3,1 km/h (1 Bft) O-NO 63 ° 0 min 0,000 mm 1,2 UV-I 142 W/m² 12,2 °C 23,6 °C 4,8 km/h (1 Bft)
05.06.2018 18:34 23,6 °C 49 % 1005,9 hPa 0,0 mm 4,6 km/h (1 Bft) O-NO 67 ° 0 min 0,000 mm 1,3 UV-I 206 W/m² 12,2 °C 23,6 °C 8,0 km/h (2 Bft)
05.06.2018 18:35 23,6 °C 48 % 1006,0 hPa 0,0 mm 6,0 km/h (2 Bft) N-NO 28 ° 0 min 0,000 mm 1,2 UV-I 121 W/m² 11,9 °C 23,6 °C 11,3 km/h (2 Bft)
05.06.2018 18:36 23,6 °C 50 % 1006,0 hPa 0,0 mm 2,3 km/h (1 Bft) N 5 ° 0 min 0,000 mm 1,3 UV-I 276 W/m² 12,6 °C 23,6 °C 3,2 km/h (1 Bft)
05.06.2018 18:37 23,6 °C 51 % 1006,0 hPa 0,0 mm 1,1 km/h (1 Bft) N 10 ° 0 min 0,000 mm 1,3 UV-I 278 W/m² 12,9 °C 23,6 °C 3,2 km/h (1 Bft)
05.06.2018 18:38 23,6 °C 50 % 1006,0 hPa 0,0 mm 3,1 km/h (1 Bft) N 355 ° 0 min 0,000 mm 1,3 UV-I 250 W/m² 12,6 °C 23,6 °C 4,8 km/h (1 Bft)
05.06.2018 18:39 23,5 °C 49 % 1006,0 hPa 0,0 mm 6,7 km/h (2 Bft) N-NO 16 ° 0 min 0,000 mm 1,3 UV-I 239 W/m² 12,2 °C 23,5 °C 14,5 km/h (3 Bft)
05.06.2018 18:40 23,5 °C 51 % 1006,0 hPa 0,0 mm 4,8 km/h (1 Bft) N 5 ° 0 min 0,000 mm 1,3 UV-I 250 W/m² 12,8 °C 23,5 °C 6,4 km/h (2 Bft)
05.06.2018 18:41 23,6 °C 50 % 1006,0 hPa 0,0 mm 4,9 km/h (1 Bft) O-NO 75 ° 0 min 0,000 mm 1,3 UV-I 227 W/m² 12,6 °C 23,6 °C 6,4 km/h (2 Bft)
05.06.2018 18:42 23,6 °C 50 % 1006,0 hPa 0,0 mm 4,4 km/h (1 Bft) NO 56 ° 0 min 0,000 mm 1,2 UV-I 253 W/m² 12,6 °C 23,6 °C 8,0 km/h (2 Bft)
05.06.2018 18:43 23,6 °C 49 % 1006,0 hPa 0,0 mm 1,4 km/h (1 Bft) NO 56 ° 0 min 0,000 mm 1,2 UV-I 265 W/m² 12,2 °C 23,6 °C 3,2 km/h (1 Bft)
05.06.2018 18:44 23,6 °C 52 % 1006,0 hPa 0,0 mm 2,1 km/h (1 Bft) NO 56 ° 0 min 0,000 mm 1,2 UV-I 264 W/m² 13,2 °C 23,6 °C 4,8 km/h (1 Bft)
05.06.2018 18:45 23,4 °C 50 % 1006,0 hPa 0,0 mm 2,7 km/h (1 Bft) O-NO 57 ° 0 min 0,000 mm 1,2 UV-I 264 W/m² 12,4 °C 23,4 °C 4,8 km/h (1 Bft)
05.06.2018 18:46 23,4 °C 50 % 1006,0 hPa 0,0 mm 2,3 km/h (1 Bft) NO 56 ° 0 min 0,000 mm 1,2 UV-I 262 W/m² 12,4 °C 23,4 °C 4,8 km/h (1 Bft)
05.06.2018 18:47 23,4 °C 53 % 1006,1 hPa 0,0 mm 1,4 km/h (1 Bft) O-NO 59 ° 0 min 0,000 mm 1,2 UV-I 248 W/m² 13,3 °C 23,4 °C 3,2 km/h (1 Bft)
05.06.2018 18:48 23,4 °C 51 % 1006,0 hPa 0,0 mm 2,8 km/h (1 Bft) N 11 ° 0 min 0,000 mm 1,1 UV-I 229 W/m² 12,7 °C 23,4 °C 4,8 km/h (1 Bft)
05.06.2018 18:49 23,4 °C 53 % 1006,0 hPa 0,0 mm 4,4 km/h (1 Bft) N 349 ° 0 min 0,000 mm 1,1 UV-I 237 W/m² 13,3 °C 23,4 °C 8,0 km/h (2 Bft)
05.06.2018 18:50 23,4 °C 51 % 1006,0 hPa 0,0 mm 5,2 km/h (1 Bft) N-NO 18 ° 0 min 0,000 mm 1,1 UV-I 239 W/m² 12,7 °C 23,4 °C 8,0 km/h (2 Bft)
05.06.2018 18:51 23,4 °C 51 % 1006,1 hPa 0,0 mm 3,1 km/h (1 Bft) N-NO 15 ° 0 min 0,000 mm 1,1 UV-I 227 W/m² 12,7 °C 23,4 °C 4,8 km/h (1 Bft)
05.06.2018 18:52 23,3 °C 51 % 1006,0 hPa 0,0 mm 6,3 km/h (2 Bft) N 349 ° 0 min 0,000 mm 1,1 UV-I 237 W/m² 12,6 °C 23,3 °C 8,0 km/h (2 Bft)
05.06.2018 18:53 23,3 °C 50 % 1006,0 hPa 0,0 mm 5,2 km/h (1 Bft) O 92 ° 0 min 0,000 mm 1,1 UV-I 204 W/m² 12,3 °C 23,3 °C 6,4 km/h (2 Bft)
05.06.2018 18:54 23,3 °C 49 % 1006,1 hPa 0,0 mm 5,2 km/h (1 Bft) N 360 ° 0 min 0,000 mm 1,1 UV-I 227 W/m² 12,0 °C 23,3 °C 6,4 km/h (2 Bft)
05.06.2018 18:55 23,4 °C 51 % 1006,1 hPa 0,0 mm 2,3 km/h (1 Bft) N 360 ° 0 min 0,000 mm 1,1 UV-I 236 W/m² 12,7 °C 23,4 °C 4,8 km/h (1 Bft)
05.06.2018 18:56 23,4 °C 51 % 1006,1 hPa 0,0 mm 6,4 km/h (2 Bft) N 5 ° 0 min 0,000 mm 1,0 UV-I 234 W/m² 12,7 °C 23,4 °C 11,3 km/h (2 Bft)
05.06.2018 18:57 23,4 °C 50 % 1006,1 hPa 0,0 mm 4,7 km/h (1 Bft) NO 54 ° 0 min 0,000 mm 1,0 UV-I 229 W/m² 12,4 °C 23,4 °C 6,4 km/h (2 Bft)
05.06.2018 18:58 23,4 °C 53 % 1006,0 hPa 0,0 mm 2,0 km/h (1 Bft) NO 54 ° 0 min 0,000 mm 1,0 UV-I 221 W/m² 13,3 °C 23,4 °C 4,8 km/h (1 Bft)
05.06.2018 18:59 23,3 °C 50 % 1006,0 hPa 0,0 mm 0,0 km/h (0 Bft) NO 54 ° 0 min 0,000 mm 1,0 UV-I 220 W/m² 12,3 °C 23,3 °C 0,0 km/h (0 Bft)
05.06.2018 19:00 23,3 °C 51 % 1006,0 hPa 0,0 mm 1,9 km/h (1 Bft) NO 54 ° 0 min 0,000 mm 1,0 UV-I 220 W/m² 12,6 °C 23,3 °C 3,2 km/h (1 Bft)
05.06.2018 19:01 23,3 °C 51 % 1006,1 hPa 0,0 mm 2,7 km/h (1 Bft) O 87 ° 0 min 0,152 mm 1,0 UV-I 220 W/m² 12,6 °C 23,3 °C 6,4 km/h (2 Bft)
05.06.2018 19:02 23,3 °C 51 % 1006,0 hPa 0,0 mm 11,8 km/h (2 Bft) NO 41 ° 0 min 0,000 mm 1,0 UV-I 220 W/m² 12,6 °C 23,3 °C 16,1 km/h (3 Bft)
05.06.2018 19:03 23,3 °C 49 % 1006,1 hPa 0,0 mm 8,8 km/h (2 Bft) NO 40 ° 0 min 0,000 mm 1,0 UV-I 216 W/m² 12,0 °C 23,3 °C 14,5 km/h (3 Bft)
05.06.2018 19:04 23,3 °C 49 % 1006,1 hPa 0,0 mm 6,8 km/h (2 Bft) O-NO 77 ° 0 min 0,000 mm 0,9 UV-I 214 W/m² 12,0 °C 23,3 °C 12,9 km/h (3 Bft)
05.06.2018 19:05 23,4 °C 49 % 1006,1 hPa 0,0 mm 3,9 km/h (1 Bft) NO 44 ° 0 min 0,000 mm 0,9 UV-I 186 W/m² 12,1 °C 23,4 °C 9,7 km/h (2 Bft)
05.06.2018 19:06 23,3 °C 49 % 1006,1 hPa 0,0 mm 2,7 km/h (1 Bft) O-NO 63 ° 0 min 0,000 mm 0,9 UV-I 148 W/m² 12,0 °C 23,3 °C 11,3 km/h (2 Bft)
05.06.2018 19:07 23,3 °C 49 % 1006,1 hPa 0,0 mm 6,6 km/h (2 Bft) NO 56 ° 0 min 0,000 mm 0,9 UV-I 202 W/m² 12,0 °C 23,3 °C 9,7 km/h (2 Bft)
05.06.2018 19:08 23,3 °C 50 % 1006,1 hPa 0,0 mm 6,4 km/h (2 Bft) O 89 ° 0 min 0,000 mm 0,9 UV-I 174 W/m² 12,3 °C 23,3 °C 8,0 km/h (2 Bft)
05.06.2018 19:09 23,3 °C 50 % 1006,1 hPa 0,0 mm 5,4 km/h (1 Bft) SO 127 ° 0 min 0,000 mm 0,9 UV-I 207 W/m² 12,3 °C 23,3 °C 11,3 km/h (2 Bft)
05.06.2018 19:10 23,3 °C 49 % 1006,1 hPa 0,0 mm 10,9 km/h (2 Bft) O-NO 62 ° 0 min 0,000 mm 0,9 UV-I 207 W/m² 12,0 °C 23,3 °C 16,1 km/h (3 Bft)
05.06.2018 19:11 23,3 °C 49 % 1006,1 hPa 0,0 mm 6,1 km/h (2 Bft) O 84 ° 0 min 0,000 mm 0,9 UV-I 204 W/m² 12,0 °C 23,3 °C 9,7 km/h (2 Bft)
05.06.2018 19:12 23,3 °C 49 % 1006,1 hPa 0,0 mm 4,3 km/h (1 Bft) O-SO 108 ° 0 min 0,000 mm 0,9 UV-I 200 W/m² 12,0 °C 23,3 °C 9,7 km/h (2 Bft)
05.06.2018 19:13 23,3 °C 50 % 1006,1 hPa 0,0 mm 4,3 km/h (1 Bft) N-NO 20 ° 0 min 0,000 mm 0,8 UV-I 197 W/m² 12,3 °C 23,3 °C 6,4 km/h (2 Bft)
05.06.2018 19:14 23,3 °C 50 % 1006,1 hPa 0,0 mm 3,8 km/h (1 Bft) N 360 ° 0 min 0,000 mm 0,8 UV-I 195 W/m² 12,3 °C 23,3 °C 8,0 km/h (2 Bft)
05.06.2018 19:15 23,3 °C 49 % 1006,1 hPa 0,0 mm 2,6 km/h (1 Bft) NO 46 ° 0 min 0,000 mm 0,8 UV-I 192 W/m² 12,0 °C 23,3 °C 6,4 km/h (2 Bft)
05.06.2018 19:16 23,3 °C 49 % 1006,1 hPa 0,0 mm 5,4 km/h (1 Bft) NO 48 ° 0 min 0,000 mm 0,8 UV-I 186 W/m² 12,0 °C 23,3 °C 8,0 km/h (2 Bft)
05.06.2018 19:17 23,3 °C 49 % 1006,1 hPa 0,0 mm 5,6 km/h (1 Bft) O-NO 77 ° 0 min 0,000 mm 0,8 UV-I 186 W/m² 12,0 °C 23,3 °C 11,3 km/h (2 Bft)
05.06.2018 19:18 23,3 °C 49 % 1006,1 hPa 0,0 mm 6,8 km/h (2 Bft) O 83 ° 0 min 0,000 mm 0,8 UV-I 181 W/m² 12,0 °C 23,3 °C 11,3 km/h (2 Bft)
05.06.2018 19:19 23,3 °C 51 % 1006,2 hPa 0,0 mm 6,4 km/h (2 Bft) O-SO 117 ° 0 min 0,000 mm 0,8 UV-I 181 W/m² 12,6 °C 23,3 °C 12,9 km/h (3 Bft)
05.06.2018 19:20 23,3 °C 50 % 1006,1 hPa 0,0 mm 6,0 km/h (2 Bft) N 355 ° 0 min 0,000 mm 0,7 UV-I 179 W/m² 12,3 °C 23,3 °C 9,7 km/h (2 Bft)
05.06.2018 19:21 23,3 °C 50 % 1006,2 hPa 0,0 mm 3,2 km/h (1 Bft) NO 50 ° 0 min 0,000 mm 0,7 UV-I 178 W/m² 12,3 °C 23,3 °C 4,8 km/h (1 Bft)
05.06.2018 19:22 23,3 °C 49 % 1006,1 hPa 0,0 mm 2,9 km/h (1 Bft) NO 34 ° 0 min 0,000 mm 0,7 UV-I 176 W/m² 12,0 °C 23,3 °C 3,2 km/h (1 Bft)
05.06.2018 19:23 23,3 °C 50 % 1006,1 hPa 0,0 mm 5,5 km/h (1 Bft) O-NO 62 ° 0 min 0,000 mm 0,7 UV-I 169 W/m² 12,3 °C 23,3 °C 12,9 km/h (3 Bft)
05.06.2018 19:24 23,3 °C 50 % 1006,1 hPa 0,0 mm 4,0 km/h (1 Bft) O 91 ° 0 min 0,000 mm 0,7 UV-I 167 W/m² 12,3 °C 23,3 °C 6,4 km/h (2 Bft)
05.06.2018 19:25 23,3 °C 49 % 1006,1 hPa 0,0 mm 6,4 km/h (2 Bft) NO 52 ° 0 min 0,000 mm 0,7 UV-I 165 W/m² 12,0 °C 23,3 °C 11,3 km/h (2 Bft)
05.06.2018 19:26 23,3 °C 50 % 1006,1 hPa 0,0 mm 2,3 km/h (1 Bft) NO 52 ° 0 min 0,000 mm 0,7 UV-I 163 W/m² 12,3 °C 23,3 °C 4,8 km/h (1 Bft)
05.06.2018 19:27 23,3 °C 50 % 1006,1 hPa 0,0 mm 6,7 km/h (2 Bft) O-NO 58 ° 0 min 0,000 mm 0,7 UV-I 160 W/m² 12,3 °C 23,3 °C 12,9 km/h (3 Bft)
05.06.2018 19:28 23,3 °C 50 % 1006,2 hPa 0,0 mm 7,1 km/h (2 Bft) N-NO 28 ° 0 min 0,000 mm 0,7 UV-I 155 W/m² 12,3 °C 23,3 °C 9,7 km/h (2 Bft)
05.06.2018 19:29 23,3 °C 49 % 1006,2 hPa 0,0 mm 3,2 km/h (1 Bft) NO 40 ° 0 min 0,000 mm 0,6 UV-I 151 W/m² 12,0 °C 23,3 °C 4,8 km/h (1 Bft)
05.06.2018 19:30 23,3 °C 49 % 1006,2 hPa 0,0 mm 5,4 km/h (1 Bft) O-NO 67 ° 0 min 0,000 mm 0,6 UV-I 148 W/m² 12,0 °C 23,3 °C 8,0 km/h (2 Bft)
05.06.2018 19:31 23,3 °C 49 % 1006,2 hPa 0,0 mm 6,4 km/h (2 Bft) NO 45 ° 0 min 0,000 mm 0,6 UV-I 146 W/m² 12,0 °C 23,3 °C 8,0 km/h (2 Bft)
05.06.2018 19:32 23,3 °C 50 % 1006,1 hPa 0,0 mm 4,0 km/h (1 Bft) NO 56 ° 0 min 0,000 mm 0,6 UV-I 146 W/m² 12,3 °C 23,3 °C 4,8 km/h (1 Bft)
05.06.2018 19:33 23,2 °C 51 % 1006,1 hPa 0,0 mm 0,2 km/h (0 Bft) NO 56 ° 0 min 0,000 mm 0,6 UV-I 146 W/m² 12,5 °C 23,2 °C 1,6 km/h (1 Bft)
05.06.2018 19:34 23,2 °C 51 % 1006,2 hPa 0,0 mm 1,6 km/h (1 Bft) NO 56 ° 0 min 0,000 mm 0,6 UV-I 144 W/m² 12,5 °C 23,2 °C 3,2 km/h (1 Bft)
05.06.2018 19:35 23,2 °C 50 % 1006,0 hPa 0,0 mm 1,0 km/h (0 Bft) NO 56 ° 0 min 0,000 mm 0,6 UV-I 141 W/m² 12,2 °C 23,2 °C 1,6 km/h (1 Bft)
05.06.2018 19:36 23,1 °C 54 % 1006,1 hPa 0,0 mm 0,7 km/h (0 Bft) N-NO 17 ° 0 min 0,000 mm 0,6 UV-I 137 W/m² 13,3 °C 23,1 °C 3,2 km/h (1 Bft)
05.06.2018 19:37 23,0 °C 54 % 1006,1 hPa 0,0 mm 2,9 km/h (1 Bft) NO 39 ° 0 min 0,000 mm 0,6 UV-I 134 W/m² 13,2 °C 23,0 °C 6,4 km/h (2 Bft)
05.06.2018 19:38 23,0 °C 53 % 1006,1 hPa 0,0 mm 5,1 km/h (1 Bft) NO 46 ° 0 min 0,000 mm 0,6 UV-I 132 W/m² 12,9 °C 23,0 °C 6,4 km/h (2 Bft)
05.06.2018 19:39 22,9 °C 52 % 1006,1 hPa 0,0 mm 1,3 km/h (1 Bft) NO 46 ° 0 min 0,000 mm 0,6 UV-I 130 W/m² 12,5 °C 22,9 °C 3,2 km/h (1 Bft)
05.06.2018 19:40 22,9 °C 53 % 1006,1 hPa 0,0 mm 3,8 km/h (1 Bft) NO 41 ° 0 min 0,000 mm 0,5 UV-I 128 W/m² 12,8 °C 22,9 °C 6,4 km/h (2 Bft)
05.06.2018 19:41 22,9 °C 53 % 1006,1 hPa 0,0 mm 3,3 km/h (1 Bft) O-NO 61 ° 0 min 0,000 mm 0,5 UV-I 128 W/m² 12,8 °C 22,9 °C 6,4 km/h (2 Bft)
05.06.2018 19:42 22,9 °C 52 % 1006,1 hPa 0,0 mm 4,8 km/h (1 Bft) N-NO 24 ° 0 min 0,000 mm 0,5 UV-I 127 W/m² 12,5 °C 22,9 °C 8,0 km/h (2 Bft)
05.06.2018 19:43 22,9 °C 52 % 1006,2 hPa 0,0 mm 3,3 km/h (1 Bft) NO 36 ° 0 min 0,000 mm 0,5 UV-I 127 W/m² 12,5 °C 22,9 °C 4,8 km/h (1 Bft)
05.06.2018 19:44 22,9 °C 51 % 1006,2 hPa 0,0 mm 2,2 km/h (1 Bft) O-NO 72 ° 0 min 0,000 mm 0,5 UV-I 125 W/m² 12,2 °C 22,9 °C 4,8 km/h (1 Bft)
05.06.2018 19:45 22,9 °C 52 % 1006,2 hPa 0,0 mm 2,8 km/h (1 Bft) O-NO 72 ° 0 min 0,000 mm 0,5 UV-I 121 W/m² 12,5 °C 22,9 °C 4,8 km/h (1 Bft)
05.06.2018 19:46 22,9 °C 51 % 1006,1 hPa 0,0 mm 2,0 km/h (1 Bft) O-NO 72 ° 0 min 0,000 mm 0,5 UV-I 118 W/m² 12,2 °C 22,9 °C 3,2 km/h (1 Bft)
05.06.2018 19:47 22,9 °C 53 % 1006,2 hPa 0,0 mm 0,8 km/h (0 Bft) O-NO 72 ° 0 min 0,000 mm 0,5 UV-I 118 W/m² 12,8 °C 22,9 °C 3,2 km/h (1 Bft)
05.06.2018 19:48 22,8 °C 53 % 1006,1 hPa 0,0 mm 2,7 km/h (1 Bft) O-NO 72 ° 0 min 0,000 mm 0,5 UV-I 118 W/m² 12,7 °C 22,8 °C 3,2 km/h (1 Bft)
05.06.2018 19:49 22,8 °C 51 % 1006,2 hPa 0,0 mm 3,4 km/h (1 Bft) O-NO 75 ° 0 min 0,000 mm 0,5 UV-I 114 W/m² 12,1 °C 22,8 °C 4,8 km/h (1 Bft)
05.06.2018 19:50 22,8 °C 53 % 1006,1 hPa 0,0 mm 2,7 km/h (1 Bft) O 79 ° 0 min 0,000 mm 0,5 UV-I 111 W/m² 12,7 °C 22,8 °C 6,4 km/h (2 Bft)
05.06.2018 19:51 22,8 °C 52 % 1006,2 hPa 0,0 mm 4,8 km/h (1 Bft) O 95 ° 0 min 0,000 mm 0,0 UV-I 107 W/m² 12,4 °C 22,8 °C 9,7 km/h (2 Bft)
05.06.2018 19:52 22,7 °C 51 % 1006,1 hPa 0,0 mm 2,8 km/h (1 Bft) NO 55 ° 0 min 0,000 mm 0,0 UV-I 104 W/m² 12,0 °C 22,7 °C 4,8 km/h (1 Bft)
05.06.2018 19:53 22,7 °C 52 % 1006,1 hPa 0,0 mm 3,4 km/h (1 Bft) O-NO 76 ° 0 min 0,000 mm 0,0 UV-I 102 W/m² 12,3 °C 22,7 °C 4,8 km/h (1 Bft)
05.06.2018 19:54 22,7 °C 53 % 1006,1 hPa 0,0 mm 4,0 km/h (1 Bft) O-NO 58 ° 0 min 0,000 mm 0,0 UV-I 98 W/m² 12,6 °C 22,7 °C 4,8 km/h (1 Bft)
05.06.2018 19:55 22,7 °C 52 % 1006,1 hPa 0,0 mm 3,1 km/h (1 Bft) O-NO 58 ° 0 min 0,000 mm 0,0 UV-I 95 W/m² 12,3 °C 22,7 °C 4,8 km/h (1 Bft)
05.06.2018 19:56 22,7 °C 52 % 1006,1 hPa 0,0 mm 3,1 km/h (1 Bft) NO 52 ° 0 min 0,000 mm 0,0 UV-I 93 W/m² 12,3 °C 22,7 °C 4,8 km/h (1 Bft)
05.06.2018 19:57 22,6 °C 53 % 1006,1 hPa 0,0 mm 3,6 km/h (1 Bft) O 90 ° 0 min 0,000 mm 0,0 UV-I 90 W/m² 12,5 °C 22,6 °C 9,7 km/h (2 Bft)
05.06.2018 19:58 22,7 °C 52 % 1006,1 hPa 0,0 mm 5,2 km/h (1 Bft) NO 54 ° 0 min 0,000 mm 0,0 UV-I 88 W/m² 12,3 °C 22,7 °C 9,7 km/h (2 Bft)
05.06.2018 19:59 22,7 °C 53 % 1006,1 hPa 0,0 mm 5,2 km/h (1 Bft) O-NO 69 ° 0 min 0,000 mm 0,0 UV-I 81 W/m² 12,6 °C 22,7 °C 8,0 km/h (2 Bft)
05.06.2018 20:00 22,6 °C 52 % 1006,1 hPa 0,0 mm 1,9 km/h (1 Bft) O-NO 63 ° 0 min 0,000 mm 0,0 UV-I 70 W/m² 12,2 °C 22,6 °C 8,0 km/h (2 Bft)
05.06.2018 20:01 22,6 °C 54 % 1006,1 hPa 0,0 mm 2,0 km/h (1 Bft) O-SO 116 ° 0 min 0,127 mm 0,0 UV-I 60 W/m² 12,8 °C 22,6 °C 4,8 km/h (1 Bft)
05.06.2018 20:02 22,5 °C 53 % 1006,2 hPa 0,0 mm 2,2 km/h (1 Bft) O-SO 102 ° 0 min 0,000 mm 0,0 UV-I 53 W/m² 12,4 °C 22,5 °C 4,8 km/h (1 Bft)
05.06.2018 20:03 22,4 °C 55 % 1006,2 hPa 0,0 mm 1,2 km/h (1 Bft) O 93 ° 0 min 0,000 mm 0,0 UV-I 40 W/m² 12,9 °C 22,4 °C 3,2 km/h (1 Bft)
05.06.2018 20:04 22,3 °C 55 % 1006,2 hPa 0,0 mm 0,3 km/h (0 Bft) O 93 ° 0 min 0,000 mm 0,0 UV-I 37 W/m² 12,8 °C 22,3 °C 1,6 km/h (1 Bft)
05.06.2018 20:05 22,3 °C 55 % 1006,2 hPa 0,0 mm 6,4 km/h (2 Bft) O-SO 105 ° 0 min 0,000 mm 0,0 UV-I 35 W/m² 12,8 °C 22,3 °C 9,7 km/h (2 Bft)
05.06.2018 20:06 22,1 °C 58 % 1006,2 hPa 0,0 mm 4,3 km/h (1 Bft) O 85 ° 0 min 0,000 mm 0,0 UV-I 32 W/m² 13,4 °C 22,1 °C 6,4 km/h (2 Bft)
05.06.2018 20:07 22,1 °C 55 % 1006,2 hPa 0,0 mm 0,8 km/h (0 Bft) O 99 ° 0 min 0,000 mm 0,0 UV-I 28 W/m² 12,6 °C 22,1 °C 3,2 km/h (1 Bft)
05.06.2018 20:08 21,9 °C 56 % 1006,2 hPa 0,0 mm 0,1 km/h (0 Bft) O 99 ° 0 min 0,000 mm 0,0 UV-I 26 W/m² 12,7 °C 21,9 °C 1,6 km/h (1 Bft)
05.06.2018 20:09 21,8 °C 56 % 1006,2 hPa 0,0 mm 1,1 km/h (1 Bft) O 97 ° 0 min 0,000 mm 0,0 UV-I 23 W/m² 12,6 °C 21,8 °C 3,2 km/h (1 Bft)
05.06.2018 20:10 21,8 °C 56 % 1006,2 hPa 0,0 mm 0,7 km/h (0 Bft) O 97 ° 0 min 0,000 mm 0,0 UV-I 21 W/m² 12,6 °C 21,8 °C 3,2 km/h (1 Bft)
05.06.2018 20:11 21,8 °C 55 % 1006,2 hPa 0,0 mm 2,5 km/h (1 Bft) NO 41 ° 0 min 0,000 mm 0,0 UV-I 19 W/m² 12,4 °C 21,8 °C 6,4 km/h (2 Bft)
05.06.2018 20:12 21,8 °C 56 % 1006,3 hPa 0,0 mm 1,7 km/h (1 Bft) NO 41 ° 0 min 0,000 mm 0,0 UV-I 19 W/m² 12,6 °C 21,8 °C 4,8 km/h (1 Bft)
05.06.2018 20:13 21,7 °C 56 % 1006,2 hPa 0,0 mm 0,1 km/h (0 Bft) NO 41 ° 0 min 0,000 mm 0,0 UV-I 18 W/m² 12,5 °C 21,7 °C 1,6 km/h (1 Bft)
05.06.2018 20:14 21,6 °C 56 % 1006,2 hPa 0,0 mm 0,0 km/h (0 Bft) NO 41 ° 0 min 0,000 mm 0,0 UV-I 18 W/m² 12,4 °C 21,6 °C 0,0 km/h (0 Bft)
05.06.2018 20:15 21,4 °C 57 % 1006,3 hPa 0,0 mm 0,0 km/h (0 Bft) NO 41 ° 0 min 0,000 mm 0,0 UV-I 16 W/m² 12,5 °C 21,4 °C 0,0 km/h (0 Bft)
05.06.2018 20:16 21,4 °C 56 % 1006,2 hPa 0,0 mm 0,0 km/h (0 Bft) NO 41 ° 0 min 0,000 mm 0,0 UV-I 16 W/m² 12,3 °C 21,4 °C 0,0 km/h (0 Bft)
05.06.2018 20:17 21,3 °C 57 % 1006,3 hPa 0,0 mm 0,0 km/h (0 Bft) NO 41 ° 0 min 0,000 mm 0,0 UV-I 16 W/m² 12,4 °C 21,3 °C 0,0 km/h (0 Bft)
05.06.2018 20:18 21,2 °C 59 % 1006,3 hPa 0,0 mm 0,0 km/h (0 Bft) NO 41 ° 0 min 0,000 mm 0,0 UV-I 18 W/m² 12,9 °C 21,2 °C 0,0 km/h (0 Bft)
05.06.2018 20:19 21,0 °C 59 % 1006,3 hPa 0,0 mm 0,1 km/h (0 Bft) NO 41 ° 0 min 0,000 mm 0,0 UV-I 21 W/m² 12,7 °C 21,0 °C 1,6 km/h (1 Bft)
05.06.2018 20:20 20,9 °C 59 % 1006,3 hPa 0,0 mm 1,9 km/h (1 Bft) NO 41 ° 0 min 0,000 mm 0,0 UV-I 25 W/m² 12,6 °C 20,9 °C 3,2 km/h (1 Bft)
05.06.2018 20:21 20,8 °C 58 % 1006,4 hPa 0,0 mm 1,1 km/h (1 Bft) NO 41 ° 0 min 0,000 mm 0,0 UV-I 30 W/m² 12,2 °C 20,8 °C 3,2 km/h (1 Bft)
05.06.2018 20:22 20,8 °C 58 % 1006,4 hPa 0,0 mm 0,4 km/h (0 Bft) NO 41 ° 0 min 0,000 mm 0,0 UV-I 30 W/m² 12,2 °C 20,8 °C 1,6 km/h (1 Bft)
05.06.2018 20:23 20,8 °C 59 % 1006,4 hPa 0,0 mm 1,6 km/h (1 Bft) NO 41 ° 0 min 0,000 mm 0,0 UV-I 32 W/m² 12,5 °C 20,8 °C 3,2 km/h (1 Bft)
05.06.2018 20:24 20,8 °C 59 % 1006,4 hPa 0,0 mm 0,6 km/h (0 Bft) NO 41 ° 0 min 0,000 mm 0,0 UV-I 32 W/m² 12,5 °C 20,8 °C 3,2 km/h (1 Bft)
05.06.2018 20:25 20,8 °C 60 % 1006,5 hPa 0,0 mm 1,5 km/h (1 Bft) NO 41 ° 0 min 0,000 mm 0,0 UV-I 32 W/m² 12,7 °C 20,8 °C 3,2 km/h (1 Bft)
05.06.2018 20:26 20,7 °C 59 % 1006,4 hPa 0,0 mm 1,2 km/h (1 Bft) O-NO 78 ° 0 min 0,000 mm 0,0 UV-I 32 W/m² 12,4 °C 20,7 °C 3,2 km/h (1 Bft)
05.06.2018 20:27 20,7 °C 61 % 1006,4 hPa 0,0 mm 1,8 km/h (1 Bft) O-SO 112 ° 0 min 0,000 mm 0,0 UV-I 32 W/m² 12,9 °C 20,7 °C 3,2 km/h (1 Bft)
05.06.2018 20:28 20,6 °C 60 % 1006,4 hPa 0,0 mm 2,2 km/h (1 Bft) O-SO 112 ° 0 min 0,000 mm 0,0 UV-I 32 W/m² 12,6 °C 20,6 °C 4,8 km/h (1 Bft)
05.06.2018 20:29 20,6 °C 61 % 1006,5 hPa 0,0 mm 0,7 km/h (0 Bft) O-SO 112 ° 0 min 0,000 mm 0,0 UV-I 30 W/m² 12,8 °C 20,6 °C 1,6 km/h (1 Bft)
05.06.2018 20:30 20,5 °C 61 % 1006,5 hPa 0,0 mm 2,0 km/h (1 Bft) O-SO 112 ° 0 min 0,000 mm 0,0 UV-I 30 W/m² 12,7 °C 20,5 °C 4,8 km/h (1 Bft)
05.06.2018 20:31 20,5 °C 62 % 1006,5 hPa 0,0 mm 2,3 km/h (1 Bft) O-SO 112 ° 0 min 0,000 mm 0,0 UV-I 28 W/m² 13,0 °C 20,5 °C 4,8 km/h (1 Bft)
05.06.2018 20:32 20,4 °C 62 % 1006,5 hPa 0,0 mm 1,1 km/h (1 Bft) O-SO 112 ° 0 min 0,000 mm 0,0 UV-I 28 W/m² 12,9 °C 20,4 °C 3,2 km/h (1 Bft)
05.06.2018 20:33 20,3 °C 63 % 1006,5 hPa 0,0 mm 1,7 km/h (1 Bft) O-SO 112 ° 0 min 0,000 mm 0,0 UV-I 28 W/m² 13,0 °C 20,3 °C 3,2 km/h (1 Bft)
05.06.2018 20:34 20,3 °C 61 % 1006,5 hPa 0,0 mm 1,3 km/h (1 Bft) O-SO 112 ° 0 min 0,000 mm 0,0 UV-I 28 W/m² 12,5 °C 20,3 °C 3,2 km/h (1 Bft)
05.06.2018 20:35 20,3 °C 62 % 1006,5 hPa 0,0 mm 1,6 km/h (1 Bft) O-SO 112 ° 0 min 0,000 mm 0,0 UV-I 26 W/m² 12,8 °C 20,3 °C 3,2 km/h (1 Bft)
05.06.2018 20:36 20,3 °C 62 % 1006,5 hPa 0,0 mm 0,5 km/h (0 Bft) O-SO 112 ° 0 min 0,000 mm 0,0 UV-I 23 W/m² 12,8 °C 20,3 °C 1,6 km/h (1 Bft)
05.06.2018 20:37 20,3 °C 62 % 1006,6 hPa 0,0 mm 1,5 km/h (1 Bft) O-SO 112 ° 0 min 0,000 mm 0,0 UV-I 21 W/m² 12,8 °C 20,3 °C 3,2 km/h (1 Bft)
05.06.2018 20:38 20,3 °C 63 % 1006,6 hPa 0,0 mm 2,8 km/h (1 Bft) O-SO 112 ° 0 min 0,000 mm 0,0 UV-I 18 W/m² 13,0 °C 20,3 °C 3,2 km/h (1 Bft)
05.06.2018 20:39 20,2 °C 63 % 1006,6 hPa 0,0 mm 1,7 km/h (1 Bft) O-SO 112 ° 0 min 0,000 mm 0,0 UV-I 16 W/m² 12,9 °C 20,2 °C 3,2 km/h (1 Bft)
05.06.2018 20:40 20,2 °C 64 % 1006,6 hPa 0,0 mm 1,1 km/h (1 Bft) O-SO 112 ° 0 min 0,000 mm 0,0 UV-I 16 W/m² 13,2 °C 20,2 °C 3,2 km/h (1 Bft)
05.06.2018 20:41 20,1 °C 64 % 1006,6 hPa 0,0 mm 2,5 km/h (1 Bft) O-SO 112 ° 0 min 0,000 mm 0,0 UV-I 14 W/m² 13,1 °C 20,1 °C 4,8 km/h (1 Bft)
05.06.2018 20:42 20,1 °C 64 % 1006,6 hPa 0,0 mm 2,5 km/h (1 Bft) O-SO 112 ° 0 min 0,000 mm 0,0 UV-I 14 W/m² 13,1 °C 20,1 °C 4,8 km/h (1 Bft)
05.06.2018 20:43 19,9 °C 65 % 1006,7 hPa 0,0 mm 2,9 km/h (1 Bft) O-SO 112 ° 0 min 0,000 mm 0,0 UV-I 14 W/m² 13,1 °C 19,9 °C 4,8 km/h (1 Bft)
05.06.2018 20:44 19,8 °C 65 % 1006,6 hPa 0,0 mm 1,5 km/h (1 Bft) O-SO 112 ° 0 min 0,000 mm 0,0 UV-I 12 W/m² 13,0 °C 19,8 °C 3,2 km/h (1 Bft)
05.06.2018 20:45 19,8 °C 64 % 1006,7 hPa 0,0 mm 1,8 km/h (1 Bft) O-SO 112 ° 0 min 0,000 mm 0,0 UV-I 12 W/m² 12,8 °C 19,8 °C 3,2 km/h (1 Bft)
05.06.2018 20:46 19,8 °C 64 % 1006,8 hPa 0,0 mm 2,2 km/h (1 Bft) O-SO 112 ° 0 min 0,000 mm 0,0 UV-I 12 W/m² 12,8 °C 19,8 °C 3,2 km/h (1 Bft)
05.06.2018 20:47 19,8 °C 66 % 1006,8 hPa 0,0 mm 0,9 km/h (0 Bft) O-SO 112 ° 0 min 0,000 mm 0,0 UV-I 11 W/m² 13,3 °C 19,8 °C 3,2 km/h (1 Bft)
05.06.2018 20:48 19,7 °C 65 % 1006,7 hPa 0,0 mm 1,9 km/h (1 Bft) O-SO 112 ° 0 min 0,000 mm 0,0 UV-I 11 W/m² 12,9 °C 19,7 °C 3,2 km/h (1 Bft)
05.06.2018 20:49 19,7 °C 66 % 1006,7 hPa 0,0 mm 2,6 km/h (1 Bft) O-SO 112 ° 0 min 0,000 mm 0,0 UV-I 11 W/m² 13,2 °C 19,7 °C 3,2 km/h (1 Bft)
05.06.2018 20:50 19,6 °C 66 % 1006,7 hPa 0,0 mm 1,4 km/h (1 Bft) O-SO 112 ° 0 min 0,000 mm 0,0 UV-I 9 W/m² 13,1 °C 19,6 °C 3,2 km/h (1 Bft)
05.06.2018 20:51 19,5 °C 66 % 1006,6 hPa 0,0 mm 0,0 km/h (0 Bft) O-SO 112 ° 0 min 0,000 mm 0,0 UV-I 9 W/m² 13,0 °C 19,5 °C 0,0 km/h (0 Bft)
05.06.2018 20:52 19,5 °C 66 % 1006,7 hPa 0,0 mm 0,2 km/h (0 Bft) O-SO 112 ° 0 min 0,000 mm 0,0 UV-I 9 W/m² 13,0 °C 19,5 °C 1,6 km/h (1 Bft)
05.06.2018 20:53 19,4 °C 65 % 1006,7 hPa 0,0 mm 0,4 km/h (0 Bft) O-SO 112 ° 0 min 0,000 mm 0,0 UV-I 9 W/m² 12,6 °C 19,4 °C 1,6 km/h (1 Bft)
05.06.2018 20:54 19,4 °C 66 % 1006,7 hPa 0,0 mm 0,8 km/h (0 Bft) O-SO 112 ° 0 min 0,000 mm 0,0 UV-I 9 W/m² 12,9 °C 19,4 °C 1,6 km/h (1 Bft)
05.06.2018 20:55 19,3 °C 67 % 1006,7 hPa 0,0 mm 0,1 km/h (0 Bft) O-SO 112 ° 0 min 0,000 mm 0,0 UV-I 9 W/m² 13,0 °C 19,3 °C 1,6 km/h (1 Bft)
05.06.2018 20:56 19,3 °C 67 % 1006,7 hPa 0,0 mm 0,0 km/h (0 Bft) O-SO 112 ° 0 min 0,000 mm 0,0 UV-I 7 W/m² 13,0 °C 19,3 °C 0,0 km/h (0 Bft)
05.06.2018 20:57 19,2 °C 67 % 1006,7 hPa 0,0 mm 0,0 km/h (0 Bft) O-SO 112 ° 0 min 0,000 mm 0,0 UV-I 7 W/m² 12,9 °C 19,2 °C 0,0 km/h (0 Bft)
05.06.2018 20:58 18,9 °C 68 % 1006,7 hPa 0,0 mm 0,0 km/h (0 Bft) O-SO 112 ° 0 min 0,000 mm 0,0 UV-I 7 W/m² 12,9 °C 18,9 °C 0,0 km/h (0 Bft)
05.06.2018 20:59 18,8 °C 69 % 1006,7 hPa 0,0 mm 0,0 km/h (0 Bft) O-SO 112 ° 0 min 0,000 mm 0,0 UV-I 7 W/m² 13,0 °C 18,8 °C 0,0 km/h (0 Bft)
05.06.2018 21:00 18,5 °C 70 % 1006,7 hPa 0,0 mm 0,0 km/h (0 Bft) O-SO 112 ° 0 min 0,000 mm 0,0 UV-I 7 W/m² 12,9 °C 18,5 °C 0,0 km/h (0 Bft)
05.06.2018 21:01 18,3 °C 70 % 1006,7 hPa 0,0 mm 0,0 km/h (0 Bft) O-SO 112 ° 0 min 0,026 mm 0,0 UV-I 7 W/m² 12,7 °C 18,3 °C 0,0 km/h (0 Bft)
05.06.2018 21:02 18,2 °C 71 % 1006,7 hPa 0,0 mm 0,0 km/h (0 Bft) O-SO 112 ° 0 min 0,000 mm 0,0 UV-I 5 W/m² 12,9 °C 18,2 °C 0,0 km/h (0 Bft)
05.06.2018 21:03 18,1 °C 71 % 1006,7 hPa 0,0 mm 0,0 km/h (0 Bft) O-SO 112 ° 0 min 0,000 mm 0,0 UV-I 5 W/m² 12,8 °C 18,1 °C 0,0 km/h (0 Bft)
05.06.2018 21:04 18,1 °C 71 % 1006,8 hPa 0,0 mm 0,0 km/h (0 Bft) O-SO 112 ° 0 min 0,000 mm 0,0 UV-I 5 W/m² 12,8 °C 18,1 °C 0,0 km/h (0 Bft)
05.06.2018 21:05 18,1 °C 70 % 1006,8 hPa 0,0 mm 0,0 km/h (0 Bft) O-SO 112 ° 0 min 0,000 mm 0,0 UV-I 5 W/m² 12,5 °C 18,1 °C 0,0 km/h (0 Bft)
05.06.2018 21:06 18,1 °C 70 % 1006,7 hPa 0,0 mm 0,3 km/h (0 Bft) O-SO 112 ° 0 min 0,000 mm 0,0 UV-I 5 W/m² 12,5 °C 18,1 °C 1,6 km/h (1 Bft)
05.06.2018 21:07 18,1 °C 70 % 1006,8 hPa 0,0 mm 0,3 km/h (0 Bft) O-SO 112 ° 0 min 0,000 mm 0,0 UV-I 5 W/m² 12,5 °C 18,1 °C 1,6 km/h (1 Bft)
05.06.2018 21:08 18,2 °C 70 % 1006,8 hPa 0,0 mm 0,3 km/h (0 Bft) O-SO 112 ° 0 min 0,000 mm 0,0 UV-I 5 W/m² 12,6 °C 18,2 °C 1,6 km/h (1 Bft)
05.06.2018 21:09 18,2 °C 70 % 1006,8 hPa 0,0 mm 1,4 km/h (1 Bft) O-SO 112 ° 0 min 0,000 mm 0,0 UV-I 5 W/m² 12,6 °C 18,2 °C 3,2 km/h (1 Bft)
05.06.2018 21:10 18,2 °C 69 % 1006,8 hPa 0,0 mm 2,9 km/h (1 Bft) O-SO 112 ° 0 min 0,000 mm 0,0 UV-I 0 W/m² 12,4 °C 18,2 °C 4,8 km/h (1 Bft)
05.06.2018 21:11 18,3 °C 69 % 1006,8 hPa 0,0 mm 2,7 km/h (1 Bft) O-SO 112 ° 0 min 0,000 mm 0,0 UV-I 0 W/m² 12,5 °C 18,3 °C 4,8 km/h (1 Bft)
05.06.2018 21:12 18,3 °C 69 % 1006,8 hPa 0,0 mm 2,5 km/h (1 Bft) O-SO 112 ° 0 min 0,000 mm 0,0 UV-I 0 W/m² 12,5 °C 18,3 °C 3,2 km/h (1 Bft)
05.06.2018 21:13 18,2 °C 70 % 1006,8 hPa 0,0 mm 2,6 km/h (1 Bft) O-SO 112 ° 0 min 0,000 mm 0,0 UV-I 0 W/m² 12,6 °C 18,2 °C 3,2 km/h (1 Bft)
05.06.2018 21:14 18,2 °C 70 % 1006,8 hPa 0,0 mm 2,8 km/h (1 Bft) O-SO 112 ° 0 min 0,000 mm 0,0 UV-I 0 W/m² 12,6 °C 18,2 °C 4,8 km/h (1 Bft)
05.06.2018 21:15 18,1 °C 71 % 1006,8 hPa 0,0 mm 3,1 km/h (1 Bft) O-SO 112 ° 0 min 0,000 mm 0,0 UV-I 0 W/m² 12,8 °C 18,1 °C 4,8 km/h (1 Bft)
05.06.2018 21:16 17,9 °C 71 % 1006,8 hPa 0,0 mm 3,0 km/h (1 Bft) O-SO 112 ° 0 min 0,000 mm 0,0 UV-I 0 W/m² 12,6 °C 17,9 °C 4,8 km/h (1 Bft)
05.06.2018 21:17 17,9 °C 70 % 1006,8 hPa 0,0 mm 2,0 km/h (1 Bft) O-SO 112 ° 0 min 0,000 mm 0,0 UV-I 0 W/m² 12,3 °C 17,9 °C 3,2 km/h (1 Bft)
05.06.2018 21:18 17,9 °C 71 % 1006,8 hPa 0,0 mm 2,1 km/h (1 Bft) O-SO 112 ° 0 min 0,000 mm 0,0 UV-I 0 W/m² 12,6 °C 17,9 °C 3,2 km/h (1 Bft)
05.06.2018 21:19 17,9 °C 71 % 1006,9 hPa 0,0 mm 0,7 km/h (0 Bft) O-SO 112 ° 0 min 0,000 mm 0,0 UV-I 0 W/m² 12,6 °C 17,9 °C 1,6 km/h (1 Bft)
05.06.2018 21:20 17,8 °C 71 % 1006,9 hPa 0,0 mm 0,0 km/h (0 Bft) O-SO 112 ° 0 min 0,000 mm 0,0 UV-I 0 W/m² 12,5 °C 17,8 °C 0,0 km/h (0 Bft)
05.06.2018 21:21 17,7 °C 72 % 1006,9 hPa 0,0 mm 0,0 km/h (0 Bft) O-SO 112 ° 0 min 0,000 mm 0,0 UV-I 0 W/m² 12,6 °C 17,7 °C 0,0 km/h (0 Bft)
05.06.2018 21:22 17,6 °C 72 % 1007,0 hPa 0,0 mm 0,1 km/h (0 Bft) O-SO 112 ° 0 min 0,000 mm 0,0 UV-I 0 W/m² 12,5 °C 17,6 °C 1,6 km/h (1 Bft)
05.06.2018 21:23 17,4 °C 73 % 1007,0 hPa 0,0 mm 0,0 km/h (0 Bft) O-SO 112 ° 0 min 0,000 mm 0,0 UV-I 0 W/m² 12,5 °C 17,4 °C 0,0 km/h (0 Bft)
05.06.2018 21:24 17,3 °C 74 % 1007,0 hPa 0,0 mm 0,4 km/h (0 Bft) O-SO 112 ° 0 min 0,000 mm 0,0 UV-I 0 W/m² 12,6 °C 17,3 °C 1,6 km/h (1 Bft)
05.06.2018 21:25 17,2 °C 74 % 1006,9 hPa 0,0 mm 1,9 km/h (1 Bft) O-SO 112 ° 0 min 0,000 mm 0,0 UV-I 0 W/m² 12,5 °C 17,2 °C 3,2 km/h (1 Bft)
05.06.2018 21:26 17,1 °C 75 % 1007,0 hPa 0,0 mm 1,0 km/h (0 Bft) O-SO 112 ° 0 min 0,000 mm 0,0 UV-I 0 W/m² 12,6 °C 17,1 °C 3,2 km/h (1 Bft)
05.06.2018 21:27 16,9 °C 75 % 1007,1 hPa 0,0 mm 0,1 km/h (0 Bft) O-SO 112 ° 0 min 0,000 mm 0,0 UV-I 0 W/m² 12,4 °C 16,9 °C 1,6 km/h (1 Bft)
05.06.2018 21:28 16,9 °C 75 % 1007,0 hPa 0,0 mm 0,0 km/h (0 Bft) O-SO 112 ° 0 min 0,000 mm 0,0 UV-I 0 W/m² 12,4 °C 16,9 °C 0,0 km/h (0 Bft)
05.06.2018 21:29 16,8 °C 76 % 1007,1 hPa 0,0 mm 0,0 km/h (0 Bft) O-SO 112 ° 0 min 0,000 mm 0,0 UV-I 0 W/m² 12,5 °C 16,8 °C 0,0 km/h (0 Bft)
05.06.2018 21:30 16,7 °C 77 % 1007,0 hPa 0,0 mm 0,0 km/h (0 Bft) O-SO 112 ° 0 min 0,000 mm 0,0 UV-I 0 W/m² 12,6 °C 16,7 °C 0,0 km/h (0 Bft)
05.06.2018 21:31 16,7 °C 77 % 1007,1 hPa 0,0 mm 0,0 km/h (0 Bft) O-SO 112 ° 0 min 0,000 mm 0,0 UV-I 0 W/m² 12,6 °C 16,7 °C 0,0 km/h (0 Bft)
05.06.2018 21:32 16,7 °C 77 % 1007,1 hPa 0,0 mm 0,0 km/h (0 Bft) O-SO 112 ° 0 min 0,000 mm 0,0 UV-I 0 W/m² 12,6 °C 16,7 °C 0,0 km/h (0 Bft)
05.06.2018 21:33 16,7 °C 77 % 1007,1 hPa 0,0 mm 0,0 km/h (0 Bft) O-SO 112 ° 0 min 0,000 mm 0,0 UV-I 0 W/m² 12,6 °C 16,7 °C 0,0 km/h (0 Bft)
05.06.2018 21:34 16,7 °C 76 % 1007,1 hPa 0,0 mm 0,2 km/h (0 Bft) O-SO 112 ° 0 min 0,000 mm 0,0 UV-I 0 W/m² 12,4 °C 16,7 °C 1,6 km/h (1 Bft)
05.06.2018 21:35 16,7 °C 77 % 1007,2 hPa 0,0 mm 0,1 km/h (0 Bft) O-SO 112 ° 0 min 0,000 mm 0,0 UV-I 0 W/m² 12,6 °C 16,7 °C 1,6 km/h (1 Bft)
05.06.2018 21:36 16,7 °C 76 % 1007,2 hPa 0,0 mm 0,0 km/h (0 Bft) O-SO 112 ° 0 min 0,000 mm 0,0 UV-I 0 W/m² 12,4 °C 16,7 °C 0,0 km/h (0 Bft)
05.06.2018 21:37 16,7 °C 76 % 1007,2 hPa 0,0 mm 0,1 km/h (0 Bft) O-SO 112 ° 0 min 0,000 mm 0,0 UV-I 0 W/m² 12,4 °C 16,7 °C 1,6 km/h (1 Bft)
05.06.2018 21:38 16,7 °C 77 % 1007,2 hPa 0,0 mm 0,9 km/h (0 Bft) O-SO 112 ° 0 min 0,000 mm 0,0 UV-I 0 W/m² 12,6 °C 16,7 °C 3,2 km/h (1 Bft)
05.06.2018 21:39 16,7 °C 76 % 1007,2 hPa 0,0 mm 0,1 km/h (0 Bft) O-SO 112 ° 0 min 0,000 mm 0,0 UV-I 0 W/m² 12,4 °C 16,7 °C 1,6 km/h (1 Bft)
05.06.2018 21:40 16,7 °C 76 % 1007,2 hPa 0,0 mm 0,5 km/h (0 Bft) O-SO 112 ° 0 min 0,000 mm 0,0 UV-I 0 W/m² 12,4 °C 16,7 °C 1,6 km/h (1 Bft)
05.06.2018 21:41 16,7 °C 77 % 1007,2 hPa 0,0 mm 0,0 km/h (0 Bft) O-SO 112 ° 0 min 0,000 mm 0,0 UV-I 0 W/m² 12,6 °C 16,7 °C 0,0 km/h (0 Bft)
05.06.2018 21:42 16,7 °C 76 % 1007,3 hPa 0,0 mm 0,1 km/h (0 Bft) O-SO 112 ° 0 min 0,000 mm 0,0 UV-I 0 W/m² 12,4 °C 16,7 °C 1,6 km/h (1 Bft)
05.06.2018 21:43 16,7 °C 77 % 1007,3 hPa 0,0 mm 0,0 km/h (0 Bft) O-SO 112 ° 0 min 0,000 mm 0,0 UV-I 0 W/m² 12,6 °C 16,7 °C 0,0 km/h (0 Bft)
05.06.2018 21:44 16,6 °C 77 % 1007,4 hPa 0,0 mm 0,0 km/h (0 Bft) O-SO 112 ° 0 min 0,000 mm 0,0 UV-I 0 W/m² 12,5 °C 16,6 °C 0,0 km/h (0 Bft)
05.06.2018 21:45 16,6 °C 77 % 1007,3 hPa 0,0 mm 0,0 km/h (0 Bft) O-SO 112 ° 0 min 0,000 mm 0,0 UV-I 0 W/m² 12,5 °C 16,6 °C 0,0 km/h (0 Bft)
05.06.2018 21:46 16,6 °C 78 % 1007,3 hPa 0,0 mm 0,0 km/h (0 Bft) O-SO 112 ° 0 min 0,000 mm 0,0 UV-I 0 W/m² 12,7 °C 16,6 °C 0,0 km/h (0 Bft)
05.06.2018 21:47 16,6 °C 78 % 1007,3 hPa 0,0 mm 0,0 km/h (0 Bft) O-SO 112 ° 0 min 0,000 mm 0,0 UV-I 0 W/m² 12,7 °C 16,6 °C 0,0 km/h (0 Bft)
05.06.2018 21:48 16,5 °C 78 % 1007,3 hPa 0,0 mm 0,0 km/h (0 Bft) O-SO 112 ° 0 min 0,000 mm 0,0 UV-I 0 W/m² 12,6 °C 16,5 °C 0,0 km/h (0 Bft)
05.06.2018 21:49 16,5 °C 78 % 1007,4 hPa 0,0 mm 0,0 km/h (0 Bft) O-SO 112 ° 0 min 0,000 mm 0,0 UV-I 0 W/m² 12,6 °C 16,5 °C 0,0 km/h (0 Bft)
05.06.2018 21:50 16,5 °C 78 % 1007,4 hPa 0,0 mm 0,0 km/h (0 Bft) O-SO 112 ° 0 min 0,000 mm 0,0 UV-I 0 W/m² 12,6 °C 16,5 °C 0,0 km/h (0 Bft)
05.06.2018 21:51 16,5 °C 78 % 1007,5 hPa 0,0 mm 0,0 km/h (0 Bft) O-SO 112 ° 0 min 0,000 mm 0,0 UV-I 0 W/m² 12,6 °C 16,5 °C 0,0 km/h (0 Bft)
05.06.2018 21:52 16,5 °C 78 % 1007,4 hPa 0,0 mm 0,0 km/h (0 Bft) O-SO 112 ° 0 min 0,000 mm 0,0 UV-I 0 W/m² 12,6 °C 16,5 °C 0,0 km/h (0 Bft)
05.06.2018 21:53 16,4 °C 78 % 1007,5 hPa 0,0 mm 0,0 km/h (0 Bft) O-SO 112 ° 0 min 0,000 mm 0,0 UV-I 0 W/m² 12,6 °C 16,4 °C 0,0 km/h (0 Bft)
05.06.2018 21:54 16,5 °C 78 % 1007,4 hPa 0,0 mm 0,0 km/h (0 Bft) O-SO 112 ° 0 min 0,000 mm 0,0 UV-I 0 W/m² 12,6 °C 16,5 °C 0,0 km/h (0 Bft)
05.06.2018 21:55 16,4 °C 78 % 1007,5 hPa 0,0 mm 0,0 km/h (0 Bft) O-SO 112 ° 0 min 0,000 mm 0,0 UV-I 0 W/m² 12,6 °C 16,4 °C 0,0 km/h (0 Bft)
05.06.2018 21:56 16,4 °C 78 % 1007,5 hPa 0,0 mm 0,0 km/h (0 Bft) O-SO 112 ° 0 min 0,000 mm 0,0 UV-I 0 W/m² 12,6 °C 16,4 °C 0,0 km/h (0 Bft)
05.06.2018 21:57 16,4 °C 78 % 1007,5 hPa 0,0 mm 0,0 km/h (0 Bft) O-SO 112 ° 0 min 0,000 mm 0,0 UV-I 0 W/m² 12,6 °C 16,4 °C 0,0 km/h (0 Bft)
05.06.2018 21:58 16,4 °C 78 % 1007,5 hPa 0,0 mm 0,0 km/h (0 Bft) O-SO 112 ° 0 min 0,000 mm 0,0 UV-I 0 W/m² 12,6 °C 16,4 °C 0,0 km/h (0 Bft)
05.06.2018 21:59 16,4 °C 78 % 1007,5 hPa 0,0 mm 0,7 km/h (0 Bft) O-SO 112 ° 0 min 0,000 mm 0,0 UV-I 0 W/m² 12,6 °C 16,4 °C 1,6 km/h (1 Bft)
05.06.2018 22:00 16,4 °C 78 % 1007,5 hPa 0,0 mm 0,9 km/h (0 Bft) O-SO 112 ° 0 min 0,000 mm 0,0 UV-I 0 W/m² 12,6 °C 16,4 °C 3,2 km/h (1 Bft)
05.06.2018 22:01 16,3 °C 78 % 1007,5 hPa 0,0 mm 0,6 km/h (0 Bft) O-SO 112 ° 0 min 0,000 mm 0,0 UV-I 0 W/m² 12,5 °C 16,3 °C 1,6 km/h (1 Bft)
05.06.2018 22:02 16,3 °C 78 % 1007,5 hPa 0,0 mm 1,2 km/h (1 Bft) O-SO 112 ° 0 min 0,000 mm 0,0 UV-I 0 W/m² 12,5 °C 16,3 °C 3,2 km/h (1 Bft)
05.06.2018 22:03 16,3 °C 79 % 1007,5 hPa 0,0 mm 0,1 km/h (0 Bft) O-SO 112 ° 0 min 0,000 mm 0,0 UV-I 0 W/m² 12,6 °C 16,3 °C 1,6 km/h (1 Bft)
05.06.2018 22:04 16,2 °C 80 % 1007,6 hPa 0,0 mm 0,0 km/h (0 Bft) O-SO 112 ° 0 min 0,000 mm 0,0 UV-I 0 W/m² 12,7 °C 16,2 °C 0,0 km/h (0 Bft)
05.06.2018 22:05 16,2 °C 80 % 1007,6 hPa 0,0 mm 0,0 km/h (0 Bft) O-SO 112 ° 0 min 0,000 mm 0,0 UV-I 0 W/m² 12,7 °C 16,2 °C 0,0 km/h (0 Bft)
05.06.2018 22:06 16,1 °C 80 % 1007,6 hPa 0,0 mm 0,0 km/h (0 Bft) O-SO 112 ° 0 min 0,000 mm 0,0 UV-I 0 W/m² 12,6 °C 16,1 °C 0,0 km/h (0 Bft)
05.06.2018 22:07 16,1 °C 80 % 1007,5 hPa 0,0 mm 0,0 km/h (0 Bft) O-SO 112 ° 0 min 0,000 mm 0,0 UV-I 0 W/m² 12,6 °C 16,1 °C 0,0 km/h (0 Bft)
05.06.2018 22:08 16,1 °C 80 % 1007,6 hPa 0,0 mm 0,0 km/h (0 Bft) O-SO 112 ° 0 min 0,000 mm 0,0 UV-I 0 W/m² 12,6 °C 16,1 °C 0,0 km/h (0 Bft)
05.06.2018 22:09 16,0 °C 81 % 1007,5 hPa 0,0 mm 0,0 km/h (0 Bft) O-SO 112 ° 0 min 0,000 mm 0,0 UV-I 0 W/m² 12,7 °C 16,0 °C 0,0 km/h (0 Bft)
05.06.2018 22:10 15,9 °C 81 % 1007,6 hPa 0,0 mm 0,0 km/h (0 Bft) O-SO 112 ° 0 min 0,000 mm 0,0 UV-I 0 W/m² 12,6 °C 15,9 °C 0,0 km/h (0 Bft)
05.06.2018 22:11 15,9 °C 81 % 1007,6 hPa 0,0 mm 0,0 km/h (0 Bft) O-SO 112 ° 0 min 0,000 mm 0,0 UV-I 0 W/m² 12,6 °C 15,9 °C 0,0 km/h (0 Bft)
05.06.2018 22:12 15,9 °C 81 % 1007,6 hPa 0,0 mm 0,0 km/h (0 Bft) O-SO 112 ° 0 min 0,000 mm 0,0 UV-I 0 W/m² 12,6 °C 15,9 °C 0,0 km/h (0 Bft)
05.06.2018 22:13 15,9 °C 81 % 1007,7 hPa 0,0 mm 0,0 km/h (0 Bft) O-SO 112 ° 0 min 0,000 mm 0,0 UV-I 0 W/m² 12,6 °C 15,9 °C 0,0 km/h (0 Bft)
05.06.2018 22:14 15,8 °C 81 % 1007,7 hPa 0,0 mm 0,0 km/h (0 Bft) O-SO 112 ° 0 min 0,000 mm 0,0 UV-I 0 W/m² 12,5 °C 15,8 °C 0,0 km/h (0 Bft)
05.06.2018 22:15 15,8 °C 81 % 1007,6 hPa 0,0 mm 0,0 km/h (0 Bft) O-SO 112 ° 0 min 0,000 mm 0,0 UV-I 0 W/m² 12,5 °C 15,8 °C 0,0 km/h (0 Bft)
05.06.2018 22:16 15,8 °C 81 % 1007,6 hPa 0,0 mm 0,0 km/h (0 Bft) O-SO 112 ° 0 min 0,000 mm 0,0 UV-I 0 W/m² 12,5 °C 15,8 °C 0,0 km/h (0 Bft)
05.06.2018 22:17 15,8 °C 81 % 1007,7 hPa 0,0 mm 0,0 km/h (0 Bft) O-SO 112 ° 0 min 0,000 mm 0,0 UV-I 0 W/m² 12,5 °C 15,8 °C 0,0 km/h (0 Bft)
05.06.2018 22:18 15,8 °C 81 % 1007,6 hPa 0,0 mm 0,0 km/h (0 Bft) O-SO 112 ° 0 min 0,000 mm 0,0 UV-I 0 W/m² 12,5 °C 15,8 °C 0,0 km/h (0 Bft)
05.06.2018 22:19 15,8 °C 81 % 1007,6 hPa 0,0 mm 0,0 km/h (0 Bft) O-SO 112 ° 0 min 0,000 mm 0,0 UV-I 0 W/m² 12,5 °C 15,8 °C 0,0 km/h (0 Bft)
05.06.2018 22:20 15,7 °C 81 % 1007,6 hPa 0,0 mm 0,0 km/h (0 Bft) O-SO 112 ° 0 min 0,000 mm 0,0 UV-I 0 W/m² 12,4 °C 15,7 °C 0,0 km/h (0 Bft)
05.06.2018 22:21 15,7 °C 81 % 1007,6 hPa 0,0 mm 0,0 km/h (0 Bft) O-SO 112 ° 0 min 0,000 mm 0,0 UV-I 0 W/m² 12,4 °C 15,7 °C 0,0 km/h (0 Bft)
05.06.2018 22:22 15,7 °C 81 % 1007,6 hPa 0,0 mm 0,0 km/h (0 Bft) O-SO 112 ° 0 min 0,000 mm 0,0 UV-I 0 W/m² 12,4 °C 15,7 °C 0,0 km/h (0 Bft)
05.06.2018 22:23 15,7 °C 81 % 1007,6 hPa 0,0 mm 0,0 km/h (0 Bft) O-SO 112 ° 0 min 0,000 mm 0,0 UV-I 0 W/m² 12,4 °C 15,7 °C 0,0 km/h (0 Bft)
05.06.2018 22:24 15,6 °C 82 % 1007,6 hPa 0,0 mm 0,0 km/h (0 Bft) O-SO 112 ° 0 min 0,000 mm 0,0 UV-I 0 W/m² 12,5 °C 15,6 °C 0,0 km/h (0 Bft)
05.06.2018 22:25 15,6 °C 82 % 1007,6 hPa 0,0 mm 0,0 km/h (0 Bft) O-SO 112 ° 0 min 0,000 mm 0,0 UV-I 0 W/m² 12,5 °C 15,6 °C 0,0 km/h (0 Bft)
05.06.2018 22:26 15,5 °C 82 % 1007,7 hPa 0,0 mm 0,0 km/h (0 Bft) O-SO 112 ° 0 min 0,000 mm 0,0 UV-I 0 W/m² 12,4 °C 15,5 °C 0,0 km/h (0 Bft)
05.06.2018 22:27 15,5 °C 82 % 1007,7 hPa 0,0 mm 0,0 km/h (0 Bft) O-SO 112 ° 0 min 0,000 mm 0,0 UV-I 0 W/m² 12,4 °C 15,5 °C 0,0 km/h (0 Bft)
05.06.2018 22:28 15,5 °C 82 % 1007,6 hPa 0,0 mm 0,0 km/h (0 Bft) O-SO 112 ° 0 min 0,000 mm 0,0 UV-I 0 W/m² 12,4 °C 15,5 °C 0,0 km/h (0 Bft)
05.06.2018 22:29 15,4 °C 82 % 1007,6 hPa 0,0 mm 0,0 km/h (0 Bft) O-SO 112 ° 0 min 0,000 mm 0,0 UV-I 0 W/m² 12,3 °C 15,4 °C 0,0 km/h (0 Bft)
05.06.2018 22:30 15,4 °C 82 % 1007,7 hPa 0,0 mm 0,0 km/h (0 Bft) O-SO 112 ° 0 min 0,000 mm 0,0 UV-I 0 W/m² 12,3 °C 15,4 °C 0,0 km/h (0 Bft)
05.06.2018 22:31 15,4 °C 82 % 1007,6 hPa 0,0 mm 0,0 km/h (0 Bft) O-SO 112 ° 0 min 0,000 mm 0,0 UV-I 0 W/m² 12,3 °C 15,4 °C 0,0 km/h (0 Bft)
05.06.2018 22:32 15,5 °C 82 % 1007,6 hPa 0,0 mm 0,7 km/h (0 Bft) O-SO 112 ° 0 min 0,000 mm 0,0 UV-I 0 W/m² 12,4 °C 15,5 °C 4,8 km/h (1 Bft)
05.06.2018 22:33 15,5 °C 82 % 1007,6 hPa 0,0 mm 3,2 km/h (1 Bft) O-SO 112 ° 0 min 0,000 mm 0,0 UV-I 0 W/m² 12,4 °C 15,5 °C 3,2 km/h (1 Bft)
05.06.2018 22:34 15,5 °C 81 % 1007,6 hPa 0,0 mm 3,9 km/h (1 Bft) O-SO 112 ° 0 min 0,000 mm 0,0 UV-I 0 W/m² 12,3 °C 15,5 °C 4,8 km/h (1 Bft)
05.06.2018 22:35 15,6 °C 82 % 1007,6 hPa 0,0 mm 3,7 km/h (1 Bft) O-SO 112 ° 0 min 0,000 mm 0,0 UV-I 0 W/m² 12,5 °C 15,6 °C 4,8 km/h (1 Bft)
05.06.2018 22:36 15,6 °C 82 % 1007,6 hPa 0,0 mm 3,6 km/h (1 Bft) O-SO 112 ° 0 min 0,000 mm 0,0 UV-I 0 W/m² 12,5 °C 15,6 °C 4,8 km/h (1 Bft)
05.06.2018 22:37 15,6 °C 81 % 1007,6 hPa 0,0 mm 3,6 km/h (1 Bft) O-SO 112 ° 0 min 0,000 mm 0,0 UV-I 0 W/m² 12,3 °C 15,6 °C 4,8 km/h (1 Bft)
05.06.2018 22:38 15,6 °C 82 % 1007,6 hPa 0,0 mm 2,9 km/h (1 Bft) O-SO 112 ° 0 min 0,000 mm 0,0 UV-I 0 W/m² 12,5 °C 15,6 °C 4,8 km/h (1 Bft)
05.06.2018 22:39 15,6 °C 82 % 1007,6 hPa 0,0 mm 2,9 km/h (1 Bft) O-SO 112 ° 0 min 0,000 mm 0,0 UV-I 0 W/m² 12,5 °C 15,6 °C 3,2 km/h (1 Bft)
05.06.2018 22:40 15,6 °C 82 % 1007,6 hPa 0,0 mm 3,2 km/h (1 Bft) O-SO 112 ° 0 min 0,000 mm 0,0 UV-I 0 W/m² 12,5 °C 15,6 °C 4,8 km/h (1 Bft)
05.06.2018 22:41 15,6 °C 82 % 1007,6 hPa 0,0 mm 2,7 km/h (1 Bft) O-SO 112 ° 0 min 0,000 mm 0,0 UV-I 0 W/m² 12,5 °C 15,6 °C 4,8 km/h (1 Bft)
05.06.2018 22:42 15,6 °C 82 % 1007,6 hPa 0,0 mm 2,5 km/h (1 Bft) O-SO 112 ° 0 min 0,000 mm 0,0 UV-I 0 W/m² 12,5 °C 15,6 °C 3,2 km/h (1 Bft)
05.06.2018 22:43 15,6 °C 82 % 1007,6 hPa 0,0 mm 2,6 km/h (1 Bft) O-SO 112 ° 0 min 0,000 mm 0,0 UV-I 0 W/m² 12,5 °C 15,6 °C 4,8 km/h (1 Bft)
05.06.2018 22:44 15,5 °C 82 % 1007,6 hPa 0,0 mm 0,0 km/h (0 Bft) O-SO 112 ° 0 min 0,000 mm 0,0 UV-I 0 W/m² 12,4 °C 15,5 °C 0,0 km/h (0 Bft)
05.06.2018 22:45 15,4 °C 82 % 1007,6 hPa 0,0 mm 0,0 km/h (0 Bft) O-SO 112 ° 0 min 0,000 mm 0,0 UV-I 0 W/m² 12,3 °C 15,4 °C 0,0 km/h (0 Bft)
05.06.2018 22:46 15,5 °C 82 % 1007,7 hPa 0,0 mm 0,0 km/h (0 Bft) O-SO 112 ° 0 min 0,000 mm 0,0 UV-I 0 W/m² 12,4 °C 15,5 °C 0,0 km/h (0 Bft)
05.06.2018 22:47 15,6 °C 82 % 1007,6 hPa 0,0 mm 0,0 km/h (0 Bft) O-SO 112 ° 0 min 0,000 mm 0,0 UV-I 0 W/m² 12,5 °C 15,6 °C 0,0 km/h (0 Bft)
05.06.2018 22:48 15,6 °C 81 % 1007,6 hPa 0,0 mm 0,0 km/h (0 Bft) O-SO 112 ° 0 min 0,000 mm 0,0 UV-I 0 W/m² 12,3 °C 15,6 °C 0,0 km/h (0 Bft)
05.06.2018 22:49 15,5 °C 81 % 1007,6 hPa 0,0 mm 0,0 km/h (0 Bft) O-SO 112 ° 0 min 0,000 mm 0,0 UV-I 0 W/m² 12,3 °C 15,5 °C 0,0 km/h (0 Bft)
05.06.2018 22:50 15,5 °C 81 % 1007,5 hPa 0,0 mm 0,0 km/h (0 Bft) O-SO 112 ° 0 min 0,000 mm 0,0 UV-I 0 W/m² 12,3 °C 15,5 °C 0,0 km/h (0 Bft)
05.06.2018 22:51 15,5 °C 81 % 1007,6 hPa 0,0 mm 0,0 km/h (0 Bft) O-SO 112 ° 0 min 0,000 mm 0,0 UV-I 0 W/m² 12,3 °C 15,5 °C 0,0 km/h (0 Bft)
05.06.2018 22:52 15,5 °C 81 % 1007,6 hPa 0,0 mm 0,0 km/h (0 Bft) O-SO 112 ° 0 min 0,000 mm 0,0 UV-I 0 W/m² 12,3 °C 15,5 °C 0,0 km/h (0 Bft)
05.06.2018 22:53 15,4 °C 81 % 1007,6 hPa 0,0 mm 0,0 km/h (0 Bft) O-SO 112 ° 0 min 0,000 mm 0,0 UV-I 0 W/m² 12,2 °C 15,4 °C 0,0 km/h (0 Bft)
05.06.2018 22:54 15,5 °C 81 % 1007,6 hPa 0,0 mm 0,0 km/h (0 Bft) O-SO 112 ° 0 min 0,000 mm 0,0 UV-I 0 W/m² 12,3 °C 15,5 °C 0,0 km/h (0 Bft)
05.06.2018 22:55 15,5 °C 81 % 1007,6 hPa 0,0 mm 0,0 km/h (0 Bft) O-SO 112 ° 0 min 0,000 mm 0,0 UV-I 0 W/m² 12,3 °C 15,5 °C 0,0 km/h (0 Bft)
05.06.2018 22:56 15,5 °C 82 % 1007,6 hPa 0,0 mm 0,0 km/h (0 Bft) O-SO 112 ° 0 min 0,000 mm 0,0 UV-I 0 W/m² 12,4 °C 15,5 °C 0,0 km/h (0 Bft)
05.06.2018 22:57 15,4 °C 82 % 1007,6 hPa 0,0 mm 0,0 km/h (0 Bft) O-SO 112 ° 0 min 0,000 mm 0,0 UV-I 0 W/m² 12,3 °C 15,4 °C 0,0 km/h (0 Bft)
05.06.2018 22:58 15,4 °C 82 % 1007,6 hPa 0,0 mm 0,0 km/h (0 Bft) O-SO 112 ° 0 min 0,000 mm 0,0 UV-I 0 W/m² 12,3 °C 15,4 °C 0,0 km/h (0 Bft)
05.06.2018 22:59 15,4 °C 82 % 1007,6 hPa 0,0 mm 0,0 km/h (0 Bft) O-SO 112 ° 0 min 0,000 mm 0,0 UV-I 0 W/m² 12,3 °C 15,4 °C 0,0 km/h (0 Bft)
05.06.2018 23:00 15,3 °C 82 % 1007,6 hPa 0,0 mm 0,0 km/h (0 Bft) O-SO 112 ° 0 min 0,000 mm 0,0 UV-I 0 W/m² 12,2 °C 15,3 °C 0,0 km/h (0 Bft)
05.06.2018 23:01 15,3 °C 82 % 1007,6 hPa 0,0 mm 0,0 km/h (0 Bft) O-SO 112 ° 0 min 0,025 mm 0,0 UV-I 0 W/m² 12,2 °C 15,3 °C 0,0 km/h (0 Bft)
05.06.2018 23:02 15,3 °C 82 % 1007,6 hPa 0,0 mm 0,0 km/h (0 Bft) O-SO 112 ° 0 min 0,000 mm 0,0 UV-I 0 W/m² 12,2 °C 15,3 °C 0,0 km/h (0 Bft)
05.06.2018 23:03 15,3 °C 82 % 1007,6 hPa 0,0 mm 0,0 km/h (0 Bft) O-SO 112 ° 0 min 0,000 mm 0,0 UV-I 0 W/m² 12,2 °C 15,3 °C 0,0 km/h (0 Bft)
05.06.2018 23:04 15,3 °C 83 % 1007,6 hPa 0,0 mm 0,0 km/h (0 Bft) O-SO 112 ° 0 min 0,000 mm 0,0 UV-I 0 W/m² 12,4 °C 15,3 °C 0,0 km/h (0 Bft)
05.06.2018 23:05 15,2 °C 83 % 1007,6 hPa 0,0 mm 0,0 km/h (0 Bft) O-SO 112 ° 0 min 0,000 mm 0,0 UV-I 0 W/m² 12,3 °C 15,2 °C 0,0 km/h (0 Bft)
05.06.2018 23:06 15,2 °C 83 % 1007,6 hPa 0,0 mm 0,0 km/h (0 Bft) O-SO 112 ° 0 min 0,000 mm 0,0 UV-I 0 W/m² 12,3 °C 15,2 °C 0,0 km/h (0 Bft)
05.06.2018 23:07 15,2 °C 83 % 1007,6 hPa 0,0 mm 0,0 km/h (0 Bft) O-SO 112 ° 0 min 0,000 mm 0,0 UV-I 0 W/m² 12,3 °C 15,2 °C 0,0 km/h (0 Bft)
05.06.2018 23:08 15,2 °C 83 % 1007,6 hPa 0,0 mm 0,0 km/h (0 Bft) O-SO 112 ° 0 min 0,000 mm 0,0 UV-I 0 W/m² 12,3 °C 15,2 °C 0,0 km/h (0 Bft)
05.06.2018 23:09 15,3 °C 82 % 1007,6 hPa 0,0 mm 0,0 km/h (0 Bft) O-SO 112 ° 0 min 0,000 mm 0,0 UV-I 0 W/m² 12,2 °C 15,3 °C 0,0 km/h (0 Bft)
05.06.2018 23:10 15,3 °C 82 % 1007,6 hPa 0,0 mm 0,0 km/h (0 Bft) O-SO 112 ° 0 min 0,000 mm 0,0 UV-I 0 W/m² 12,2 °C 15,3 °C 0,0 km/h (0 Bft)
05.06.2018 23:11 15,3 °C 82 % 1007,6 hPa 0,0 mm 0,0 km/h (0 Bft) O-SO 112 ° 0 min 0,000 mm 0,0 UV-I 0 W/m² 12,2 °C 15,3 °C 0,0 km/h (0 Bft)
05.06.2018 23:12 15,3 °C 82 % 1007,6 hPa 0,0 mm 0,0 km/h (0 Bft) O-SO 112 ° 0 min 0,000 mm 0,0 UV-I 0 W/m² 12,2 °C 15,3 °C 0,0 km/h (0 Bft)
05.06.2018 23:13 15,2 °C 82 % 1007,7 hPa 0,0 mm 0,0 km/h (0 Bft) O-SO 112 ° 0 min 0,000 mm 0,0 UV-I 0 W/m² 12,1 °C 15,2 °C 0,0 km/h (0 Bft)
05.06.2018 23:14 15,2 °C 83 % 1007,7 hPa 0,0 mm 0,0 km/h (0 Bft) O-SO 112 ° 0 min 0,000 mm 0,0 UV-I 0 W/m² 12,3 °C 15,2 °C 0,0 km/h (0 Bft)
05.06.2018 23:15 15,2 °C 83 % 1007,7 hPa 0,0 mm 0,0 km/h (0 Bft) O-SO 112 ° 0 min 0,000 mm 0,0 UV-I 0 W/m² 12,3 °C 15,2 °C 0,0 km/h (0 Bft)
05.06.2018 23:16 15,2 °C 83 % 1007,6 hPa 0,0 mm 0,0 km/h (0 Bft) O-SO 112 ° 0 min 0,000 mm 0,0 UV-I 0 W/m² 12,3 °C 15,2 °C 0,0 km/h (0 Bft)
05.06.2018 23:17 15,2 °C 82 % 1007,6 hPa 0,0 mm 0,0 km/h (0 Bft) O-SO 112 ° 0 min 0,000 mm 0,0 UV-I 0 W/m² 12,1 °C 15,2 °C 0,0 km/h (0 Bft)
05.06.2018 23:18 15,2 °C 82 % 1007,7 hPa 0,0 mm 0,0 km/h (0 Bft) O-SO 112 ° 0 min 0,000 mm 0,0 UV-I 0 W/m² 12,1 °C 15,2 °C 0,0 km/h (0 Bft)
05.06.2018 23:19 15,2 °C 82 % 1007,6 hPa 0,0 mm 0,0 km/h (0 Bft) O-SO 112 ° 0 min 0,000 mm 0,0 UV-I 0 W/m² 12,1 °C 15,2 °C 0,0 km/h (0 Bft)
05.06.2018 23:20 15,1 °C 83 % 1007,6 hPa 0,0 mm 0,0 km/h (0 Bft) O-SO 112 ° 0 min 0,000 mm 0,0 UV-I 0 W/m² 12,2 °C 15,1 °C 0,0 km/h (0 Bft)
05.06.2018 23:21 14,9 °C 83 % 1007,6 hPa 0,0 mm 0,0 km/h (0 Bft) O-SO 112 ° 0 min 0,000 mm 0,0 UV-I 0 W/m² 12,0 °C 14,9 °C 0,0 km/h (0 Bft)
05.06.2018 23:22 14,9 °C 83 % 1007,6 hPa 0,0 mm 0,0 km/h (0 Bft) O-SO 112 ° 0 min 0,000 mm 0,0 UV-I 0 W/m² 12,0 °C 14,9 °C 0,0 km/h (0 Bft)
05.06.2018 23:23 14,9 °C 83 % 1007,6 hPa 0,0 mm 0,0 km/h (0 Bft) O-SO 112 ° 0 min 0,000 mm 0,0 UV-I 0 W/m² 12,0 °C 14,9 °C 0,0 km/h (0 Bft)
05.06.2018 23:24 14,9 °C 83 % 1007,6 hPa 0,0 mm 0,0 km/h (0 Bft) O-SO 112 ° 0 min 0,000 mm 0,0 UV-I 0 W/m² 12,0 °C 14,9 °C 0,0 km/h (0 Bft)
05.06.2018 23:25 14,9 °C 84 % 1007,6 hPa 0,0 mm 0,0 km/h (0 Bft) O-SO 112 ° 0 min 0,000 mm 0,0 UV-I 0 W/m² 12,2 °C 14,9 °C 0,0 km/h (0 Bft)
05.06.2018 23:26 14,9 °C 84 % 1007,6 hPa 0,0 mm 0,0 km/h (0 Bft) O-SO 112 ° 0 min 0,000 mm 0,0 UV-I 0 W/m² 12,2 °C 14,9 °C 0,0 km/h (0 Bft)
05.06.2018 23:27 14,8 °C 84 % 1007,6 hPa 0,0 mm 0,0 km/h (0 Bft) O-SO 112 ° 0 min 0,000 mm 0,0 UV-I 0 W/m² 12,1 °C 14,8 °C 0,0 km/h (0 Bft)
05.06.2018 23:28 14,8 °C 84 % 1007,6 hPa 0,0 mm 0,0 km/h (0 Bft) O-SO 112 ° 0 min 0,000 mm 0,0 UV-I 0 W/m² 12,1 °C 14,8 °C 0,0 km/h (0 Bft)
05.06.2018 23:29 14,8 °C 84 % 1007,6 hPa 0,0 mm 0,0 km/h (0 Bft) O-SO 112 ° 0 min 0,000 mm 0,0 UV-I 0 W/m² 12,1 °C 14,8 °C 0,0 km/h (0 Bft)
05.06.2018 23:30 14,8 °C 84 % 1007,6 hPa 0,0 mm 0,0 km/h (0 Bft) O-SO 112 ° 0 min 0,000 mm 0,0 UV-I 0 W/m² 12,1 °C 14,8 °C 0,0 km/h (0 Bft)
05.06.2018 23:31 14,7 °C 84 % 1007,6 hPa 0,0 mm 0,0 km/h (0 Bft) O-SO 112 ° 0 min 0,000 mm 0,0 UV-I 0 W/m² 12,0 °C 14,7 °C 0,0 km/h (0 Bft)
05.06.2018 23:32 14,7 °C 84 % 1007,6 hPa 0,0 mm 0,0 km/h (0 Bft) O-SO 112 ° 0 min 0,000 mm 0,0 UV-I 0 W/m² 12,0 °C 14,7 °C 0,0 km/h (0 Bft)
05.06.2018 23:33 14,7 °C 85 % 1007,6 hPa 0,0 mm 0,0 km/h (0 Bft) O-SO 112 ° 0 min 0,000 mm 0,0 UV-I 0 W/m² 12,2 °C 14,7 °C 0,0 km/h (0 Bft)
05.06.2018 23:34 14,7 °C 85 % 1007,6 hPa 0,0 mm 0,0 km/h (0 Bft) O-SO 112 ° 0 min 0,000 mm 0,0 UV-I 0 W/m² 12,2 °C 14,7 °C 0,0 km/h (0 Bft)
05.06.2018 23:35 14,7 °C 85 % 1007,6 hPa 0,0 mm 0,0 km/h (0 Bft) O-SO 112 ° 0 min 0,000 mm 0,0 UV-I 0 W/m² 12,2 °C 14,7 °C 0,0 km/h (0 Bft)
05.06.2018 23:36 14,7 °C 85 % 1007,6 hPa 0,0 mm 0,0 km/h (0 Bft) O-SO 112 ° 0 min 0,000 mm 0,0 UV-I 0 W/m² 12,2 °C 14,7 °C 0,0 km/h (0 Bft)
05.06.2018 23:37 14,7 °C 85 % 1007,6 hPa 0,0 mm 0,0 km/h (0 Bft) O-SO 112 ° 0 min 0,000 mm 0,0 UV-I 0 W/m² 12,2 °C 14,7 °C 0,0 km/h (0 Bft)
05.06.2018 23:38 14,8 °C 84 % 1007,6 hPa 0,0 mm 0,0 km/h (0 Bft) O-SO 112 ° 0 min 0,000 mm 0,0 UV-I 0 W/m² 12,1 °C 14,8 °C 0,0 km/h (0 Bft)
05.06.2018 23:39 14,8 °C 84 % 1007,6 hPa 0,0 mm 0,0 km/h (0 Bft) O-SO 112 ° 0 min 0,000 mm 0,0 UV-I 0 W/m² 12,1 °C 14,8 °C 0,0 km/h (0 Bft)
05.06.2018 23:40 14,8 °C 84 % 1007,6 hPa 0,0 mm 0,0 km/h (0 Bft) O-SO 112 ° 0 min 0,000 mm 0,0 UV-I 0 W/m² 12,1 °C 14,8 °C 0,0 km/h (0 Bft)
05.06.2018 23:41 14,8 °C 84 % 1007,6 hPa 0,0 mm 0,0 km/h (0 Bft) O-SO 112 ° 0 min 0,000 mm 0,0 UV-I 0 W/m² 12,1 °C 14,8 °C 0,0 km/h (0 Bft)
05.06.2018 23:42 14,8 °C 84 % 1007,6 hPa 0,0 mm 0,0 km/h (0 Bft) O-SO 112 ° 0 min 0,000 mm 0,0 UV-I 0 W/m² 12,1 °C 14,8 °C 0,0 km/h (0 Bft)
05.06.2018 23:43 14,8 °C 84 % 1007,7 hPa 0,0 mm 0,0 km/h (0 Bft) O-SO 112 ° 0 min 0,000 mm 0,0 UV-I 0 W/m² 12,1 °C 14,8 °C 0,0 km/h (0 Bft)
05.06.2018 23:44 14,8 °C 84 % 1007,6 hPa 0,0 mm 0,0 km/h (0 Bft) O-SO 112 ° 0 min 0,000 mm 0,0 UV-I 0 W/m² 12,1 °C 14,8 °C 0,0 km/h (0 Bft)
05.06.2018 23:45 14,8 °C 84 % 1007,6 hPa 0,0 mm 0,0 km/h (0 Bft) O-SO 112 ° 0 min 0,000 mm 0,0 UV-I 0 W/m² 12,1 °C 14,8 °C 0,0 km/h (0 Bft)
05.06.2018 23:46 14,8 °C 84 % 1007,6 hPa 0,0 mm 0,0 km/h (0 Bft) O-SO 112 ° 0 min 0,000 mm 0,0 UV-I 0 W/m² 12,1 °C 14,8 °C 0,0 km/h (0 Bft)
05.06.2018 23:47 14,8 °C 84 % 1007,6 hPa 0,0 mm 0,0 km/h (0 Bft) O-SO 112 ° 0 min 0,000 mm 0,0 UV-I 0 W/m² 12,1 °C 14,8 °C 0,0 km/h (0 Bft)
05.06.2018 23:48 14,8 °C 84 % 1007,6 hPa 0,0 mm 0,0 km/h (0 Bft) O-SO 112 ° 0 min 0,000 mm 0,0 UV-I 0 W/m² 12,1 °C 14,8 °C 0,0 km/h (0 Bft)
05.06.2018 23:49 14,8 °C 84 % 1007,6 hPa 0,0 mm 0,0 km/h (0 Bft) O-SO 112 ° 0 min 0,000 mm 0,0 UV-I 0 W/m² 12,1 °C 14,8 °C 0,0 km/h (0 Bft)
05.06.2018 23:50 14,8 °C 84 % 1007,6 hPa 0,0 mm 0,0 km/h (0 Bft) O-SO 112 ° 0 min 0,000 mm 0,0 UV-I 0 W/m² 12,1 °C 14,8 °C 0,0 km/h (0 Bft)
05.06.2018 23:51 14,8 °C 84 % 1007,6 hPa 0,0 mm 0,0 km/h (0 Bft) O-SO 112 ° 0 min 0,000 mm 0,0 UV-I 0 W/m² 12,1 °C 14,8 °C 0,0 km/h (0 Bft)
05.06.2018 23:52 14,8 °C 83 % 1007,6 hPa 0,0 mm 0,0 km/h (0 Bft) O-SO 112 ° 0 min 0,000 mm 0,0 UV-I 0 W/m² 11,9 °C 14,8 °C 0,0 km/h (0 Bft)
05.06.2018 23:53 14,8 °C 83 % 1007,6 hPa 0,0 mm 0,0 km/h (0 Bft) O-SO 112 ° 0 min 0,000 mm 0,0 UV-I 0 W/m² 11,9 °C 14,8 °C 0,0 km/h (0 Bft)
05.06.2018 23:54 14,8 °C 83 % 1007,6 hPa 0,0 mm 0,0 km/h (0 Bft) O-SO 112 ° 0 min 0,000 mm 0,0 UV-I 0 W/m² 11,9 °C 14,8 °C 0,0 km/h (0 Bft)
05.06.2018 23:55 14,8 °C 83 % 1007,6 hPa 0,0 mm 0,0 km/h (0 Bft) O-SO 112 ° 0 min 0,000 mm 0,0 UV-I 0 W/m² 11,9 °C 14,8 °C 0,0 km/h (0 Bft)
05.06.2018 23:56 14,8 °C 83 % 1007,6 hPa 0,0 mm 0,0 km/h (0 Bft) O-SO 112 ° 0 min 0,000 mm 0,0 UV-I 0 W/m² 11,9 °C 14,8 °C 0,0 km/h (0 Bft)
05.06.2018 23:57 14,8 °C 83 % 1007,6 hPa 0,0 mm 0,0 km/h (0 Bft) O-SO 112 ° 0 min 0,000 mm 0,0 UV-I 0 W/m² 11,9 °C 14,8 °C 0,0 km/h (0 Bft)
05.06.2018 23:58 14,8 °C 83 % 1007,6 hPa 0,0 mm 0,0 km/h (0 Bft) O-SO 112 ° 0 min 0,000 mm 0,0 UV-I 0 W/m² 11,9 °C 14,8 °C 0,0 km/h (0 Bft)
05.06.2018 23:59 14,8 °C 83 % 1007,6 hPa 0,0 mm 0,0 km/h (0 Bft) O-SO 112 ° 0 min 0,000 mm 0,0 UV-I 0 W/m² 11,9 °C 14,8 °C 0,0 km/h (0 Bft)
_ Min-Zeit 05:09 18:16 16:55 - 23:59 - - - - - - 05:09 05:09 23:59
Minimum _ 10,9 °C 45 % 1005,8 hPa - 0,0 km/h (0 Bft) - - - - - - 9,7 °C 10,9 °C 0,0 km/h (0 Bft)
_ Max-Zeit 14:46 06:59 09:09 23:59 15:18 - - 12:03 14:01 13:16 14:48 12:13 14:46 12:33
Maximum _ 24,7 °C 93 % 1007,9 hPa 0,0 mm 13,6 km/h
NO (3 Bft)
- - 2 min 0,584 mm 7,3 UV-I 1007 W/m² 16,9 °C 24,7 °C 20,9 km/h
O-NO (4 Bft)
Durchschnitt _ 18,0 °C 72 % 1007,0 hPa #0,0 mm 2,1 km/h (1 Bft) NO - #5:12 h #3,886 mm 3,4 UV-I 253 W/m² 12,4 °C 18,0 °C 3,8 km/h (1 Bft)